<?xml version="1.0" encoding="UTF-8" standalone="no" ?>
<gpx xmlns="http://www.topografix.com/GPX/1/1" xmlns:xsi="http://www.w3.org/2001/XMLSchema-instance" xsi:schemaLocation="http://www.topografix.com/GPX/1/1 http://www.topografix.com/GPX/1/1/gpx.xsd" version="1.1" creator="VisuGPX - https://www.visugpx.com">
  <metadata>
    <name>Chapelle St Ferréol et Château de Chabrières</name>
    <desc><![CDATA[Sortie du jeudi après-midi effectuée par 21 membres du SCLapalud]]></desc>
  </metadata>
  <trk>
    <name><![CDATA[ACTIVE LOG 005]]></name>
    <trkseg>
      <trkpt lat="44.30871" lon="4.77816">
        <ele>135</ele>
        <time>2014-11-13T13:26:34Z</time>
      </trkpt>
      <trkpt lat="44.30861" lon="4.77795">
        <ele>131</ele>
        <time>2014-11-13T13:27:10Z</time>
      </trkpt>
      <trkpt lat="44.30861" lon="4.77795">
        <ele>127</ele>
        <time>2014-11-13T13:27:12Z</time>
      </trkpt>
      <trkpt lat="44.30861" lon="4.77795">
        <ele>123</ele>
        <time>2014-11-13T13:27:15Z</time>
      </trkpt>
      <trkpt lat="44.30861" lon="4.77795">
        <ele>118</ele>
        <time>2014-11-13T13:27:18Z</time>
      </trkpt>
      <trkpt lat="44.30861" lon="4.77794">
        <ele>115</ele>
        <time>2014-11-13T13:27:21Z</time>
      </trkpt>
      <trkpt lat="44.30861" lon="4.77794">
        <ele>111</ele>
        <time>2014-11-13T13:27:24Z</time>
      </trkpt>
      <trkpt lat="44.30861" lon="4.77794">
        <ele>108</ele>
        <time>2014-11-13T13:27:28Z</time>
      </trkpt>
      <trkpt lat="44.3086" lon="4.77793">
        <ele>104</ele>
        <time>2014-11-13T13:27:32Z</time>
      </trkpt>
      <trkpt lat="44.3086" lon="4.77785">
        <ele>100</ele>
        <time>2014-11-13T13:27:37Z</time>
      </trkpt>
      <trkpt lat="44.30862" lon="4.77781">
        <ele>97</ele>
        <time>2014-11-13T13:27:42Z</time>
      </trkpt>
      <trkpt lat="44.30862" lon="4.7778">
        <ele>94</ele>
        <time>2014-11-13T13:27:47Z</time>
      </trkpt>
      <trkpt lat="44.30862" lon="4.7778">
        <ele>91</ele>
        <time>2014-11-13T13:27:53Z</time>
      </trkpt>
      <trkpt lat="44.30862" lon="4.7778">
        <ele>88</ele>
        <time>2014-11-13T13:28:00Z</time>
      </trkpt>
      <trkpt lat="44.30862" lon="4.7778">
        <ele>84</ele>
        <time>2014-11-13T13:28:10Z</time>
      </trkpt>
      <trkpt lat="44.30862" lon="4.7778">
        <ele>81</ele>
        <time>2014-11-13T13:28:26Z</time>
      </trkpt>
      <trkpt lat="44.30862" lon="4.7778">
        <ele>78</ele>
        <time>2014-11-13T13:28:46Z</time>
      </trkpt>
      <trkpt lat="44.30862" lon="4.7778">
        <ele>77</ele>
        <time>2014-11-13T13:29:02Z</time>
      </trkpt>
      <trkpt lat="44.30862" lon="4.77778">
        <ele>77</ele>
        <time>2014-11-13T13:29:10Z</time>
      </trkpt>
      <trkpt lat="44.30861" lon="4.77778">
        <ele>77</ele>
        <time>2014-11-13T13:29:26Z</time>
      </trkpt>
      <trkpt lat="44.30861" lon="4.77777">
        <ele>77</ele>
        <time>2014-11-13T13:29:48Z</time>
      </trkpt>
      <trkpt lat="44.30861" lon="4.77777">
        <ele>77</ele>
        <time>2014-11-13T13:29:57Z</time>
      </trkpt>
      <trkpt lat="44.30862" lon="4.77776">
        <ele>77</ele>
        <time>2014-11-13T13:30:14Z</time>
      </trkpt>
      <trkpt lat="44.30862" lon="4.77776">
        <ele>77</ele>
        <time>2014-11-13T13:30:24Z</time>
      </trkpt>
      <trkpt lat="44.30862" lon="4.77777">
        <ele>76</ele>
        <time>2014-11-13T13:30:39Z</time>
      </trkpt>
      <trkpt lat="44.30862" lon="4.77776">
        <ele>76</ele>
        <time>2014-11-13T13:30:49Z</time>
      </trkpt>
      <trkpt lat="44.30861" lon="4.77776">
        <ele>76</ele>
        <time>2014-11-13T13:30:55Z</time>
      </trkpt>
      <trkpt lat="44.30862" lon="4.77774">
        <ele>77</ele>
        <time>2014-11-13T13:31:02Z</time>
      </trkpt>
      <trkpt lat="44.30862" lon="4.77774">
        <ele>77</ele>
        <time>2014-11-13T13:31:09Z</time>
      </trkpt>
      <trkpt lat="44.30862" lon="4.77775">
        <ele>77</ele>
        <time>2014-11-13T13:31:17Z</time>
      </trkpt>
      <trkpt lat="44.30862" lon="4.77775">
        <ele>76</ele>
        <time>2014-11-13T13:31:41Z</time>
      </trkpt>
      <trkpt lat="44.30859" lon="4.77775">
        <ele>77</ele>
        <time>2014-11-13T13:31:44Z</time>
      </trkpt>
      <trkpt lat="44.30856" lon="4.77777">
        <ele>77</ele>
        <time>2014-11-13T13:31:47Z</time>
      </trkpt>
      <trkpt lat="44.3085" lon="4.77779">
        <ele>76</ele>
        <time>2014-11-13T13:31:54Z</time>
      </trkpt>
      <trkpt lat="44.30837" lon="4.77786">
        <ele>75</ele>
        <time>2014-11-13T13:32:06Z</time>
      </trkpt>
      <trkpt lat="44.30834" lon="4.77787">
        <ele>75</ele>
        <time>2014-11-13T13:32:08Z</time>
      </trkpt>
      <trkpt lat="44.3083" lon="4.77789">
        <ele>75</ele>
        <time>2014-11-13T13:32:12Z</time>
      </trkpt>
      <trkpt lat="44.30827" lon="4.7779">
        <ele>75</ele>
        <time>2014-11-13T13:32:17Z</time>
      </trkpt>
      <trkpt lat="44.30826" lon="4.7779">
        <ele>75</ele>
        <time>2014-11-13T13:32:18Z</time>
      </trkpt>
      <trkpt lat="44.30824" lon="4.77794">
        <ele>75</ele>
        <time>2014-11-13T13:32:23Z</time>
      </trkpt>
      <trkpt lat="44.30821" lon="4.77796">
        <ele>75</ele>
        <time>2014-11-13T13:32:28Z</time>
      </trkpt>
      <trkpt lat="44.30818" lon="4.77797">
        <ele>74</ele>
        <time>2014-11-13T13:32:30Z</time>
      </trkpt>
      <trkpt lat="44.30817" lon="4.778">
        <ele>74</ele>
        <time>2014-11-13T13:32:34Z</time>
      </trkpt>
      <trkpt lat="44.30811" lon="4.77801">
        <ele>74</ele>
        <time>2014-11-13T13:32:42Z</time>
      </trkpt>
      <trkpt lat="44.30805" lon="4.77802">
        <ele>74</ele>
        <time>2014-11-13T13:32:49Z</time>
      </trkpt>
      <trkpt lat="44.30801" lon="4.778">
        <ele>74</ele>
        <time>2014-11-13T13:32:55Z</time>
      </trkpt>
      <trkpt lat="44.308" lon="4.77798">
        <ele>74</ele>
        <time>2014-11-13T13:32:58Z</time>
      </trkpt>
      <trkpt lat="44.30793" lon="4.77785">
        <ele>74</ele>
        <time>2014-11-13T13:33:08Z</time>
      </trkpt>
      <trkpt lat="44.30787" lon="4.77773">
        <ele>74</ele>
        <time>2014-11-13T13:33:17Z</time>
      </trkpt>
      <trkpt lat="44.30781" lon="4.77758">
        <ele>74</ele>
        <time>2014-11-13T13:33:30Z</time>
      </trkpt>
      <trkpt lat="44.30779" lon="4.77752">
        <ele>74</ele>
        <time>2014-11-13T13:33:37Z</time>
      </trkpt>
      <trkpt lat="44.30776" lon="4.77741">
        <ele>74</ele>
        <time>2014-11-13T13:33:44Z</time>
      </trkpt>
      <trkpt lat="44.30772" lon="4.77728">
        <ele>73</ele>
        <time>2014-11-13T13:33:52Z</time>
      </trkpt>
      <trkpt lat="44.30772" lon="4.77724">
        <ele>74</ele>
        <time>2014-11-13T13:33:55Z</time>
      </trkpt>
      <trkpt lat="44.30773" lon="4.7771">
        <ele>74</ele>
        <time>2014-11-13T13:34:05Z</time>
      </trkpt>
      <trkpt lat="44.30773" lon="4.77705">
        <ele>74</ele>
        <time>2014-11-13T13:34:08Z</time>
      </trkpt>
      <trkpt lat="44.3077" lon="4.77692">
        <ele>74</ele>
        <time>2014-11-13T13:34:17Z</time>
      </trkpt>
      <trkpt lat="44.30768" lon="4.77685">
        <ele>74</ele>
        <time>2014-11-13T13:34:23Z</time>
      </trkpt>
      <trkpt lat="44.30768" lon="4.7768">
        <ele>74</ele>
        <time>2014-11-13T13:34:31Z</time>
      </trkpt>
      <trkpt lat="44.30768" lon="4.77676">
        <ele>74</ele>
        <time>2014-11-13T13:34:34Z</time>
      </trkpt>
      <trkpt lat="44.3077" lon="4.77667">
        <ele>74</ele>
        <time>2014-11-13T13:34:39Z</time>
      </trkpt>
      <trkpt lat="44.3077" lon="4.77654">
        <ele>74</ele>
        <time>2014-11-13T13:34:50Z</time>
      </trkpt>
      <trkpt lat="44.3077" lon="4.77642">
        <ele>74</ele>
        <time>2014-11-13T13:34:59Z</time>
      </trkpt>
      <trkpt lat="44.30771" lon="4.77622">
        <ele>75</ele>
        <time>2014-11-13T13:35:11Z</time>
      </trkpt>
      <trkpt lat="44.30774" lon="4.7761">
        <ele>74</ele>
        <time>2014-11-13T13:35:20Z</time>
      </trkpt>
      <trkpt lat="44.30774" lon="4.776">
        <ele>74</ele>
        <time>2014-11-13T13:35:27Z</time>
      </trkpt>
      <trkpt lat="44.30773" lon="4.77594">
        <ele>74</ele>
        <time>2014-11-13T13:35:32Z</time>
      </trkpt>
      <trkpt lat="44.30775" lon="4.77586">
        <ele>74</ele>
        <time>2014-11-13T13:35:38Z</time>
      </trkpt>
      <trkpt lat="44.30776" lon="4.77582">
        <ele>74</ele>
        <time>2014-11-13T13:35:40Z</time>
      </trkpt>
      <trkpt lat="44.30773" lon="4.77564">
        <ele>74</ele>
        <time>2014-11-13T13:35:51Z</time>
      </trkpt>
      <trkpt lat="44.30773" lon="4.77558">
        <ele>74</ele>
        <time>2014-11-13T13:35:57Z</time>
      </trkpt>
      <trkpt lat="44.30773" lon="4.77552">
        <ele>74</ele>
        <time>2014-11-13T13:36:00Z</time>
      </trkpt>
      <trkpt lat="44.30773" lon="4.77549">
        <ele>74</ele>
        <time>2014-11-13T13:36:02Z</time>
      </trkpt>
      <trkpt lat="44.30773" lon="4.77546">
        <ele>74</ele>
        <time>2014-11-13T13:36:04Z</time>
      </trkpt>
      <trkpt lat="44.30771" lon="4.77537">
        <ele>74</ele>
        <time>2014-11-13T13:36:13Z</time>
      </trkpt>
      <trkpt lat="44.30769" lon="4.77524">
        <ele>74</ele>
        <time>2014-11-13T13:36:21Z</time>
      </trkpt>
      <trkpt lat="44.30769" lon="4.77511">
        <ele>74</ele>
        <time>2014-11-13T13:36:29Z</time>
      </trkpt>
      <trkpt lat="44.30768" lon="4.77502">
        <ele>74</ele>
        <time>2014-11-13T13:36:35Z</time>
      </trkpt>
      <trkpt lat="44.30766" lon="4.77495">
        <ele>74</ele>
        <time>2014-11-13T13:36:41Z</time>
      </trkpt>
      <trkpt lat="44.30763" lon="4.77483">
        <ele>75</ele>
        <time>2014-11-13T13:36:50Z</time>
      </trkpt>
      <trkpt lat="44.3076" lon="4.77465">
        <ele>75</ele>
        <time>2014-11-13T13:37:01Z</time>
      </trkpt>
      <trkpt lat="44.30758" lon="4.77447">
        <ele>74</ele>
        <time>2014-11-13T13:37:10Z</time>
      </trkpt>
      <trkpt lat="44.30757" lon="4.77438">
        <ele>74</ele>
        <time>2014-11-13T13:37:18Z</time>
      </trkpt>
      <trkpt lat="44.30755" lon="4.77414">
        <ele>75</ele>
        <time>2014-11-13T13:37:35Z</time>
      </trkpt>
      <trkpt lat="44.30751" lon="4.77395">
        <ele>75</ele>
        <time>2014-11-13T13:37:48Z</time>
      </trkpt>
      <trkpt lat="44.30749" lon="4.77378">
        <ele>74</ele>
        <time>2014-11-13T13:37:58Z</time>
      </trkpt>
      <trkpt lat="44.30747" lon="4.77373">
        <ele>74</ele>
        <time>2014-11-13T13:38:01Z</time>
      </trkpt>
      <trkpt lat="44.30747" lon="4.7736">
        <ele>75</ele>
        <time>2014-11-13T13:38:10Z</time>
      </trkpt>
      <trkpt lat="44.30745" lon="4.77356">
        <ele>75</ele>
        <time>2014-11-13T13:38:14Z</time>
      </trkpt>
      <trkpt lat="44.30744" lon="4.77354">
        <ele>75</ele>
        <time>2014-11-13T13:38:16Z</time>
      </trkpt>
      <trkpt lat="44.30742" lon="4.77348">
        <ele>75</ele>
        <time>2014-11-13T13:38:20Z</time>
      </trkpt>
      <trkpt lat="44.3074" lon="4.77335">
        <ele>75</ele>
        <time>2014-11-13T13:38:28Z</time>
      </trkpt>
      <trkpt lat="44.30739" lon="4.77328">
        <ele>75</ele>
        <time>2014-11-13T13:38:34Z</time>
      </trkpt>
      <trkpt lat="44.30738" lon="4.77321">
        <ele>75</ele>
        <time>2014-11-13T13:38:38Z</time>
      </trkpt>
      <trkpt lat="44.30734" lon="4.77306">
        <ele>75</ele>
        <time>2014-11-13T13:38:48Z</time>
      </trkpt>
      <trkpt lat="44.30731" lon="4.77298">
        <ele>76</ele>
        <time>2014-11-13T13:38:54Z</time>
      </trkpt>
      <trkpt lat="44.30729" lon="4.77288">
        <ele>76</ele>
        <time>2014-11-13T13:39:00Z</time>
      </trkpt>
      <trkpt lat="44.30726" lon="4.77276">
        <ele>75</ele>
        <time>2014-11-13T13:39:10Z</time>
      </trkpt>
      <trkpt lat="44.30724" lon="4.77272">
        <ele>75</ele>
        <time>2014-11-13T13:39:14Z</time>
      </trkpt>
      <trkpt lat="44.30722" lon="4.77265">
        <ele>75</ele>
        <time>2014-11-13T13:39:21Z</time>
      </trkpt>
      <trkpt lat="44.30721" lon="4.7726">
        <ele>75</ele>
        <time>2014-11-13T13:39:32Z</time>
      </trkpt>
      <trkpt lat="44.30715" lon="4.77249">
        <ele>75</ele>
        <time>2014-11-13T13:39:43Z</time>
      </trkpt>
      <trkpt lat="44.30711" lon="4.77233">
        <ele>75</ele>
        <time>2014-11-13T13:39:50Z</time>
      </trkpt>
      <trkpt lat="44.30707" lon="4.77219">
        <ele>75</ele>
        <time>2014-11-13T13:39:57Z</time>
      </trkpt>
      <trkpt lat="44.30703" lon="4.77206">
        <ele>75</ele>
        <time>2014-11-13T13:40:02Z</time>
      </trkpt>
      <trkpt lat="44.30697" lon="4.77192">
        <ele>75</ele>
        <time>2014-11-13T13:40:09Z</time>
      </trkpt>
      <trkpt lat="44.30693" lon="4.77179">
        <ele>75</ele>
        <time>2014-11-13T13:40:17Z</time>
      </trkpt>
      <trkpt lat="44.30688" lon="4.7717">
        <ele>75</ele>
        <time>2014-11-13T13:40:26Z</time>
      </trkpt>
      <trkpt lat="44.30686" lon="4.77161">
        <ele>75</ele>
        <time>2014-11-13T13:40:32Z</time>
      </trkpt>
      <trkpt lat="44.30683" lon="4.77156">
        <ele>76</ele>
        <time>2014-11-13T13:40:39Z</time>
      </trkpt>
      <trkpt lat="44.30681" lon="4.77147">
        <ele>76</ele>
        <time>2014-11-13T13:40:49Z</time>
      </trkpt>
      <trkpt lat="44.30675" lon="4.77136">
        <ele>77</ele>
        <time>2014-11-13T13:40:56Z</time>
      </trkpt>
      <trkpt lat="44.30673" lon="4.77117">
        <ele>77</ele>
        <time>2014-11-13T13:41:08Z</time>
      </trkpt>
      <trkpt lat="44.30673" lon="4.77112">
        <ele>77</ele>
        <time>2014-11-13T13:41:12Z</time>
      </trkpt>
      <trkpt lat="44.30669" lon="4.77098">
        <ele>77</ele>
        <time>2014-11-13T13:41:21Z</time>
      </trkpt>
      <trkpt lat="44.30668" lon="4.77087">
        <ele>77</ele>
        <time>2014-11-13T13:41:28Z</time>
      </trkpt>
      <trkpt lat="44.30668" lon="4.77081">
        <ele>77</ele>
        <time>2014-11-13T13:41:33Z</time>
      </trkpt>
      <trkpt lat="44.30664" lon="4.77067">
        <ele>78</ele>
        <time>2014-11-13T13:41:42Z</time>
      </trkpt>
      <trkpt lat="44.30661" lon="4.77062">
        <ele>77</ele>
        <time>2014-11-13T13:41:45Z</time>
      </trkpt>
      <trkpt lat="44.30658" lon="4.7705">
        <ele>78</ele>
        <time>2014-11-13T13:41:53Z</time>
      </trkpt>
      <trkpt lat="44.30657" lon="4.7704">
        <ele>78</ele>
        <time>2014-11-13T13:42:00Z</time>
      </trkpt>
      <trkpt lat="44.30655" lon="4.77033">
        <ele>78</ele>
        <time>2014-11-13T13:42:05Z</time>
      </trkpt>
      <trkpt lat="44.30655" lon="4.77027">
        <ele>78</ele>
        <time>2014-11-13T13:42:10Z</time>
      </trkpt>
      <trkpt lat="44.30651" lon="4.77012">
        <ele>78</ele>
        <time>2014-11-13T13:42:20Z</time>
      </trkpt>
      <trkpt lat="44.30646" lon="4.76998">
        <ele>78</ele>
        <time>2014-11-13T13:42:30Z</time>
      </trkpt>
      <trkpt lat="44.30642" lon="4.76987">
        <ele>78</ele>
        <time>2014-11-13T13:42:38Z</time>
      </trkpt>
      <trkpt lat="44.30639" lon="4.7698">
        <ele>78</ele>
        <time>2014-11-13T13:42:43Z</time>
      </trkpt>
      <trkpt lat="44.30638" lon="4.76974">
        <ele>78</ele>
        <time>2014-11-13T13:42:46Z</time>
      </trkpt>
      <trkpt lat="44.30631" lon="4.76958">
        <ele>78</ele>
        <time>2014-11-13T13:42:57Z</time>
      </trkpt>
      <trkpt lat="44.30631" lon="4.76949">
        <ele>78</ele>
        <time>2014-11-13T13:43:05Z</time>
      </trkpt>
      <trkpt lat="44.30628" lon="4.76935">
        <ele>79</ele>
        <time>2014-11-13T13:43:15Z</time>
      </trkpt>
      <trkpt lat="44.30628" lon="4.76934">
        <ele>79</ele>
        <time>2014-11-13T13:43:16Z</time>
      </trkpt>
      <trkpt lat="44.30628" lon="4.76928">
        <ele>79</ele>
        <time>2014-11-13T13:43:20Z</time>
      </trkpt>
      <trkpt lat="44.30626" lon="4.76913">
        <ele>79</ele>
        <time>2014-11-13T13:43:30Z</time>
      </trkpt>
      <trkpt lat="44.30622" lon="4.76902">
        <ele>79</ele>
        <time>2014-11-13T13:43:37Z</time>
      </trkpt>
      <trkpt lat="44.30621" lon="4.76895">
        <ele>79</ele>
        <time>2014-11-13T13:43:44Z</time>
      </trkpt>
      <trkpt lat="44.30619" lon="4.76881">
        <ele>80</ele>
        <time>2014-11-13T13:43:53Z</time>
      </trkpt>
      <trkpt lat="44.30619" lon="4.7687">
        <ele>80</ele>
        <time>2014-11-13T13:44:02Z</time>
      </trkpt>
      <trkpt lat="44.30616" lon="4.76864">
        <ele>80</ele>
        <time>2014-11-13T13:44:06Z</time>
      </trkpt>
      <trkpt lat="44.30613" lon="4.76853">
        <ele>80</ele>
        <time>2014-11-13T13:44:14Z</time>
      </trkpt>
      <trkpt lat="44.30612" lon="4.76834">
        <ele>80</ele>
        <time>2014-11-13T13:44:25Z</time>
      </trkpt>
      <trkpt lat="44.30607" lon="4.76816">
        <ele>80</ele>
        <time>2014-11-13T13:44:37Z</time>
      </trkpt>
      <trkpt lat="44.30605" lon="4.76809">
        <ele>79</ele>
        <time>2014-11-13T13:44:43Z</time>
      </trkpt>
      <trkpt lat="44.30597" lon="4.76792">
        <ele>79</ele>
        <time>2014-11-13T13:44:56Z</time>
      </trkpt>
      <trkpt lat="44.30591" lon="4.76777">
        <ele>78</ele>
        <time>2014-11-13T13:45:07Z</time>
      </trkpt>
      <trkpt lat="44.30588" lon="4.76772">
        <ele>78</ele>
        <time>2014-11-13T13:45:12Z</time>
      </trkpt>
      <trkpt lat="44.30585" lon="4.76767">
        <ele>78</ele>
        <time>2014-11-13T13:45:16Z</time>
      </trkpt>
      <trkpt lat="44.30582" lon="4.76763">
        <ele>78</ele>
        <time>2014-11-13T13:45:19Z</time>
      </trkpt>
      <trkpt lat="44.3058" lon="4.76755">
        <ele>78</ele>
        <time>2014-11-13T13:45:25Z</time>
      </trkpt>
      <trkpt lat="44.3058" lon="4.76753">
        <ele>78</ele>
        <time>2014-11-13T13:45:26Z</time>
      </trkpt>
      <trkpt lat="44.30576" lon="4.76744">
        <ele>78</ele>
        <time>2014-11-13T13:45:32Z</time>
      </trkpt>
      <trkpt lat="44.30571" lon="4.76736">
        <ele>78</ele>
        <time>2014-11-13T13:45:40Z</time>
      </trkpt>
      <trkpt lat="44.30567" lon="4.76726">
        <ele>78</ele>
        <time>2014-11-13T13:45:47Z</time>
      </trkpt>
      <trkpt lat="44.30566" lon="4.7672">
        <ele>77</ele>
        <time>2014-11-13T13:45:51Z</time>
      </trkpt>
      <trkpt lat="44.30564" lon="4.76712">
        <ele>77</ele>
        <time>2014-11-13T13:45:56Z</time>
      </trkpt>
      <trkpt lat="44.30561" lon="4.76704">
        <ele>77</ele>
        <time>2014-11-13T13:46:02Z</time>
      </trkpt>
      <trkpt lat="44.30561" lon="4.76699">
        <ele>77</ele>
        <time>2014-11-13T13:46:04Z</time>
      </trkpt>
      <trkpt lat="44.30557" lon="4.76692">
        <ele>76</ele>
        <time>2014-11-13T13:46:10Z</time>
      </trkpt>
      <trkpt lat="44.30556" lon="4.76689">
        <ele>76</ele>
        <time>2014-11-13T13:46:12Z</time>
      </trkpt>
      <trkpt lat="44.30553" lon="4.76678">
        <ele>76</ele>
        <time>2014-11-13T13:46:17Z</time>
      </trkpt>
      <trkpt lat="44.3055" lon="4.76671">
        <ele>76</ele>
        <time>2014-11-13T13:46:22Z</time>
      </trkpt>
      <trkpt lat="44.30548" lon="4.7666">
        <ele>76</ele>
        <time>2014-11-13T13:46:29Z</time>
      </trkpt>
      <trkpt lat="44.30546" lon="4.76646">
        <ele>76</ele>
        <time>2014-11-13T13:46:38Z</time>
      </trkpt>
      <trkpt lat="44.30545" lon="4.76641">
        <ele>76</ele>
        <time>2014-11-13T13:46:41Z</time>
      </trkpt>
      <trkpt lat="44.30542" lon="4.76635">
        <ele>76</ele>
        <time>2014-11-13T13:46:47Z</time>
      </trkpt>
      <trkpt lat="44.3054" lon="4.76629">
        <ele>75</ele>
        <time>2014-11-13T13:46:51Z</time>
      </trkpt>
      <trkpt lat="44.30537" lon="4.76619">
        <ele>76</ele>
        <time>2014-11-13T13:46:57Z</time>
      </trkpt>
      <trkpt lat="44.30533" lon="4.76606">
        <ele>75</ele>
        <time>2014-11-13T13:47:05Z</time>
      </trkpt>
      <trkpt lat="44.30531" lon="4.76595">
        <ele>76</ele>
        <time>2014-11-13T13:47:13Z</time>
      </trkpt>
      <trkpt lat="44.30528" lon="4.76582">
        <ele>75</ele>
        <time>2014-11-13T13:47:22Z</time>
      </trkpt>
      <trkpt lat="44.30524" lon="4.76573">
        <ele>75</ele>
        <time>2014-11-13T13:47:30Z</time>
      </trkpt>
      <trkpt lat="44.30524" lon="4.76569">
        <ele>75</ele>
        <time>2014-11-13T13:47:32Z</time>
      </trkpt>
      <trkpt lat="44.3052" lon="4.76552">
        <ele>75</ele>
        <time>2014-11-13T13:47:41Z</time>
      </trkpt>
      <trkpt lat="44.30518" lon="4.76545">
        <ele>75</ele>
        <time>2014-11-13T13:47:48Z</time>
      </trkpt>
      <trkpt lat="44.30515" lon="4.76532">
        <ele>75</ele>
        <time>2014-11-13T13:47:58Z</time>
      </trkpt>
      <trkpt lat="44.30514" lon="4.76526">
        <ele>75</ele>
        <time>2014-11-13T13:48:05Z</time>
      </trkpt>
      <trkpt lat="44.30511" lon="4.76513">
        <ele>75</ele>
        <time>2014-11-13T13:48:10Z</time>
      </trkpt>
      <trkpt lat="44.30507" lon="4.765">
        <ele>76</ele>
        <time>2014-11-13T13:48:19Z</time>
      </trkpt>
      <trkpt lat="44.30503" lon="4.76485">
        <ele>76</ele>
        <time>2014-11-13T13:48:29Z</time>
      </trkpt>
      <trkpt lat="44.305" lon="4.76472">
        <ele>76</ele>
        <time>2014-11-13T13:48:36Z</time>
      </trkpt>
      <trkpt lat="44.30497" lon="4.76467">
        <ele>76</ele>
        <time>2014-11-13T13:48:41Z</time>
      </trkpt>
      <trkpt lat="44.30494" lon="4.76459">
        <ele>76</ele>
        <time>2014-11-13T13:48:46Z</time>
      </trkpt>
      <trkpt lat="44.30492" lon="4.76457">
        <ele>76</ele>
        <time>2014-11-13T13:48:48Z</time>
      </trkpt>
      <trkpt lat="44.30486" lon="4.76448">
        <ele>76</ele>
        <time>2014-11-13T13:48:55Z</time>
      </trkpt>
      <trkpt lat="44.30484" lon="4.76439">
        <ele>76</ele>
        <time>2014-11-13T13:49:03Z</time>
      </trkpt>
      <trkpt lat="44.30481" lon="4.76433">
        <ele>76</ele>
        <time>2014-11-13T13:49:08Z</time>
      </trkpt>
      <trkpt lat="44.30479" lon="4.76426">
        <ele>76</ele>
        <time>2014-11-13T13:49:13Z</time>
      </trkpt>
      <trkpt lat="44.30476" lon="4.76421">
        <ele>76</ele>
        <time>2014-11-13T13:49:17Z</time>
      </trkpt>
      <trkpt lat="44.30468" lon="4.76417">
        <ele>76</ele>
        <time>2014-11-13T13:49:23Z</time>
      </trkpt>
      <trkpt lat="44.30468" lon="4.76415">
        <ele>76</ele>
        <time>2014-11-13T13:49:24Z</time>
      </trkpt>
      <trkpt lat="44.30464" lon="4.764">
        <ele>75</ele>
        <time>2014-11-13T13:49:32Z</time>
      </trkpt>
      <trkpt lat="44.3046" lon="4.7639">
        <ele>75</ele>
        <time>2014-11-13T13:49:39Z</time>
      </trkpt>
      <trkpt lat="44.30457" lon="4.7638">
        <ele>75</ele>
        <time>2014-11-13T13:49:45Z</time>
      </trkpt>
      <trkpt lat="44.30454" lon="4.76374">
        <ele>75</ele>
        <time>2014-11-13T13:49:49Z</time>
      </trkpt>
      <trkpt lat="44.30449" lon="4.76366">
        <ele>75</ele>
        <time>2014-11-13T13:49:57Z</time>
      </trkpt>
      <trkpt lat="44.30444" lon="4.76358">
        <ele>74</ele>
        <time>2014-11-13T13:50:03Z</time>
      </trkpt>
      <trkpt lat="44.30441" lon="4.76351">
        <ele>74</ele>
        <time>2014-11-13T13:50:08Z</time>
      </trkpt>
      <trkpt lat="44.30441" lon="4.76346">
        <ele>74</ele>
        <time>2014-11-13T13:50:11Z</time>
      </trkpt>
      <trkpt lat="44.30438" lon="4.7634">
        <ele>73</ele>
        <time>2014-11-13T13:50:15Z</time>
      </trkpt>
      <trkpt lat="44.30435" lon="4.76334">
        <ele>73</ele>
        <time>2014-11-13T13:50:20Z</time>
      </trkpt>
      <trkpt lat="44.30434" lon="4.76324">
        <ele>73</ele>
        <time>2014-11-13T13:50:25Z</time>
      </trkpt>
      <trkpt lat="44.30431" lon="4.7631">
        <ele>73</ele>
        <time>2014-11-13T13:50:33Z</time>
      </trkpt>
      <trkpt lat="44.30429" lon="4.76299">
        <ele>73</ele>
        <time>2014-11-13T13:50:39Z</time>
      </trkpt>
      <trkpt lat="44.3043" lon="4.76291">
        <ele>73</ele>
        <time>2014-11-13T13:50:45Z</time>
      </trkpt>
      <trkpt lat="44.30431" lon="4.76287">
        <ele>73</ele>
        <time>2014-11-13T13:50:48Z</time>
      </trkpt>
      <trkpt lat="44.30437" lon="4.76286">
        <ele>73</ele>
        <time>2014-11-13T13:50:56Z</time>
      </trkpt>
      <trkpt lat="44.30444" lon="4.76285">
        <ele>75</ele>
        <time>2014-11-13T13:51:03Z</time>
      </trkpt>
      <trkpt lat="44.30448" lon="4.76285">
        <ele>75</ele>
        <time>2014-11-13T13:51:07Z</time>
      </trkpt>
      <trkpt lat="44.30457" lon="4.76281">
        <ele>77</ele>
        <time>2014-11-13T13:51:16Z</time>
      </trkpt>
      <trkpt lat="44.30461" lon="4.76279">
        <ele>77</ele>
        <time>2014-11-13T13:51:23Z</time>
      </trkpt>
      <trkpt lat="44.30463" lon="4.76279">
        <ele>78</ele>
        <time>2014-11-13T13:51:24Z</time>
      </trkpt>
      <trkpt lat="44.30467" lon="4.76275">
        <ele>78</ele>
        <time>2014-11-13T13:51:29Z</time>
      </trkpt>
      <trkpt lat="44.30475" lon="4.76269">
        <ele>79</ele>
        <time>2014-11-13T13:51:38Z</time>
      </trkpt>
      <trkpt lat="44.30482" lon="4.76267">
        <ele>80</ele>
        <time>2014-11-13T13:51:47Z</time>
      </trkpt>
      <trkpt lat="44.30494" lon="4.7626">
        <ele>83</ele>
        <time>2014-11-13T13:52:03Z</time>
      </trkpt>
      <trkpt lat="44.30506" lon="4.76252">
        <ele>85</ele>
        <time>2014-11-13T13:52:18Z</time>
      </trkpt>
      <trkpt lat="44.30515" lon="4.76244">
        <ele>87</ele>
        <time>2014-11-13T13:52:33Z</time>
      </trkpt>
      <trkpt lat="44.30517" lon="4.76242">
        <ele>88</ele>
        <time>2014-11-13T13:52:40Z</time>
      </trkpt>
      <trkpt lat="44.30514" lon="4.76227">
        <ele>89</ele>
        <time>2014-11-13T13:52:49Z</time>
      </trkpt>
      <trkpt lat="44.30515" lon="4.76212">
        <ele>90</ele>
        <time>2014-11-13T13:52:59Z</time>
      </trkpt>
      <trkpt lat="44.30515" lon="4.76205">
        <ele>91</ele>
        <time>2014-11-13T13:53:05Z</time>
      </trkpt>
      <trkpt lat="44.30519" lon="4.76197">
        <ele>91</ele>
        <time>2014-11-13T13:53:13Z</time>
      </trkpt>
      <trkpt lat="44.30523" lon="4.76196">
        <ele>92</ele>
        <time>2014-11-13T13:53:21Z</time>
      </trkpt>
      <trkpt lat="44.30521" lon="4.76196">
        <ele>92</ele>
        <time>2014-11-13T13:53:25Z</time>
      </trkpt>
      <trkpt lat="44.30519" lon="4.76199">
        <ele>92</ele>
        <time>2014-11-13T13:53:32Z</time>
      </trkpt>
      <trkpt lat="44.3052" lon="4.76199">
        <ele>91</ele>
        <time>2014-11-13T13:53:49Z</time>
      </trkpt>
      <trkpt lat="44.3052" lon="4.76198">
        <ele>91</ele>
        <time>2014-11-13T13:53:51Z</time>
      </trkpt>
      <trkpt lat="44.30525" lon="4.76196">
        <ele>92</ele>
        <time>2014-11-13T13:53:59Z</time>
      </trkpt>
      <trkpt lat="44.30531" lon="4.76198">
        <ele>94</ele>
        <time>2014-11-13T13:54:09Z</time>
      </trkpt>
      <trkpt lat="44.30533" lon="4.76199">
        <ele>95</ele>
        <time>2014-11-13T13:54:12Z</time>
      </trkpt>
      <trkpt lat="44.30537" lon="4.76201">
        <ele>94</ele>
        <time>2014-11-13T13:54:18Z</time>
      </trkpt>
      <trkpt lat="44.30543" lon="4.76203">
        <ele>95</ele>
        <time>2014-11-13T13:54:27Z</time>
      </trkpt>
      <trkpt lat="44.30544" lon="4.76203">
        <ele>95</ele>
        <time>2014-11-13T13:54:41Z</time>
      </trkpt>
      <trkpt lat="44.30545" lon="4.76202">
        <ele>96</ele>
        <time>2014-11-13T13:55:18Z</time>
      </trkpt>
      <trkpt lat="44.30546" lon="4.76199">
        <ele>95</ele>
        <time>2014-11-13T13:55:28Z</time>
      </trkpt>
      <trkpt lat="44.30549" lon="4.76197">
        <ele>96</ele>
        <time>2014-11-13T13:55:50Z</time>
      </trkpt>
      <trkpt lat="44.30554" lon="4.76197">
        <ele>97</ele>
        <time>2014-11-13T13:55:58Z</time>
      </trkpt>
      <trkpt lat="44.30561" lon="4.76195">
        <ele>98</ele>
        <time>2014-11-13T13:56:07Z</time>
      </trkpt>
      <trkpt lat="44.30566" lon="4.76196">
        <ele>99</ele>
        <time>2014-11-13T13:56:14Z</time>
      </trkpt>
      <trkpt lat="44.30571" lon="4.76193">
        <ele>99</ele>
        <time>2014-11-13T13:56:20Z</time>
      </trkpt>
      <trkpt lat="44.30572" lon="4.76194">
        <ele>100</ele>
        <time>2014-11-13T13:56:21Z</time>
      </trkpt>
      <trkpt lat="44.30579" lon="4.76191">
        <ele>100</ele>
        <time>2014-11-13T13:56:29Z</time>
      </trkpt>
      <trkpt lat="44.30584" lon="4.7619">
        <ele>101</ele>
        <time>2014-11-13T13:56:35Z</time>
      </trkpt>
      <trkpt lat="44.30594" lon="4.76193">
        <ele>102</ele>
        <time>2014-11-13T13:56:43Z</time>
      </trkpt>
      <trkpt lat="44.30596" lon="4.76194">
        <ele>102</ele>
        <time>2014-11-13T13:56:48Z</time>
      </trkpt>
      <trkpt lat="44.30602" lon="4.76201">
        <ele>103</ele>
        <time>2014-11-13T13:56:55Z</time>
      </trkpt>
      <trkpt lat="44.30604" lon="4.76211">
        <ele>103</ele>
        <time>2014-11-13T13:57:04Z</time>
      </trkpt>
      <trkpt lat="44.30608" lon="4.76222">
        <ele>102</ele>
        <time>2014-11-13T13:57:14Z</time>
      </trkpt>
      <trkpt lat="44.30612" lon="4.76229">
        <ele>102</ele>
        <time>2014-11-13T13:57:20Z</time>
      </trkpt>
      <trkpt lat="44.30611" lon="4.76235">
        <ele>102</ele>
        <time>2014-11-13T13:57:26Z</time>
      </trkpt>
      <trkpt lat="44.3061" lon="4.76245">
        <ele>102</ele>
        <time>2014-11-13T13:57:35Z</time>
      </trkpt>
      <trkpt lat="44.3061" lon="4.76247">
        <ele>102</ele>
        <time>2014-11-13T13:57:37Z</time>
      </trkpt>
      <trkpt lat="44.30609" lon="4.76256">
        <ele>101</ele>
        <time>2014-11-13T13:57:45Z</time>
      </trkpt>
      <trkpt lat="44.3061" lon="4.76268">
        <ele>101</ele>
        <time>2014-11-13T13:57:53Z</time>
      </trkpt>
      <trkpt lat="44.30614" lon="4.76279">
        <ele>101</ele>
        <time>2014-11-13T13:58:00Z</time>
      </trkpt>
      <trkpt lat="44.30614" lon="4.7629">
        <ele>100</ele>
        <time>2014-11-13T13:58:08Z</time>
      </trkpt>
      <trkpt lat="44.30615" lon="4.76299">
        <ele>99</ele>
        <time>2014-11-13T13:58:15Z</time>
      </trkpt>
      <trkpt lat="44.30619" lon="4.76309">
        <ele>99</ele>
        <time>2014-11-13T13:58:23Z</time>
      </trkpt>
      <trkpt lat="44.30623" lon="4.7631">
        <ele>99</ele>
        <time>2014-11-13T13:58:28Z</time>
      </trkpt>
      <trkpt lat="44.30625" lon="4.76312">
        <ele>99</ele>
        <time>2014-11-13T13:58:33Z</time>
      </trkpt>
      <trkpt lat="44.30627" lon="4.76316">
        <ele>99</ele>
        <time>2014-11-13T13:58:35Z</time>
      </trkpt>
      <trkpt lat="44.30629" lon="4.76318">
        <ele>99</ele>
        <time>2014-11-13T13:58:37Z</time>
      </trkpt>
      <trkpt lat="44.30635" lon="4.76319">
        <ele>100</ele>
        <time>2014-11-13T13:58:42Z</time>
      </trkpt>
      <trkpt lat="44.30637" lon="4.76319">
        <ele>100</ele>
        <time>2014-11-13T13:58:44Z</time>
      </trkpt>
      <trkpt lat="44.30641" lon="4.76318">
        <ele>100</ele>
        <time>2014-11-13T13:58:49Z</time>
      </trkpt>
      <trkpt lat="44.30647" lon="4.7632">
        <ele>100</ele>
        <time>2014-11-13T13:58:57Z</time>
      </trkpt>
      <trkpt lat="44.30655" lon="4.76319">
        <ele>101</ele>
        <time>2014-11-13T13:59:04Z</time>
      </trkpt>
      <trkpt lat="44.30655" lon="4.76319">
        <ele>102</ele>
        <time>2014-11-13T13:59:05Z</time>
      </trkpt>
      <trkpt lat="44.30657" lon="4.76317">
        <ele>101</ele>
        <time>2014-11-13T13:59:07Z</time>
      </trkpt>
      <trkpt lat="44.30669" lon="4.76314">
        <ele>102</ele>
        <time>2014-11-13T13:59:18Z</time>
      </trkpt>
      <trkpt lat="44.30674" lon="4.76317">
        <ele>104</ele>
        <time>2014-11-13T13:59:25Z</time>
      </trkpt>
      <trkpt lat="44.30675" lon="4.7632">
        <ele>104</ele>
        <time>2014-11-13T13:59:28Z</time>
      </trkpt>
      <trkpt lat="44.30682" lon="4.76324">
        <ele>105</ele>
        <time>2014-11-13T13:59:38Z</time>
      </trkpt>
      <trkpt lat="44.30687" lon="4.76324">
        <ele>106</ele>
        <time>2014-11-13T13:59:44Z</time>
      </trkpt>
      <trkpt lat="44.30694" lon="4.76322">
        <ele>107</ele>
        <time>2014-11-13T13:59:50Z</time>
      </trkpt>
      <trkpt lat="44.30697" lon="4.76323">
        <ele>108</ele>
        <time>2014-11-13T13:59:58Z</time>
      </trkpt>
      <trkpt lat="44.30701" lon="4.76321">
        <ele>109</ele>
        <time>2014-11-13T14:00:04Z</time>
      </trkpt>
      <trkpt lat="44.30706" lon="4.76321">
        <ele>110</ele>
        <time>2014-11-13T14:00:11Z</time>
      </trkpt>
      <trkpt lat="44.30714" lon="4.76321">
        <ele>111</ele>
        <time>2014-11-13T14:00:18Z</time>
      </trkpt>
      <trkpt lat="44.3072" lon="4.76317">
        <ele>112</ele>
        <time>2014-11-13T14:00:25Z</time>
      </trkpt>
      <trkpt lat="44.30724" lon="4.76318">
        <ele>112</ele>
        <time>2014-11-13T14:00:30Z</time>
      </trkpt>
      <trkpt lat="44.30727" lon="4.76319">
        <ele>113</ele>
        <time>2014-11-13T14:00:35Z</time>
      </trkpt>
      <trkpt lat="44.30733" lon="4.76318">
        <ele>113</ele>
        <time>2014-11-13T14:00:40Z</time>
      </trkpt>
      <trkpt lat="44.30739" lon="4.76321">
        <ele>114</ele>
        <time>2014-11-13T14:00:48Z</time>
      </trkpt>
      <trkpt lat="44.30743" lon="4.76321">
        <ele>115</ele>
        <time>2014-11-13T14:00:51Z</time>
      </trkpt>
      <trkpt lat="44.30747" lon="4.7632">
        <ele>115</ele>
        <time>2014-11-13T14:00:57Z</time>
      </trkpt>
      <trkpt lat="44.30752" lon="4.7632">
        <ele>116</ele>
        <time>2014-11-13T14:01:03Z</time>
      </trkpt>
      <trkpt lat="44.30754" lon="4.76318">
        <ele>116</ele>
        <time>2014-11-13T14:01:06Z</time>
      </trkpt>
      <trkpt lat="44.30761" lon="4.76318">
        <ele>116</ele>
        <time>2014-11-13T14:01:12Z</time>
      </trkpt>
      <trkpt lat="44.30771" lon="4.7632">
        <ele>117</ele>
        <time>2014-11-13T14:01:20Z</time>
      </trkpt>
      <trkpt lat="44.30774" lon="4.76321">
        <ele>118</ele>
        <time>2014-11-13T14:01:28Z</time>
      </trkpt>
      <trkpt lat="44.30778" lon="4.76316">
        <ele>119</ele>
        <time>2014-11-13T14:01:36Z</time>
      </trkpt>
      <trkpt lat="44.30782" lon="4.76308">
        <ele>120</ele>
        <time>2014-11-13T14:01:43Z</time>
      </trkpt>
      <trkpt lat="44.30785" lon="4.76307">
        <ele>120</ele>
        <time>2014-11-13T14:01:51Z</time>
      </trkpt>
      <trkpt lat="44.30785" lon="4.76308">
        <ele>119</ele>
        <time>2014-11-13T14:02:13Z</time>
      </trkpt>
      <trkpt lat="44.30785" lon="4.76308">
        <ele>120</ele>
        <time>2014-11-13T14:02:28Z</time>
      </trkpt>
      <trkpt lat="44.30786" lon="4.76305">
        <ele>120</ele>
        <time>2014-11-13T14:03:01Z</time>
      </trkpt>
      <trkpt lat="44.30792" lon="4.76303">
        <ele>120</ele>
        <time>2014-11-13T14:03:09Z</time>
      </trkpt>
      <trkpt lat="44.30796" lon="4.76299">
        <ele>121</ele>
        <time>2014-11-13T14:03:15Z</time>
      </trkpt>
      <trkpt lat="44.30806" lon="4.76293">
        <ele>122</ele>
        <time>2014-11-13T14:03:26Z</time>
      </trkpt>
      <trkpt lat="44.30811" lon="4.76295">
        <ele>123</ele>
        <time>2014-11-13T14:03:34Z</time>
      </trkpt>
      <trkpt lat="44.30814" lon="4.76298">
        <ele>123</ele>
        <time>2014-11-13T14:03:42Z</time>
      </trkpt>
      <trkpt lat="44.30816" lon="4.76298">
        <ele>124</ele>
        <time>2014-11-13T14:03:45Z</time>
      </trkpt>
      <trkpt lat="44.30822" lon="4.76292">
        <ele>124</ele>
        <time>2014-11-13T14:03:53Z</time>
      </trkpt>
      <trkpt lat="44.30827" lon="4.76289">
        <ele>125</ele>
        <time>2014-11-13T14:03:58Z</time>
      </trkpt>
      <trkpt lat="44.30834" lon="4.76286">
        <ele>126</ele>
        <time>2014-11-13T14:04:06Z</time>
      </trkpt>
      <trkpt lat="44.30836" lon="4.76285">
        <ele>127</ele>
        <time>2014-11-13T14:04:13Z</time>
      </trkpt>
      <trkpt lat="44.30838" lon="4.76284">
        <ele>128</ele>
        <time>2014-11-13T14:04:15Z</time>
      </trkpt>
      <trkpt lat="44.30842" lon="4.76279">
        <ele>128</ele>
        <time>2014-11-13T14:04:21Z</time>
      </trkpt>
      <trkpt lat="44.30846" lon="4.76279">
        <ele>129</ele>
        <time>2014-11-13T14:04:27Z</time>
      </trkpt>
      <trkpt lat="44.30855" lon="4.76278">
        <ele>131</ele>
        <time>2014-11-13T14:04:38Z</time>
      </trkpt>
      <trkpt lat="44.30858" lon="4.76281">
        <ele>131</ele>
        <time>2014-11-13T14:04:43Z</time>
      </trkpt>
      <trkpt lat="44.30859" lon="4.76281">
        <ele>132</ele>
        <time>2014-11-13T14:04:45Z</time>
      </trkpt>
      <trkpt lat="44.30863" lon="4.76279">
        <ele>133</ele>
        <time>2014-11-13T14:04:50Z</time>
      </trkpt>
      <trkpt lat="44.30869" lon="4.7628">
        <ele>135</ele>
        <time>2014-11-13T14:04:57Z</time>
      </trkpt>
      <trkpt lat="44.30874" lon="4.76278">
        <ele>136</ele>
        <time>2014-11-13T14:05:04Z</time>
      </trkpt>
      <trkpt lat="44.30877" lon="4.76273">
        <ele>137</ele>
        <time>2014-11-13T14:05:10Z</time>
      </trkpt>
      <trkpt lat="44.30881" lon="4.76266">
        <ele>138</ele>
        <time>2014-11-13T14:05:19Z</time>
      </trkpt>
      <trkpt lat="44.30885" lon="4.76264">
        <ele>139</ele>
        <time>2014-11-13T14:05:27Z</time>
      </trkpt>
      <trkpt lat="44.30888" lon="4.76256">
        <ele>140</ele>
        <time>2014-11-13T14:05:35Z</time>
      </trkpt>
      <trkpt lat="44.30888" lon="4.76255">
        <ele>140</ele>
        <time>2014-11-13T14:06:00Z</time>
      </trkpt>
      <trkpt lat="44.30893" lon="4.76248">
        <ele>142</ele>
        <time>2014-11-13T14:07:12Z</time>
      </trkpt>
      <trkpt lat="44.30896" lon="4.76244">
        <ele>144</ele>
        <time>2014-11-13T14:07:21Z</time>
      </trkpt>
      <trkpt lat="44.30902" lon="4.76243">
        <ele>145</ele>
        <time>2014-11-13T14:07:28Z</time>
      </trkpt>
      <trkpt lat="44.30907" lon="4.76236">
        <ele>146</ele>
        <time>2014-11-13T14:07:34Z</time>
      </trkpt>
      <trkpt lat="44.30912" lon="4.76231">
        <ele>148</ele>
        <time>2014-11-13T14:07:41Z</time>
      </trkpt>
      <trkpt lat="44.30915" lon="4.76231">
        <ele>149</ele>
        <time>2014-11-13T14:07:47Z</time>
      </trkpt>
      <trkpt lat="44.30921" lon="4.7623">
        <ele>150</ele>
        <time>2014-11-13T14:07:55Z</time>
      </trkpt>
      <trkpt lat="44.30925" lon="4.76226">
        <ele>151</ele>
        <time>2014-11-13T14:08:00Z</time>
      </trkpt>
      <trkpt lat="44.30932" lon="4.76221">
        <ele>152</ele>
        <time>2014-11-13T14:08:07Z</time>
      </trkpt>
      <trkpt lat="44.30935" lon="4.7622">
        <ele>153</ele>
        <time>2014-11-13T14:08:12Z</time>
      </trkpt>
      <trkpt lat="44.30941" lon="4.76222">
        <ele>154</ele>
        <time>2014-11-13T14:08:20Z</time>
      </trkpt>
      <trkpt lat="44.30947" lon="4.76219">
        <ele>156</ele>
        <time>2014-11-13T14:08:29Z</time>
      </trkpt>
      <trkpt lat="44.30951" lon="4.76219">
        <ele>158</ele>
        <time>2014-11-13T14:08:37Z</time>
      </trkpt>
      <trkpt lat="44.30954" lon="4.76214">
        <ele>159</ele>
        <time>2014-11-13T14:08:45Z</time>
      </trkpt>
      <trkpt lat="44.30957" lon="4.76214">
        <ele>159</ele>
        <time>2014-11-13T14:08:51Z</time>
      </trkpt>
      <trkpt lat="44.30961" lon="4.76214">
        <ele>159</ele>
        <time>2014-11-13T14:08:58Z</time>
      </trkpt>
      <trkpt lat="44.30966" lon="4.76213">
        <ele>159</ele>
        <time>2014-11-13T14:09:07Z</time>
      </trkpt>
      <trkpt lat="44.30967" lon="4.76212">
        <ele>159</ele>
        <time>2014-11-13T14:09:13Z</time>
      </trkpt>
      <trkpt lat="44.30971" lon="4.76212">
        <ele>160</ele>
        <time>2014-11-13T14:09:23Z</time>
      </trkpt>
      <trkpt lat="44.30971" lon="4.76212">
        <ele>160</ele>
        <time>2014-11-13T14:09:44Z</time>
      </trkpt>
      <trkpt lat="44.30969" lon="4.76213">
        <ele>159</ele>
        <time>2014-11-13T14:09:49Z</time>
      </trkpt>
      <trkpt lat="44.30966" lon="4.76212">
        <ele>159</ele>
        <time>2014-11-13T14:09:54Z</time>
      </trkpt>
      <trkpt lat="44.30962" lon="4.76217">
        <ele>159</ele>
        <time>2014-11-13T14:10:03Z</time>
      </trkpt>
      <trkpt lat="44.30958" lon="4.76216">
        <ele>159</ele>
        <time>2014-11-13T14:10:37Z</time>
      </trkpt>
      <trkpt lat="44.30953" lon="4.76217">
        <ele>158</ele>
        <time>2014-11-13T14:10:45Z</time>
      </trkpt>
      <trkpt lat="44.30946" lon="4.76217">
        <ele>156</ele>
        <time>2014-11-13T14:10:50Z</time>
      </trkpt>
      <trkpt lat="44.30944" lon="4.76217">
        <ele>155</ele>
        <time>2014-11-13T14:10:55Z</time>
      </trkpt>
      <trkpt lat="44.30945" lon="4.76227">
        <ele>155</ele>
        <time>2014-11-13T14:11:04Z</time>
      </trkpt>
      <trkpt lat="44.30944" lon="4.7623">
        <ele>155</ele>
        <time>2014-11-13T14:11:15Z</time>
      </trkpt>
      <trkpt lat="44.30943" lon="4.76226">
        <ele>155</ele>
        <time>2014-11-13T14:11:20Z</time>
      </trkpt>
      <trkpt lat="44.30943" lon="4.76225">
        <ele>155</ele>
        <time>2014-11-13T14:11:21Z</time>
      </trkpt>
      <trkpt lat="44.30942" lon="4.76212">
        <ele>156</ele>
        <time>2014-11-13T14:11:30Z</time>
      </trkpt>
      <trkpt lat="44.30943" lon="4.762">
        <ele>157</ele>
        <time>2014-11-13T14:11:40Z</time>
      </trkpt>
      <trkpt lat="44.30943" lon="4.76199">
        <ele>157</ele>
        <time>2014-11-13T14:11:41Z</time>
      </trkpt>
      <trkpt lat="44.30945" lon="4.76196">
        <ele>157</ele>
        <time>2014-11-13T14:11:45Z</time>
      </trkpt>
      <trkpt lat="44.30948" lon="4.7619">
        <ele>158</ele>
        <time>2014-11-13T14:11:52Z</time>
      </trkpt>
      <trkpt lat="44.30953" lon="4.76186">
        <ele>159</ele>
        <time>2014-11-13T14:11:59Z</time>
      </trkpt>
      <trkpt lat="44.30956" lon="4.76181">
        <ele>159</ele>
        <time>2014-11-13T14:12:06Z</time>
      </trkpt>
      <trkpt lat="44.30958" lon="4.76177">
        <ele>160</ele>
        <time>2014-11-13T14:12:14Z</time>
      </trkpt>
      <trkpt lat="44.30957" lon="4.76177">
        <ele>159</ele>
        <time>2014-11-13T14:12:21Z</time>
      </trkpt>
      <trkpt lat="44.30956" lon="4.76179">
        <ele>159</ele>
        <time>2014-11-13T14:12:28Z</time>
      </trkpt>
      <trkpt lat="44.30955" lon="4.76181">
        <ele>159</ele>
        <time>2014-11-13T14:12:31Z</time>
      </trkpt>
      <trkpt lat="44.30954" lon="4.76185">
        <ele>159</ele>
        <time>2014-11-13T14:12:33Z</time>
      </trkpt>
      <trkpt lat="44.3095" lon="4.76187">
        <ele>158</ele>
        <time>2014-11-13T14:12:38Z</time>
      </trkpt>
      <trkpt lat="44.30948" lon="4.76192">
        <ele>157</ele>
        <time>2014-11-13T14:12:41Z</time>
      </trkpt>
      <trkpt lat="44.30948" lon="4.76195">
        <ele>157</ele>
        <time>2014-11-13T14:12:43Z</time>
      </trkpt>
      <trkpt lat="44.30946" lon="4.76201">
        <ele>157</ele>
        <time>2014-11-13T14:12:52Z</time>
      </trkpt>
      <trkpt lat="44.30948" lon="4.76195">
        <ele>157</ele>
        <time>2014-11-13T14:13:04Z</time>
      </trkpt>
      <trkpt lat="44.3095" lon="4.76191">
        <ele>158</ele>
        <time>2014-11-13T14:13:08Z</time>
      </trkpt>
      <trkpt lat="44.30951" lon="4.7619">
        <ele>157</ele>
        <time>2014-11-13T14:13:15Z</time>
      </trkpt>
      <trkpt lat="44.30953" lon="4.76185">
        <ele>158</ele>
        <time>2014-11-13T14:13:24Z</time>
      </trkpt>
      <trkpt lat="44.30957" lon="4.7618">
        <ele>159</ele>
        <time>2014-11-13T14:13:32Z</time>
      </trkpt>
      <trkpt lat="44.30962" lon="4.76173">
        <ele>160</ele>
        <time>2014-11-13T14:13:41Z</time>
      </trkpt>
      <trkpt lat="44.30964" lon="4.76168">
        <ele>160</ele>
        <time>2014-11-13T14:13:46Z</time>
      </trkpt>
      <trkpt lat="44.30967" lon="4.76163">
        <ele>161</ele>
        <time>2014-11-13T14:13:52Z</time>
      </trkpt>
      <trkpt lat="44.3097" lon="4.76162">
        <ele>161</ele>
        <time>2014-11-13T14:13:59Z</time>
      </trkpt>
      <trkpt lat="44.30975" lon="4.7616">
        <ele>162</ele>
        <time>2014-11-13T14:14:05Z</time>
      </trkpt>
      <trkpt lat="44.30979" lon="4.76156">
        <ele>162</ele>
        <time>2014-11-13T14:14:11Z</time>
      </trkpt>
      <trkpt lat="44.3098" lon="4.76154">
        <ele>163</ele>
        <time>2014-11-13T14:14:13Z</time>
      </trkpt>
      <trkpt lat="44.30983" lon="4.76151">
        <ele>163</ele>
        <time>2014-11-13T14:14:17Z</time>
      </trkpt>
      <trkpt lat="44.30984" lon="4.76148">
        <ele>163</ele>
        <time>2014-11-13T14:14:22Z</time>
      </trkpt>
      <trkpt lat="44.3099" lon="4.76145">
        <ele>163</ele>
        <time>2014-11-13T14:14:29Z</time>
      </trkpt>
      <trkpt lat="44.30996" lon="4.76139">
        <ele>164</ele>
        <time>2014-11-13T14:14:40Z</time>
      </trkpt>
      <trkpt lat="44.30997" lon="4.76139">
        <ele>165</ele>
        <time>2014-11-13T14:14:41Z</time>
      </trkpt>
      <trkpt lat="44.31" lon="4.76137">
        <ele>165</ele>
        <time>2014-11-13T14:14:47Z</time>
      </trkpt>
      <trkpt lat="44.31004" lon="4.76138">
        <ele>165</ele>
        <time>2014-11-13T14:14:56Z</time>
      </trkpt>
      <trkpt lat="44.31006" lon="4.76136">
        <ele>165</ele>
        <time>2014-11-13T14:15:02Z</time>
      </trkpt>
      <trkpt lat="44.3101" lon="4.76137">
        <ele>165</ele>
        <time>2014-11-13T14:15:10Z</time>
      </trkpt>
      <trkpt lat="44.31016" lon="4.76139">
        <ele>166</ele>
        <time>2014-11-13T14:15:16Z</time>
      </trkpt>
      <trkpt lat="44.31017" lon="4.76139">
        <ele>166</ele>
        <time>2014-11-13T14:15:17Z</time>
      </trkpt>
      <trkpt lat="44.3102" lon="4.76136">
        <ele>166</ele>
        <time>2014-11-13T14:15:19Z</time>
      </trkpt>
      <trkpt lat="44.31024" lon="4.7613">
        <ele>166</ele>
        <time>2014-11-13T14:15:25Z</time>
      </trkpt>
      <trkpt lat="44.31031" lon="4.76124">
        <ele>167</ele>
        <time>2014-11-13T14:15:36Z</time>
      </trkpt>
      <trkpt lat="44.31034" lon="4.76121">
        <ele>167</ele>
        <time>2014-11-13T14:15:45Z</time>
      </trkpt>
      <trkpt lat="44.31039" lon="4.76119">
        <ele>168</ele>
        <time>2014-11-13T14:15:52Z</time>
      </trkpt>
      <trkpt lat="44.31044" lon="4.76115">
        <ele>168</ele>
        <time>2014-11-13T14:15:59Z</time>
      </trkpt>
      <trkpt lat="44.31046" lon="4.76114">
        <ele>168</ele>
        <time>2014-11-13T14:16:00Z</time>
      </trkpt>
      <trkpt lat="44.31051" lon="4.76114">
        <ele>169</ele>
        <time>2014-11-13T14:16:06Z</time>
      </trkpt>
      <trkpt lat="44.31056" lon="4.76111">
        <ele>169</ele>
        <time>2014-11-13T14:16:15Z</time>
      </trkpt>
      <trkpt lat="44.31061" lon="4.76113">
        <ele>170</ele>
        <time>2014-11-13T14:16:19Z</time>
      </trkpt>
      <trkpt lat="44.31066" lon="4.76112">
        <ele>170</ele>
        <time>2014-11-13T14:16:27Z</time>
      </trkpt>
      <trkpt lat="44.31071" lon="4.76112">
        <ele>170</ele>
        <time>2014-11-13T14:16:32Z</time>
      </trkpt>
      <trkpt lat="44.31076" lon="4.76108">
        <ele>171</ele>
        <time>2014-11-13T14:16:40Z</time>
      </trkpt>
      <trkpt lat="44.31079" lon="4.76109">
        <ele>171</ele>
        <time>2014-11-13T14:16:44Z</time>
      </trkpt>
      <trkpt lat="44.31083" lon="4.76109">
        <ele>172</ele>
        <time>2014-11-13T14:16:50Z</time>
      </trkpt>
      <trkpt lat="44.31093" lon="4.76109">
        <ele>172</ele>
        <time>2014-11-13T14:16:58Z</time>
      </trkpt>
      <trkpt lat="44.31094" lon="4.76106">
        <ele>172</ele>
        <time>2014-11-13T14:17:03Z</time>
      </trkpt>
      <trkpt lat="44.31103" lon="4.76105">
        <ele>173</ele>
        <time>2014-11-13T14:17:11Z</time>
      </trkpt>
      <trkpt lat="44.31103" lon="4.76103">
        <ele>173</ele>
        <time>2014-11-13T14:17:12Z</time>
      </trkpt>
      <trkpt lat="44.31108" lon="4.76099">
        <ele>173</ele>
        <time>2014-11-13T14:17:18Z</time>
      </trkpt>
      <trkpt lat="44.31113" lon="4.76095">
        <ele>173</ele>
        <time>2014-11-13T14:17:26Z</time>
      </trkpt>
      <trkpt lat="44.31113" lon="4.76089">
        <ele>173</ele>
        <time>2014-11-13T14:17:30Z</time>
      </trkpt>
      <trkpt lat="44.31119" lon="4.76089">
        <ele>174</ele>
        <time>2014-11-13T14:17:36Z</time>
      </trkpt>
      <trkpt lat="44.3112" lon="4.76089">
        <ele>174</ele>
        <time>2014-11-13T14:17:38Z</time>
      </trkpt>
      <trkpt lat="44.31122" lon="4.76085">
        <ele>175</ele>
        <time>2014-11-13T14:17:40Z</time>
      </trkpt>
      <trkpt lat="44.31127" lon="4.76081">
        <ele>175</ele>
        <time>2014-11-13T14:17:46Z</time>
      </trkpt>
      <trkpt lat="44.31132" lon="4.76081">
        <ele>176</ele>
        <time>2014-11-13T14:17:52Z</time>
      </trkpt>
      <trkpt lat="44.31137" lon="4.76085">
        <ele>176</ele>
        <time>2014-11-13T14:17:57Z</time>
      </trkpt>
      <trkpt lat="44.31142" lon="4.76089">
        <ele>177</ele>
        <time>2014-11-13T14:18:06Z</time>
      </trkpt>
      <trkpt lat="44.31144" lon="4.76092">
        <ele>178</ele>
        <time>2014-11-13T14:18:15Z</time>
      </trkpt>
      <trkpt lat="44.31147" lon="4.76096">
        <ele>178</ele>
        <time>2014-11-13T14:18:22Z</time>
      </trkpt>
      <trkpt lat="44.31147" lon="4.76096">
        <ele>178</ele>
        <time>2014-11-13T14:18:31Z</time>
      </trkpt>
      <trkpt lat="44.31145" lon="4.76093">
        <ele>177</ele>
        <time>2014-11-13T14:18:36Z</time>
      </trkpt>
      <trkpt lat="44.31145" lon="4.76092">
        <ele>177</ele>
        <time>2014-11-13T14:18:44Z</time>
      </trkpt>
      <trkpt lat="44.31147" lon="4.76098">
        <ele>177</ele>
        <time>2014-11-13T14:18:51Z</time>
      </trkpt>
      <trkpt lat="44.31152" lon="4.76101">
        <ele>178</ele>
        <time>2014-11-13T14:18:57Z</time>
      </trkpt>
      <trkpt lat="44.31154" lon="4.76101">
        <ele>178</ele>
        <time>2014-11-13T14:19:05Z</time>
      </trkpt>
      <trkpt lat="44.31155" lon="4.76104">
        <ele>179</ele>
        <time>2014-11-13T14:19:10Z</time>
      </trkpt>
      <trkpt lat="44.31158" lon="4.76105">
        <ele>180</ele>
        <time>2014-11-13T14:19:14Z</time>
      </trkpt>
      <trkpt lat="44.31161" lon="4.76107">
        <ele>181</ele>
        <time>2014-11-13T14:19:20Z</time>
      </trkpt>
      <trkpt lat="44.31161" lon="4.76108">
        <ele>181</ele>
        <time>2014-11-13T14:19:29Z</time>
      </trkpt>
      <trkpt lat="44.31161" lon="4.76109">
        <ele>180</ele>
        <time>2014-11-13T14:20:32Z</time>
      </trkpt>
      <trkpt lat="44.31159" lon="4.76105">
        <ele>180</ele>
        <time>2014-11-13T14:20:36Z</time>
      </trkpt>
      <trkpt lat="44.31151" lon="4.761">
        <ele>179</ele>
        <time>2014-11-13T14:20:43Z</time>
      </trkpt>
      <trkpt lat="44.31145" lon="4.76102">
        <ele>178</ele>
        <time>2014-11-13T14:20:49Z</time>
      </trkpt>
      <trkpt lat="44.31138" lon="4.76102">
        <ele>178</ele>
        <time>2014-11-13T14:20:55Z</time>
      </trkpt>
      <trkpt lat="44.3113" lon="4.7611">
        <ele>178</ele>
        <time>2014-11-13T14:21:06Z</time>
      </trkpt>
      <trkpt lat="44.31127" lon="4.76116">
        <ele>179</ele>
        <time>2014-11-13T14:21:12Z</time>
      </trkpt>
      <trkpt lat="44.31122" lon="4.76126">
        <ele>178</ele>
        <time>2014-11-13T14:21:20Z</time>
      </trkpt>
      <trkpt lat="44.31114" lon="4.76136">
        <ele>178</ele>
        <time>2014-11-13T14:21:30Z</time>
      </trkpt>
      <trkpt lat="44.31114" lon="4.76136">
        <ele>178</ele>
        <time>2014-11-13T14:21:36Z</time>
      </trkpt>
      <trkpt lat="44.31115" lon="4.76137">
        <ele>178</ele>
        <time>2014-11-13T14:21:45Z</time>
      </trkpt>
      <trkpt lat="44.31115" lon="4.76135">
        <ele>178</ele>
        <time>2014-11-13T14:22:25Z</time>
      </trkpt>
      <trkpt lat="44.31115" lon="4.76136">
        <ele>178</ele>
        <time>2014-11-13T14:22:40Z</time>
      </trkpt>
      <trkpt lat="44.31114" lon="4.76135">
        <ele>178</ele>
        <time>2014-11-13T14:22:59Z</time>
      </trkpt>
      <trkpt lat="44.31117" lon="4.76132">
        <ele>178</ele>
        <time>2014-11-13T14:23:20Z</time>
      </trkpt>
      <trkpt lat="44.3112" lon="4.76128">
        <ele>178</ele>
        <time>2014-11-13T14:23:24Z</time>
      </trkpt>
      <trkpt lat="44.31126" lon="4.76116">
        <ele>178</ele>
        <time>2014-11-13T14:23:33Z</time>
      </trkpt>
      <trkpt lat="44.31127" lon="4.76113">
        <ele>178</ele>
        <time>2014-11-13T14:23:35Z</time>
      </trkpt>
      <trkpt lat="44.31133" lon="4.76106">
        <ele>178</ele>
        <time>2014-11-13T14:23:43Z</time>
      </trkpt>
      <trkpt lat="44.31134" lon="4.76106">
        <ele>178</ele>
        <time>2014-11-13T14:23:55Z</time>
      </trkpt>
      <trkpt lat="44.31129" lon="4.76105">
        <ele>178</ele>
        <time>2014-11-13T14:24:18Z</time>
      </trkpt>
      <trkpt lat="44.31127" lon="4.76104">
        <ele>178</ele>
        <time>2014-11-13T14:24:22Z</time>
      </trkpt>
      <trkpt lat="44.31123" lon="4.76113">
        <ele>179</ele>
        <time>2014-11-13T14:24:31Z</time>
      </trkpt>
      <trkpt lat="44.3112" lon="4.7612">
        <ele>178</ele>
        <time>2014-11-13T14:24:37Z</time>
      </trkpt>
      <trkpt lat="44.31116" lon="4.7613">
        <ele>178</ele>
        <time>2014-11-13T14:24:46Z</time>
      </trkpt>
      <trkpt lat="44.31114" lon="4.76138">
        <ele>178</ele>
        <time>2014-11-13T14:24:51Z</time>
      </trkpt>
      <trkpt lat="44.31113" lon="4.76144">
        <ele>178</ele>
        <time>2014-11-13T14:24:55Z</time>
      </trkpt>
      <trkpt lat="44.31113" lon="4.76146">
        <ele>178</ele>
        <time>2014-11-13T14:24:57Z</time>
      </trkpt>
      <trkpt lat="44.31114" lon="4.7615">
        <ele>178</ele>
        <time>2014-11-13T14:24:59Z</time>
      </trkpt>
      <trkpt lat="44.31116" lon="4.76154">
        <ele>178</ele>
        <time>2014-11-13T14:25:08Z</time>
      </trkpt>
      <trkpt lat="44.31117" lon="4.76159">
        <ele>179</ele>
        <time>2014-11-13T14:25:30Z</time>
      </trkpt>
      <trkpt lat="44.31121" lon="4.76169">
        <ele>179</ele>
        <time>2014-11-13T14:25:38Z</time>
      </trkpt>
      <trkpt lat="44.31121" lon="4.76174">
        <ele>179</ele>
        <time>2014-11-13T14:25:43Z</time>
      </trkpt>
      <trkpt lat="44.31122" lon="4.7618">
        <ele>178</ele>
        <time>2014-11-13T14:25:49Z</time>
      </trkpt>
      <trkpt lat="44.31124" lon="4.76179">
        <ele>178</ele>
        <time>2014-11-13T14:25:56Z</time>
      </trkpt>
      <trkpt lat="44.31125" lon="4.76179">
        <ele>178</ele>
        <time>2014-11-13T14:26:13Z</time>
      </trkpt>
      <trkpt lat="44.31124" lon="4.76181">
        <ele>178</ele>
        <time>2014-11-13T14:26:22Z</time>
      </trkpt>
      <trkpt lat="44.31126" lon="4.76179">
        <ele>178</ele>
        <time>2014-11-13T14:26:31Z</time>
      </trkpt>
      <trkpt lat="44.31125" lon="4.76176">
        <ele>179</ele>
        <time>2014-11-13T14:26:41Z</time>
      </trkpt>
      <trkpt lat="44.3112" lon="4.76164">
        <ele>179</ele>
        <time>2014-11-13T14:26:53Z</time>
      </trkpt>
      <trkpt lat="44.31119" lon="4.76159">
        <ele>179</ele>
        <time>2014-11-13T14:27:00Z</time>
      </trkpt>
      <trkpt lat="44.3112" lon="4.76158">
        <ele>179</ele>
        <time>2014-11-13T14:27:13Z</time>
      </trkpt>
      <trkpt lat="44.31125" lon="4.76159">
        <ele>181</ele>
        <time>2014-11-13T14:27:23Z</time>
      </trkpt>
      <trkpt lat="44.31124" lon="4.76158">
        <ele>182</ele>
        <time>2014-11-13T14:27:29Z</time>
      </trkpt>
      <trkpt lat="44.31127" lon="4.76158">
        <ele>183</ele>
        <time>2014-11-13T14:27:38Z</time>
      </trkpt>
      <trkpt lat="44.3113" lon="4.76158">
        <ele>185</ele>
        <time>2014-11-13T14:27:45Z</time>
      </trkpt>
      <trkpt lat="44.3113" lon="4.76158">
        <ele>185</ele>
        <time>2014-11-13T14:27:47Z</time>
      </trkpt>
      <trkpt lat="44.31134" lon="4.76158">
        <ele>188</ele>
        <time>2014-11-13T14:27:55Z</time>
      </trkpt>
      <trkpt lat="44.31133" lon="4.76156">
        <ele>188</ele>
        <time>2014-11-13T14:28:00Z</time>
      </trkpt>
      <trkpt lat="44.31135" lon="4.76152">
        <ele>188</ele>
        <time>2014-11-13T14:28:09Z</time>
      </trkpt>
      <trkpt lat="44.3114" lon="4.76147">
        <ele>189</ele>
        <time>2014-11-13T14:28:16Z</time>
      </trkpt>
      <trkpt lat="44.3114" lon="4.76146">
        <ele>190</ele>
        <time>2014-11-13T14:28:22Z</time>
      </trkpt>
      <trkpt lat="44.3114" lon="4.76149">
        <ele>189</ele>
        <time>2014-11-13T14:28:29Z</time>
      </trkpt>
      <trkpt lat="44.31138" lon="4.76153">
        <ele>188</ele>
        <time>2014-11-13T14:28:36Z</time>
      </trkpt>
      <trkpt lat="44.31137" lon="4.76153">
        <ele>188</ele>
        <time>2014-11-13T14:28:42Z</time>
      </trkpt>
      <trkpt lat="44.31134" lon="4.76156">
        <ele>187</ele>
        <time>2014-11-13T14:28:50Z</time>
      </trkpt>
      <trkpt lat="44.31131" lon="4.76159">
        <ele>185</ele>
        <time>2014-11-13T14:28:59Z</time>
      </trkpt>
      <trkpt lat="44.31129" lon="4.7616">
        <ele>184</ele>
        <time>2014-11-13T14:29:04Z</time>
      </trkpt>
      <trkpt lat="44.31128" lon="4.7616">
        <ele>182</ele>
        <time>2014-11-13T14:29:12Z</time>
      </trkpt>
      <trkpt lat="44.31123" lon="4.76162">
        <ele>181</ele>
        <time>2014-11-13T14:29:19Z</time>
      </trkpt>
      <trkpt lat="44.31122" lon="4.76161">
        <ele>179</ele>
        <time>2014-11-13T14:29:25Z</time>
      </trkpt>
      <trkpt lat="44.3112" lon="4.7616">
        <ele>179</ele>
        <time>2014-11-13T14:29:31Z</time>
      </trkpt>
      <trkpt lat="44.3112" lon="4.76159">
        <ele>179</ele>
        <time>2014-11-13T14:29:44Z</time>
      </trkpt>
      <trkpt lat="44.31121" lon="4.76162">
        <ele>178</ele>
        <time>2014-11-13T14:29:53Z</time>
      </trkpt>
      <trkpt lat="44.31121" lon="4.76167">
        <ele>179</ele>
        <time>2014-11-13T14:29:59Z</time>
      </trkpt>
      <trkpt lat="44.31119" lon="4.76171">
        <ele>179</ele>
        <time>2014-11-13T14:30:01Z</time>
      </trkpt>
      <trkpt lat="44.31122" lon="4.7618">
        <ele>179</ele>
        <time>2014-11-13T14:30:10Z</time>
      </trkpt>
      <trkpt lat="44.31122" lon="4.76182">
        <ele>178</ele>
        <time>2014-11-13T14:30:17Z</time>
      </trkpt>
      <trkpt lat="44.31125" lon="4.76181">
        <ele>178</ele>
        <time>2014-11-13T14:30:23Z</time>
      </trkpt>
      <trkpt lat="44.31128" lon="4.76182">
        <ele>179</ele>
        <time>2014-11-13T14:30:27Z</time>
      </trkpt>
      <trkpt lat="44.31131" lon="4.76191">
        <ele>179</ele>
        <time>2014-11-13T14:30:37Z</time>
      </trkpt>
      <trkpt lat="44.31134" lon="4.76192">
        <ele>179</ele>
        <time>2014-11-13T14:30:48Z</time>
      </trkpt>
      <trkpt lat="44.31137" lon="4.76196">
        <ele>179</ele>
        <time>2014-11-13T14:30:53Z</time>
      </trkpt>
      <trkpt lat="44.31141" lon="4.76202">
        <ele>179</ele>
        <time>2014-11-13T14:30:59Z</time>
      </trkpt>
      <trkpt lat="44.31143" lon="4.76208">
        <ele>179</ele>
        <time>2014-11-13T14:31:08Z</time>
      </trkpt>
      <trkpt lat="44.31145" lon="4.76204">
        <ele>179</ele>
        <time>2014-11-13T14:31:22Z</time>
      </trkpt>
      <trkpt lat="44.31145" lon="4.76202">
        <ele>178</ele>
        <time>2014-11-13T14:31:29Z</time>
      </trkpt>
      <trkpt lat="44.31143" lon="4.76205">
        <ele>178</ele>
        <time>2014-11-13T14:31:42Z</time>
      </trkpt>
      <trkpt lat="44.31141" lon="4.76209">
        <ele>177</ele>
        <time>2014-11-13T14:31:51Z</time>
      </trkpt>
      <trkpt lat="44.31142" lon="4.76212">
        <ele>176</ele>
        <time>2014-11-13T14:31:57Z</time>
      </trkpt>
      <trkpt lat="44.31143" lon="4.76209">
        <ele>176</ele>
        <time>2014-11-13T14:32:05Z</time>
      </trkpt>
      <trkpt lat="44.31144" lon="4.76214">
        <ele>176</ele>
        <time>2014-11-13T14:32:14Z</time>
      </trkpt>
      <trkpt lat="44.31144" lon="4.76215">
        <ele>176</ele>
        <time>2014-11-13T14:32:24Z</time>
      </trkpt>
      <trkpt lat="44.31141" lon="4.76208">
        <ele>176</ele>
        <time>2014-11-13T14:32:32Z</time>
      </trkpt>
      <trkpt lat="44.31139" lon="4.76209">
        <ele>176</ele>
        <time>2014-11-13T14:32:39Z</time>
      </trkpt>
      <trkpt lat="44.31135" lon="4.76206">
        <ele>176</ele>
        <time>2014-11-13T14:32:47Z</time>
      </trkpt>
      <trkpt lat="44.31134" lon="4.76207">
        <ele>176</ele>
        <time>2014-11-13T14:32:53Z</time>
      </trkpt>
      <trkpt lat="44.31133" lon="4.76205">
        <ele>176</ele>
        <time>2014-11-13T14:32:56Z</time>
      </trkpt>
      <trkpt lat="44.31128" lon="4.76196">
        <ele>176</ele>
        <time>2014-11-13T14:33:04Z</time>
      </trkpt>
      <trkpt lat="44.31124" lon="4.76187">
        <ele>177</ele>
        <time>2014-11-13T14:33:13Z</time>
      </trkpt>
      <trkpt lat="44.31122" lon="4.76181">
        <ele>177</ele>
        <time>2014-11-13T14:33:20Z</time>
      </trkpt>
      <trkpt lat="44.31123" lon="4.76174">
        <ele>178</ele>
        <time>2014-11-13T14:33:28Z</time>
      </trkpt>
      <trkpt lat="44.31118" lon="4.76166">
        <ele>178</ele>
        <time>2014-11-13T14:33:36Z</time>
      </trkpt>
      <trkpt lat="44.31115" lon="4.76156">
        <ele>178</ele>
        <time>2014-11-13T14:33:46Z</time>
      </trkpt>
      <trkpt lat="44.31114" lon="4.76145">
        <ele>178</ele>
        <time>2014-11-13T14:33:55Z</time>
      </trkpt>
      <trkpt lat="44.31114" lon="4.76144">
        <ele>178</ele>
        <time>2014-11-13T14:33:56Z</time>
      </trkpt>
      <trkpt lat="44.31117" lon="4.76139">
        <ele>177</ele>
        <time>2014-11-13T14:34:00Z</time>
      </trkpt>
      <trkpt lat="44.3112" lon="4.76135">
        <ele>178</ele>
        <time>2014-11-13T14:34:05Z</time>
      </trkpt>
      <trkpt lat="44.31123" lon="4.7613">
        <ele>178</ele>
        <time>2014-11-13T14:34:09Z</time>
      </trkpt>
      <trkpt lat="44.31126" lon="4.76125">
        <ele>178</ele>
        <time>2014-11-13T14:34:16Z</time>
      </trkpt>
      <trkpt lat="44.31129" lon="4.7612">
        <ele>178</ele>
        <time>2014-11-13T14:34:21Z</time>
      </trkpt>
      <trkpt lat="44.31133" lon="4.7611">
        <ele>178</ele>
        <time>2014-11-13T14:34:28Z</time>
      </trkpt>
      <trkpt lat="44.31138" lon="4.76109">
        <ele>178</ele>
        <time>2014-11-13T14:34:32Z</time>
      </trkpt>
      <trkpt lat="44.31141" lon="4.76109">
        <ele>178</ele>
        <time>2014-11-13T14:34:35Z</time>
      </trkpt>
      <trkpt lat="44.31142" lon="4.76105">
        <ele>178</ele>
        <time>2014-11-13T14:34:38Z</time>
      </trkpt>
      <trkpt lat="44.31144" lon="4.76102">
        <ele>178</ele>
        <time>2014-11-13T14:34:41Z</time>
      </trkpt>
      <trkpt lat="44.31149" lon="4.76099">
        <ele>178</ele>
        <time>2014-11-13T14:34:48Z</time>
      </trkpt>
      <trkpt lat="44.31156" lon="4.76099">
        <ele>178</ele>
        <time>2014-11-13T14:34:56Z</time>
      </trkpt>
      <trkpt lat="44.31161" lon="4.76099">
        <ele>180</ele>
        <time>2014-11-13T14:35:06Z</time>
      </trkpt>
      <trkpt lat="44.31165" lon="4.76089">
        <ele>180</ele>
        <time>2014-11-13T14:35:18Z</time>
      </trkpt>
      <trkpt lat="44.31166" lon="4.76092">
        <ele>180</ele>
        <time>2014-11-13T14:35:26Z</time>
      </trkpt>
      <trkpt lat="44.31166" lon="4.76094">
        <ele>180</ele>
        <time>2014-11-13T14:35:30Z</time>
      </trkpt>
      <trkpt lat="44.31167" lon="4.7609">
        <ele>180</ele>
        <time>2014-11-13T14:35:33Z</time>
      </trkpt>
      <trkpt lat="44.31169" lon="4.76081">
        <ele>181</ele>
        <time>2014-11-13T14:35:42Z</time>
      </trkpt>
      <trkpt lat="44.31169" lon="4.76079">
        <ele>181</ele>
        <time>2014-11-13T14:35:43Z</time>
      </trkpt>
      <trkpt lat="44.31168" lon="4.76076">
        <ele>181</ele>
        <time>2014-11-13T14:35:45Z</time>
      </trkpt>
      <trkpt lat="44.31167" lon="4.76063">
        <ele>181</ele>
        <time>2014-11-13T14:35:55Z</time>
      </trkpt>
      <trkpt lat="44.31165" lon="4.76053">
        <ele>182</ele>
        <time>2014-11-13T14:36:03Z</time>
      </trkpt>
      <trkpt lat="44.31164" lon="4.76043">
        <ele>182</ele>
        <time>2014-11-13T14:36:11Z</time>
      </trkpt>
      <trkpt lat="44.31163" lon="4.76036">
        <ele>182</ele>
        <time>2014-11-13T14:36:15Z</time>
      </trkpt>
      <trkpt lat="44.31165" lon="4.7603">
        <ele>182</ele>
        <time>2014-11-13T14:36:20Z</time>
      </trkpt>
      <trkpt lat="44.31165" lon="4.7602">
        <ele>182</ele>
        <time>2014-11-13T14:36:29Z</time>
      </trkpt>
      <trkpt lat="44.31165" lon="4.76005">
        <ele>182</ele>
        <time>2014-11-13T14:36:41Z</time>
      </trkpt>
      <trkpt lat="44.31166" lon="4.76">
        <ele>183</ele>
        <time>2014-11-13T14:36:48Z</time>
      </trkpt>
      <trkpt lat="44.31167" lon="4.75995">
        <ele>183</ele>
        <time>2014-11-13T14:36:55Z</time>
      </trkpt>
      <trkpt lat="44.31169" lon="4.75993">
        <ele>183</ele>
        <time>2014-11-13T14:37:14Z</time>
      </trkpt>
      <trkpt lat="44.31177" lon="4.75986">
        <ele>182</ele>
        <time>2014-11-13T14:37:26Z</time>
      </trkpt>
      <trkpt lat="44.31184" lon="4.75988">
        <ele>184</ele>
        <time>2014-11-13T14:37:36Z</time>
      </trkpt>
      <trkpt lat="44.31189" lon="4.75988">
        <ele>184</ele>
        <time>2014-11-13T14:37:41Z</time>
      </trkpt>
      <trkpt lat="44.31201" lon="4.75987">
        <ele>184</ele>
        <time>2014-11-13T14:37:54Z</time>
      </trkpt>
      <trkpt lat="44.31209" lon="4.75983">
        <ele>184</ele>
        <time>2014-11-13T14:38:02Z</time>
      </trkpt>
      <trkpt lat="44.31224" lon="4.75981">
        <ele>184</ele>
        <time>2014-11-13T14:38:16Z</time>
      </trkpt>
      <trkpt lat="44.31235" lon="4.75975">
        <ele>185</ele>
        <time>2014-11-13T14:38:29Z</time>
      </trkpt>
      <trkpt lat="44.31238" lon="4.75976">
        <ele>185</ele>
        <time>2014-11-13T14:38:33Z</time>
      </trkpt>
      <trkpt lat="44.31244" lon="4.75977">
        <ele>185</ele>
        <time>2014-11-13T14:38:39Z</time>
      </trkpt>
      <trkpt lat="44.31252" lon="4.75971">
        <ele>186</ele>
        <time>2014-11-13T14:38:48Z</time>
      </trkpt>
      <trkpt lat="44.31254" lon="4.7597">
        <ele>186</ele>
        <time>2014-11-13T14:38:51Z</time>
      </trkpt>
      <trkpt lat="44.3126" lon="4.75969">
        <ele>187</ele>
        <time>2014-11-13T14:39:00Z</time>
      </trkpt>
      <trkpt lat="44.31261" lon="4.75976">
        <ele>188</ele>
        <time>2014-11-13T14:39:06Z</time>
      </trkpt>
      <trkpt lat="44.3126" lon="4.75995">
        <ele>188</ele>
        <time>2014-11-13T14:39:20Z</time>
      </trkpt>
      <trkpt lat="44.31261" lon="4.76001">
        <ele>189</ele>
        <time>2014-11-13T14:39:25Z</time>
      </trkpt>
      <trkpt lat="44.31266" lon="4.76008">
        <ele>189</ele>
        <time>2014-11-13T14:39:34Z</time>
      </trkpt>
      <trkpt lat="44.31268" lon="4.76008">
        <ele>190</ele>
        <time>2014-11-13T14:39:50Z</time>
      </trkpt>
      <trkpt lat="44.31277" lon="4.76017">
        <ele>190</ele>
        <time>2014-11-13T14:40:02Z</time>
      </trkpt>
      <trkpt lat="44.31277" lon="4.76018">
        <ele>191</ele>
        <time>2014-11-13T14:40:03Z</time>
      </trkpt>
      <trkpt lat="44.3128" lon="4.76033">
        <ele>192</ele>
        <time>2014-11-13T14:40:14Z</time>
      </trkpt>
      <trkpt lat="44.31287" lon="4.76039">
        <ele>193</ele>
        <time>2014-11-13T14:40:24Z</time>
      </trkpt>
      <trkpt lat="44.31293" lon="4.76044">
        <ele>194</ele>
        <time>2014-11-13T14:40:33Z</time>
      </trkpt>
      <trkpt lat="44.313" lon="4.76051">
        <ele>196</ele>
        <time>2014-11-13T14:40:43Z</time>
      </trkpt>
      <trkpt lat="44.313" lon="4.76051">
        <ele>196</ele>
        <time>2014-11-13T14:40:44Z</time>
      </trkpt>
      <trkpt lat="44.31307" lon="4.76054">
        <ele>196</ele>
        <time>2014-11-13T14:40:55Z</time>
      </trkpt>
      <trkpt lat="44.31306" lon="4.76062">
        <ele>196</ele>
        <time>2014-11-13T14:41:04Z</time>
      </trkpt>
      <trkpt lat="44.31305" lon="4.76066">
        <ele>197</ele>
        <time>2014-11-13T14:41:11Z</time>
      </trkpt>
      <trkpt lat="44.31304" lon="4.76067">
        <ele>197</ele>
        <time>2014-11-13T14:41:24Z</time>
      </trkpt>
      <trkpt lat="44.31303" lon="4.76079">
        <ele>198</ele>
        <time>2014-11-13T14:41:34Z</time>
      </trkpt>
      <trkpt lat="44.31303" lon="4.76086">
        <ele>198</ele>
        <time>2014-11-13T14:41:40Z</time>
      </trkpt>
      <trkpt lat="44.31305" lon="4.76094">
        <ele>199</ele>
        <time>2014-11-13T14:41:47Z</time>
      </trkpt>
      <trkpt lat="44.31309" lon="4.76098">
        <ele>201</ele>
        <time>2014-11-13T14:41:53Z</time>
      </trkpt>
      <trkpt lat="44.31312" lon="4.76101">
        <ele>201</ele>
        <time>2014-11-13T14:42:01Z</time>
      </trkpt>
      <trkpt lat="44.31315" lon="4.76106">
        <ele>201</ele>
        <time>2014-11-13T14:42:05Z</time>
      </trkpt>
      <trkpt lat="44.3132" lon="4.76115">
        <ele>201</ele>
        <time>2014-11-13T14:42:13Z</time>
      </trkpt>
      <trkpt lat="44.31321" lon="4.76117">
        <ele>201</ele>
        <time>2014-11-13T14:42:16Z</time>
      </trkpt>
      <trkpt lat="44.31324" lon="4.7612">
        <ele>202</ele>
        <time>2014-11-13T14:42:23Z</time>
      </trkpt>
      <trkpt lat="44.31329" lon="4.76125">
        <ele>202</ele>
        <time>2014-11-13T14:42:33Z</time>
      </trkpt>
      <trkpt lat="44.31332" lon="4.76127">
        <ele>202</ele>
        <time>2014-11-13T14:42:41Z</time>
      </trkpt>
      <trkpt lat="44.3133" lon="4.76132">
        <ele>202</ele>
        <time>2014-11-13T14:42:45Z</time>
      </trkpt>
      <trkpt lat="44.3133" lon="4.76135">
        <ele>202</ele>
        <time>2014-11-13T14:42:51Z</time>
      </trkpt>
      <trkpt lat="44.31331" lon="4.76135">
        <ele>203</ele>
        <time>2014-11-13T14:43:03Z</time>
      </trkpt>
      <trkpt lat="44.3133" lon="4.76134">
        <ele>202</ele>
        <time>2014-11-13T14:43:26Z</time>
      </trkpt>
      <trkpt lat="44.3133" lon="4.76137">
        <ele>202</ele>
        <time>2014-11-13T14:43:54Z</time>
      </trkpt>
      <trkpt lat="44.3133" lon="4.76142">
        <ele>202</ele>
        <time>2014-11-13T14:43:59Z</time>
      </trkpt>
      <trkpt lat="44.31331" lon="4.76149">
        <ele>202</ele>
        <time>2014-11-13T14:44:05Z</time>
      </trkpt>
      <trkpt lat="44.31331" lon="4.76154">
        <ele>201</ele>
        <time>2014-11-13T14:44:13Z</time>
      </trkpt>
      <trkpt lat="44.31332" lon="4.76148">
        <ele>202</ele>
        <time>2014-11-13T14:44:21Z</time>
      </trkpt>
      <trkpt lat="44.31336" lon="4.76146">
        <ele>202</ele>
        <time>2014-11-13T14:44:26Z</time>
      </trkpt>
      <trkpt lat="44.31338" lon="4.76146">
        <ele>202</ele>
        <time>2014-11-13T14:44:28Z</time>
      </trkpt>
      <trkpt lat="44.31344" lon="4.76145">
        <ele>203</ele>
        <time>2014-11-13T14:44:34Z</time>
      </trkpt>
      <trkpt lat="44.31352" lon="4.7615">
        <ele>202</ele>
        <time>2014-11-13T14:44:42Z</time>
      </trkpt>
      <trkpt lat="44.31359" lon="4.76151">
        <ele>203</ele>
        <time>2014-11-13T14:44:47Z</time>
      </trkpt>
      <trkpt lat="44.31361" lon="4.7615">
        <ele>203</ele>
        <time>2014-11-13T14:44:49Z</time>
      </trkpt>
      <trkpt lat="44.31366" lon="4.7615">
        <ele>203</ele>
        <time>2014-11-13T14:44:56Z</time>
      </trkpt>
      <trkpt lat="44.3137" lon="4.76155">
        <ele>203</ele>
        <time>2014-11-13T14:45:02Z</time>
      </trkpt>
      <trkpt lat="44.31375" lon="4.7616">
        <ele>203</ele>
        <time>2014-11-13T14:45:10Z</time>
      </trkpt>
      <trkpt lat="44.31379" lon="4.76163">
        <ele>203</ele>
        <time>2014-11-13T14:45:15Z</time>
      </trkpt>
      <trkpt lat="44.3139" lon="4.76174">
        <ele>204</ele>
        <time>2014-11-13T14:45:30Z</time>
      </trkpt>
      <trkpt lat="44.31392" lon="4.76177">
        <ele>204</ele>
        <time>2014-11-13T14:45:33Z</time>
      </trkpt>
      <trkpt lat="44.31399" lon="4.76183">
        <ele>204</ele>
        <time>2014-11-13T14:45:42Z</time>
      </trkpt>
      <trkpt lat="44.31408" lon="4.7619">
        <ele>205</ele>
        <time>2014-11-13T14:45:53Z</time>
      </trkpt>
      <trkpt lat="44.31412" lon="4.76192">
        <ele>206</ele>
        <time>2014-11-13T14:46:00Z</time>
      </trkpt>
      <trkpt lat="44.31413" lon="4.76192">
        <ele>206</ele>
        <time>2014-11-13T14:46:01Z</time>
      </trkpt>
      <trkpt lat="44.31415" lon="4.76189">
        <ele>206</ele>
        <time>2014-11-13T14:46:05Z</time>
      </trkpt>
      <trkpt lat="44.31417" lon="4.76189">
        <ele>207</ele>
        <time>2014-11-13T14:46:07Z</time>
      </trkpt>
      <trkpt lat="44.31421" lon="4.76181">
        <ele>208</ele>
        <time>2014-11-13T14:46:13Z</time>
      </trkpt>
      <trkpt lat="44.31425" lon="4.7618">
        <ele>209</ele>
        <time>2014-11-13T14:46:18Z</time>
      </trkpt>
      <trkpt lat="44.31431" lon="4.76183">
        <ele>210</ele>
        <time>2014-11-13T14:46:25Z</time>
      </trkpt>
      <trkpt lat="44.31432" lon="4.76182">
        <ele>210</ele>
        <time>2014-11-13T14:46:27Z</time>
      </trkpt>
      <trkpt lat="44.31434" lon="4.76184">
        <ele>211</ele>
        <time>2014-11-13T14:46:29Z</time>
      </trkpt>
      <trkpt lat="44.31436" lon="4.76185">
        <ele>211</ele>
        <time>2014-11-13T14:46:36Z</time>
      </trkpt>
      <trkpt lat="44.31441" lon="4.76186">
        <ele>212</ele>
        <time>2014-11-13T14:46:41Z</time>
      </trkpt>
      <trkpt lat="44.31444" lon="4.76184">
        <ele>213</ele>
        <time>2014-11-13T14:46:48Z</time>
      </trkpt>
      <trkpt lat="44.31447" lon="4.76184">
        <ele>212</ele>
        <time>2014-11-13T14:46:52Z</time>
      </trkpt>
      <trkpt lat="44.31448" lon="4.76183">
        <ele>212</ele>
        <time>2014-11-13T14:46:54Z</time>
      </trkpt>
      <trkpt lat="44.31454" lon="4.76183">
        <ele>213</ele>
        <time>2014-11-13T14:47:03Z</time>
      </trkpt>
      <trkpt lat="44.31462" lon="4.7618">
        <ele>213</ele>
        <time>2014-11-13T14:47:12Z</time>
      </trkpt>
      <trkpt lat="44.31467" lon="4.76173">
        <ele>213</ele>
        <time>2014-11-13T14:47:19Z</time>
      </trkpt>
      <trkpt lat="44.3147" lon="4.76168">
        <ele>213</ele>
        <time>2014-11-13T14:47:24Z</time>
      </trkpt>
      <trkpt lat="44.31472" lon="4.76166">
        <ele>214</ele>
        <time>2014-11-13T14:47:27Z</time>
      </trkpt>
      <trkpt lat="44.3148" lon="4.76155">
        <ele>214</ele>
        <time>2014-11-13T14:47:36Z</time>
      </trkpt>
      <trkpt lat="44.3148" lon="4.76154">
        <ele>214</ele>
        <time>2014-11-13T14:47:37Z</time>
      </trkpt>
      <trkpt lat="44.31483" lon="4.7615">
        <ele>215</ele>
        <time>2014-11-13T14:47:45Z</time>
      </trkpt>
      <trkpt lat="44.31484" lon="4.76149">
        <ele>215</ele>
        <time>2014-11-13T14:47:49Z</time>
      </trkpt>
      <trkpt lat="44.31496" lon="4.76139">
        <ele>215</ele>
        <time>2014-11-13T14:48:03Z</time>
      </trkpt>
      <trkpt lat="44.31499" lon="4.76137">
        <ele>215</ele>
        <time>2014-11-13T14:48:07Z</time>
      </trkpt>
      <trkpt lat="44.31507" lon="4.76132">
        <ele>215</ele>
        <time>2014-11-13T14:48:15Z</time>
      </trkpt>
      <trkpt lat="44.31509" lon="4.76131">
        <ele>215</ele>
        <time>2014-11-13T14:48:17Z</time>
      </trkpt>
      <trkpt lat="44.31513" lon="4.76129">
        <ele>215</ele>
        <time>2014-11-13T14:48:22Z</time>
      </trkpt>
      <trkpt lat="44.31515" lon="4.76128">
        <ele>215</ele>
        <time>2014-11-13T14:48:24Z</time>
      </trkpt>
      <trkpt lat="44.31522" lon="4.76127">
        <ele>215</ele>
        <time>2014-11-13T14:48:28Z</time>
      </trkpt>
      <trkpt lat="44.31532" lon="4.76129">
        <ele>215</ele>
        <time>2014-11-13T14:48:38Z</time>
      </trkpt>
      <trkpt lat="44.31536" lon="4.76128">
        <ele>215</ele>
        <time>2014-11-13T14:48:43Z</time>
      </trkpt>
      <trkpt lat="44.31541" lon="4.76126">
        <ele>216</ele>
        <time>2014-11-13T14:48:49Z</time>
      </trkpt>
      <trkpt lat="44.31546" lon="4.76124">
        <ele>216</ele>
        <time>2014-11-13T14:48:55Z</time>
      </trkpt>
      <trkpt lat="44.31549" lon="4.76121">
        <ele>217</ele>
        <time>2014-11-13T14:49:01Z</time>
      </trkpt>
      <trkpt lat="44.31552" lon="4.76116">
        <ele>217</ele>
        <time>2014-11-13T14:49:16Z</time>
      </trkpt>
      <trkpt lat="44.31557" lon="4.76104">
        <ele>217</ele>
        <time>2014-11-13T14:49:26Z</time>
      </trkpt>
      <trkpt lat="44.31558" lon="4.76101">
        <ele>217</ele>
        <time>2014-11-13T14:49:28Z</time>
      </trkpt>
      <trkpt lat="44.31562" lon="4.76096">
        <ele>217</ele>
        <time>2014-11-13T14:49:33Z</time>
      </trkpt>
      <trkpt lat="44.31565" lon="4.7609">
        <ele>217</ele>
        <time>2014-11-13T14:49:38Z</time>
      </trkpt>
      <trkpt lat="44.31567" lon="4.7609">
        <ele>217</ele>
        <time>2014-11-13T14:49:39Z</time>
      </trkpt>
      <trkpt lat="44.31572" lon="4.76085">
        <ele>218</ele>
        <time>2014-11-13T14:49:46Z</time>
      </trkpt>
      <trkpt lat="44.31581" lon="4.76076">
        <ele>218</ele>
        <time>2014-11-13T14:49:56Z</time>
      </trkpt>
      <trkpt lat="44.31589" lon="4.76073">
        <ele>218</ele>
        <time>2014-11-13T14:50:04Z</time>
      </trkpt>
      <trkpt lat="44.31603" lon="4.76075">
        <ele>218</ele>
        <time>2014-11-13T14:50:17Z</time>
      </trkpt>
      <trkpt lat="44.31609" lon="4.7608">
        <ele>218</ele>
        <time>2014-11-13T14:50:26Z</time>
      </trkpt>
      <trkpt lat="44.31612" lon="4.7608">
        <ele>218</ele>
        <time>2014-11-13T14:50:31Z</time>
      </trkpt>
      <trkpt lat="44.31615" lon="4.76083">
        <ele>218</ele>
        <time>2014-11-13T14:50:39Z</time>
      </trkpt>
      <trkpt lat="44.3162" lon="4.76086">
        <ele>218</ele>
        <time>2014-11-13T14:50:45Z</time>
      </trkpt>
      <trkpt lat="44.31625" lon="4.7609">
        <ele>218</ele>
        <time>2014-11-13T14:50:51Z</time>
      </trkpt>
      <trkpt lat="44.31625" lon="4.76091">
        <ele>218</ele>
        <time>2014-11-13T14:50:52Z</time>
      </trkpt>
      <trkpt lat="44.3163" lon="4.76097">
        <ele>219</ele>
        <time>2014-11-13T14:51:00Z</time>
      </trkpt>
      <trkpt lat="44.31631" lon="4.76099">
        <ele>219</ele>
        <time>2014-11-13T14:51:02Z</time>
      </trkpt>
      <trkpt lat="44.31643" lon="4.76105">
        <ele>220</ele>
        <time>2014-11-13T14:51:13Z</time>
      </trkpt>
      <trkpt lat="44.31646" lon="4.76104">
        <ele>220</ele>
        <time>2014-11-13T14:51:17Z</time>
      </trkpt>
      <trkpt lat="44.31652" lon="4.76101">
        <ele>220</ele>
        <time>2014-11-13T14:51:24Z</time>
      </trkpt>
      <trkpt lat="44.31662" lon="4.76102">
        <ele>221</ele>
        <time>2014-11-13T14:51:35Z</time>
      </trkpt>
      <trkpt lat="44.31667" lon="4.76102">
        <ele>221</ele>
        <time>2014-11-13T14:51:42Z</time>
      </trkpt>
      <trkpt lat="44.31668" lon="4.76103">
        <ele>221</ele>
        <time>2014-11-13T14:51:44Z</time>
      </trkpt>
      <trkpt lat="44.31679" lon="4.76103">
        <ele>223</ele>
        <time>2014-11-13T14:51:54Z</time>
      </trkpt>
      <trkpt lat="44.31685" lon="4.76103">
        <ele>223</ele>
        <time>2014-11-13T14:51:59Z</time>
      </trkpt>
      <trkpt lat="44.31691" lon="4.76104">
        <ele>223</ele>
        <time>2014-11-13T14:52:05Z</time>
      </trkpt>
      <trkpt lat="44.31693" lon="4.76105">
        <ele>223</ele>
        <time>2014-11-13T14:52:07Z</time>
      </trkpt>
      <trkpt lat="44.317" lon="4.76103">
        <ele>223</ele>
        <time>2014-11-13T14:52:14Z</time>
      </trkpt>
      <trkpt lat="44.31708" lon="4.76101">
        <ele>224</ele>
        <time>2014-11-13T14:52:23Z</time>
      </trkpt>
      <trkpt lat="44.31717" lon="4.76095">
        <ele>224</ele>
        <time>2014-11-13T14:52:32Z</time>
      </trkpt>
      <trkpt lat="44.3172" lon="4.76093">
        <ele>224</ele>
        <time>2014-11-13T14:52:35Z</time>
      </trkpt>
      <trkpt lat="44.31725" lon="4.76089">
        <ele>225</ele>
        <time>2014-11-13T14:52:42Z</time>
      </trkpt>
      <trkpt lat="44.31728" lon="4.76086">
        <ele>225</ele>
        <time>2014-11-13T14:52:43Z</time>
      </trkpt>
      <trkpt lat="44.31732" lon="4.7608">
        <ele>226</ele>
        <time>2014-11-13T14:52:49Z</time>
      </trkpt>
      <trkpt lat="44.31742" lon="4.76076">
        <ele>227</ele>
        <time>2014-11-13T14:53:03Z</time>
      </trkpt>
      <trkpt lat="44.31744" lon="4.76073">
        <ele>226</ele>
        <time>2014-11-13T14:53:06Z</time>
      </trkpt>
      <trkpt lat="44.31748" lon="4.76072">
        <ele>227</ele>
        <time>2014-11-13T14:53:10Z</time>
      </trkpt>
      <trkpt lat="44.31753" lon="4.76069">
        <ele>227</ele>
        <time>2014-11-13T14:53:15Z</time>
      </trkpt>
      <trkpt lat="44.31758" lon="4.76066">
        <ele>227</ele>
        <time>2014-11-13T14:53:21Z</time>
      </trkpt>
      <trkpt lat="44.31766" lon="4.76058">
        <ele>227</ele>
        <time>2014-11-13T14:53:31Z</time>
      </trkpt>
      <trkpt lat="44.31771" lon="4.76055">
        <ele>228</ele>
        <time>2014-11-13T14:53:36Z</time>
      </trkpt>
      <trkpt lat="44.31777" lon="4.76051">
        <ele>228</ele>
        <time>2014-11-13T14:53:41Z</time>
      </trkpt>
      <trkpt lat="44.31781" lon="4.76051">
        <ele>228</ele>
        <time>2014-11-13T14:53:46Z</time>
      </trkpt>
      <trkpt lat="44.31789" lon="4.7605">
        <ele>229</ele>
        <time>2014-11-13T14:53:56Z</time>
      </trkpt>
      <trkpt lat="44.31792" lon="4.7605">
        <ele>229</ele>
        <time>2014-11-13T14:53:58Z</time>
      </trkpt>
      <trkpt lat="44.31796" lon="4.76049">
        <ele>229</ele>
        <time>2014-11-13T14:54:02Z</time>
      </trkpt>
      <trkpt lat="44.31801" lon="4.76054">
        <ele>230</ele>
        <time>2014-11-13T14:54:12Z</time>
      </trkpt>
      <trkpt lat="44.31801" lon="4.76052">
        <ele>230</ele>
        <time>2014-11-13T14:54:22Z</time>
      </trkpt>
      <trkpt lat="44.318" lon="4.76053">
        <ele>229</ele>
        <time>2014-11-13T14:54:31Z</time>
      </trkpt>
      <trkpt lat="44.31801" lon="4.76052">
        <ele>229</ele>
        <time>2014-11-13T14:54:41Z</time>
      </trkpt>
      <trkpt lat="44.31801" lon="4.76053">
        <ele>229</ele>
        <time>2014-11-13T14:54:53Z</time>
      </trkpt>
      <trkpt lat="44.318" lon="4.76053">
        <ele>229</ele>
        <time>2014-11-13T14:55:03Z</time>
      </trkpt>
      <trkpt lat="44.318" lon="4.76054">
        <ele>229</ele>
        <time>2014-11-13T14:55:27Z</time>
      </trkpt>
      <trkpt lat="44.31799" lon="4.76056">
        <ele>229</ele>
        <time>2014-11-13T14:55:51Z</time>
      </trkpt>
      <trkpt lat="44.31799" lon="4.76057">
        <ele>229</ele>
        <time>2014-11-13T14:55:53Z</time>
      </trkpt>
      <trkpt lat="44.31798" lon="4.76063">
        <ele>229</ele>
        <time>2014-11-13T14:55:58Z</time>
      </trkpt>
      <trkpt lat="44.31795" lon="4.76079">
        <ele>230</ele>
        <time>2014-11-13T14:56:10Z</time>
      </trkpt>
      <trkpt lat="44.31795" lon="4.76088">
        <ele>230</ele>
        <time>2014-11-13T14:56:16Z</time>
      </trkpt>
      <trkpt lat="44.31793" lon="4.76097">
        <ele>230</ele>
        <time>2014-11-13T14:56:23Z</time>
      </trkpt>
      <trkpt lat="44.31792" lon="4.76116">
        <ele>230</ele>
        <time>2014-11-13T14:56:36Z</time>
      </trkpt>
      <trkpt lat="44.3179" lon="4.76129">
        <ele>230</ele>
        <time>2014-11-13T14:56:44Z</time>
      </trkpt>
      <trkpt lat="44.31791" lon="4.76137">
        <ele>231</ele>
        <time>2014-11-13T14:56:50Z</time>
      </trkpt>
      <trkpt lat="44.31792" lon="4.76146">
        <ele>231</ele>
        <time>2014-11-13T14:56:56Z</time>
      </trkpt>
      <trkpt lat="44.31794" lon="4.76147">
        <ele>231</ele>
        <time>2014-11-13T14:57:06Z</time>
      </trkpt>
      <trkpt lat="44.31804" lon="4.76152">
        <ele>231</ele>
        <time>2014-11-13T14:57:17Z</time>
      </trkpt>
      <trkpt lat="44.31808" lon="4.76155">
        <ele>231</ele>
        <time>2014-11-13T14:57:23Z</time>
      </trkpt>
      <trkpt lat="44.31809" lon="4.76156">
        <ele>231</ele>
        <time>2014-11-13T14:57:24Z</time>
      </trkpt>
      <trkpt lat="44.31815" lon="4.76162">
        <ele>231</ele>
        <time>2014-11-13T14:57:30Z</time>
      </trkpt>
      <trkpt lat="44.31818" lon="4.76162">
        <ele>232</ele>
        <time>2014-11-13T14:57:33Z</time>
      </trkpt>
      <trkpt lat="44.31821" lon="4.76164">
        <ele>231</ele>
        <time>2014-11-13T14:57:36Z</time>
      </trkpt>
      <trkpt lat="44.31827" lon="4.76167">
        <ele>231</ele>
        <time>2014-11-13T14:57:44Z</time>
      </trkpt>
      <trkpt lat="44.31831" lon="4.76174">
        <ele>232</ele>
        <time>2014-11-13T14:57:52Z</time>
      </trkpt>
      <trkpt lat="44.31833" lon="4.76174">
        <ele>231</ele>
        <time>2014-11-13T14:57:54Z</time>
      </trkpt>
      <trkpt lat="44.31841" lon="4.76175">
        <ele>232</ele>
        <time>2014-11-13T14:58:01Z</time>
      </trkpt>
      <trkpt lat="44.31849" lon="4.76185">
        <ele>232</ele>
        <time>2014-11-13T14:58:10Z</time>
      </trkpt>
      <trkpt lat="44.31852" lon="4.76188">
        <ele>232</ele>
        <time>2014-11-13T14:58:13Z</time>
      </trkpt>
      <trkpt lat="44.31854" lon="4.76192">
        <ele>232</ele>
        <time>2014-11-13T14:58:18Z</time>
      </trkpt>
      <trkpt lat="44.31859" lon="4.76194">
        <ele>232</ele>
        <time>2014-11-13T14:58:23Z</time>
      </trkpt>
      <trkpt lat="44.31866" lon="4.76197">
        <ele>233</ele>
        <time>2014-11-13T14:58:29Z</time>
      </trkpt>
      <trkpt lat="44.31872" lon="4.76202">
        <ele>233</ele>
        <time>2014-11-13T14:58:36Z</time>
      </trkpt>
      <trkpt lat="44.31879" lon="4.76207">
        <ele>233</ele>
        <time>2014-11-13T14:58:43Z</time>
      </trkpt>
      <trkpt lat="44.31883" lon="4.76209">
        <ele>234</ele>
        <time>2014-11-13T14:58:48Z</time>
      </trkpt>
      <trkpt lat="44.31888" lon="4.76218">
        <ele>234</ele>
        <time>2014-11-13T14:58:55Z</time>
      </trkpt>
      <trkpt lat="44.31891" lon="4.76222">
        <ele>233</ele>
        <time>2014-11-13T14:59:01Z</time>
      </trkpt>
      <trkpt lat="44.31893" lon="4.76225">
        <ele>233</ele>
        <time>2014-11-13T14:59:04Z</time>
      </trkpt>
      <trkpt lat="44.31902" lon="4.76231">
        <ele>234</ele>
        <time>2014-11-13T14:59:10Z</time>
      </trkpt>
      <trkpt lat="44.31907" lon="4.76235">
        <ele>233</ele>
        <time>2014-11-13T14:59:15Z</time>
      </trkpt>
      <trkpt lat="44.31908" lon="4.7624">
        <ele>233</ele>
        <time>2014-11-13T14:59:19Z</time>
      </trkpt>
      <trkpt lat="44.3191" lon="4.76248">
        <ele>233</ele>
        <time>2014-11-13T14:59:25Z</time>
      </trkpt>
      <trkpt lat="44.31911" lon="4.76248">
        <ele>233</ele>
        <time>2014-11-13T14:59:26Z</time>
      </trkpt>
      <trkpt lat="44.31916" lon="4.76256">
        <ele>233</ele>
        <time>2014-11-13T14:59:31Z</time>
      </trkpt>
      <trkpt lat="44.3192" lon="4.7626">
        <ele>234</ele>
        <time>2014-11-13T14:59:37Z</time>
      </trkpt>
      <trkpt lat="44.31924" lon="4.76261">
        <ele>234</ele>
        <time>2014-11-13T14:59:41Z</time>
      </trkpt>
      <trkpt lat="44.31927" lon="4.76265">
        <ele>234</ele>
        <time>2014-11-13T14:59:45Z</time>
      </trkpt>
      <trkpt lat="44.31931" lon="4.76274">
        <ele>234</ele>
        <time>2014-11-13T14:59:53Z</time>
      </trkpt>
      <trkpt lat="44.31937" lon="4.76283">
        <ele>234</ele>
        <time>2014-11-13T15:00:01Z</time>
      </trkpt>
      <trkpt lat="44.31943" lon="4.76297">
        <ele>234</ele>
        <time>2014-11-13T15:00:12Z</time>
      </trkpt>
      <trkpt lat="44.31945" lon="4.76301">
        <ele>234</ele>
        <time>2014-11-13T15:00:16Z</time>
      </trkpt>
      <trkpt lat="44.31948" lon="4.76305">
        <ele>234</ele>
        <time>2014-11-13T15:00:22Z</time>
      </trkpt>
      <trkpt lat="44.31952" lon="4.76309">
        <ele>234</ele>
        <time>2014-11-13T15:00:29Z</time>
      </trkpt>
      <trkpt lat="44.3196" lon="4.76323">
        <ele>233</ele>
        <time>2014-11-13T15:00:38Z</time>
      </trkpt>
      <trkpt lat="44.31964" lon="4.76329">
        <ele>233</ele>
        <time>2014-11-13T15:00:44Z</time>
      </trkpt>
      <trkpt lat="44.31974" lon="4.76334">
        <ele>233</ele>
        <time>2014-11-13T15:00:51Z</time>
      </trkpt>
      <trkpt lat="44.31976" lon="4.76337">
        <ele>233</ele>
        <time>2014-11-13T15:00:55Z</time>
      </trkpt>
      <trkpt lat="44.31983" lon="4.7634">
        <ele>233</ele>
        <time>2014-11-13T15:01:01Z</time>
      </trkpt>
      <trkpt lat="44.31985" lon="4.76343">
        <ele>233</ele>
        <time>2014-11-13T15:01:03Z</time>
      </trkpt>
      <trkpt lat="44.31986" lon="4.76345">
        <ele>233</ele>
        <time>2014-11-13T15:01:05Z</time>
      </trkpt>
      <trkpt lat="44.31986" lon="4.76348">
        <ele>233</ele>
        <time>2014-11-13T15:01:07Z</time>
      </trkpt>
      <trkpt lat="44.31995" lon="4.76352">
        <ele>233</ele>
        <time>2014-11-13T15:01:13Z</time>
      </trkpt>
      <trkpt lat="44.31995" lon="4.76353">
        <ele>233</ele>
        <time>2014-11-13T15:01:14Z</time>
      </trkpt>
      <trkpt lat="44.31997" lon="4.76354">
        <ele>233</ele>
        <time>2014-11-13T15:01:16Z</time>
      </trkpt>
      <trkpt lat="44.32002" lon="4.76358">
        <ele>234</ele>
        <time>2014-11-13T15:01:21Z</time>
      </trkpt>
      <trkpt lat="44.32008" lon="4.7636">
        <ele>234</ele>
        <time>2014-11-13T15:01:26Z</time>
      </trkpt>
      <trkpt lat="44.32018" lon="4.76372">
        <ele>233</ele>
        <time>2014-11-13T15:01:39Z</time>
      </trkpt>
      <trkpt lat="44.32024" lon="4.7638">
        <ele>233</ele>
        <time>2014-11-13T15:01:47Z</time>
      </trkpt>
      <trkpt lat="44.32032" lon="4.76394">
        <ele>232</ele>
        <time>2014-11-13T15:01:58Z</time>
      </trkpt>
      <trkpt lat="44.32035" lon="4.76401">
        <ele>232</ele>
        <time>2014-11-13T15:02:04Z</time>
      </trkpt>
      <trkpt lat="44.32036" lon="4.76402">
        <ele>232</ele>
        <time>2014-11-13T15:02:05Z</time>
      </trkpt>
      <trkpt lat="44.32038" lon="4.76401">
        <ele>232</ele>
        <time>2014-11-13T15:02:07Z</time>
      </trkpt>
      <trkpt lat="44.32039" lon="4.76406">
        <ele>232</ele>
        <time>2014-11-13T15:02:11Z</time>
      </trkpt>
      <trkpt lat="44.32041" lon="4.76409">
        <ele>232</ele>
        <time>2014-11-13T15:02:14Z</time>
      </trkpt>
      <trkpt lat="44.32046" lon="4.76416">
        <ele>231</ele>
        <time>2014-11-13T15:02:22Z</time>
      </trkpt>
      <trkpt lat="44.32046" lon="4.76421">
        <ele>231</ele>
        <time>2014-11-13T15:02:24Z</time>
      </trkpt>
      <trkpt lat="44.32051" lon="4.76428">
        <ele>232</ele>
        <time>2014-11-13T15:02:30Z</time>
      </trkpt>
      <trkpt lat="44.32053" lon="4.76433">
        <ele>231</ele>
        <time>2014-11-13T15:02:34Z</time>
      </trkpt>
      <trkpt lat="44.32061" lon="4.7644">
        <ele>231</ele>
        <time>2014-11-13T15:02:41Z</time>
      </trkpt>
      <trkpt lat="44.32069" lon="4.76446">
        <ele>231</ele>
        <time>2014-11-13T15:02:49Z</time>
      </trkpt>
      <trkpt lat="44.32071" lon="4.76451">
        <ele>231</ele>
        <time>2014-11-13T15:02:53Z</time>
      </trkpt>
      <trkpt lat="44.32072" lon="4.76457">
        <ele>231</ele>
        <time>2014-11-13T15:02:57Z</time>
      </trkpt>
      <trkpt lat="44.32076" lon="4.76463">
        <ele>231</ele>
        <time>2014-11-13T15:03:04Z</time>
      </trkpt>
      <trkpt lat="44.32083" lon="4.76476">
        <ele>231</ele>
        <time>2014-11-13T15:03:15Z</time>
      </trkpt>
      <trkpt lat="44.3209" lon="4.76487">
        <ele>231</ele>
        <time>2014-11-13T15:03:23Z</time>
      </trkpt>
      <trkpt lat="44.32094" lon="4.76493">
        <ele>231</ele>
        <time>2014-11-13T15:03:28Z</time>
      </trkpt>
      <trkpt lat="44.32097" lon="4.76499">
        <ele>231</ele>
        <time>2014-11-13T15:03:34Z</time>
      </trkpt>
      <trkpt lat="44.32101" lon="4.76508">
        <ele>231</ele>
        <time>2014-11-13T15:03:42Z</time>
      </trkpt>
      <trkpt lat="44.32106" lon="4.76512">
        <ele>231</ele>
        <time>2014-11-13T15:03:50Z</time>
      </trkpt>
      <trkpt lat="44.3211" lon="4.76521">
        <ele>231</ele>
        <time>2014-11-13T15:03:57Z</time>
      </trkpt>
      <trkpt lat="44.32111" lon="4.76523">
        <ele>231</ele>
        <time>2014-11-13T15:03:59Z</time>
      </trkpt>
      <trkpt lat="44.3212" lon="4.76535">
        <ele>232</ele>
        <time>2014-11-13T15:04:09Z</time>
      </trkpt>
      <trkpt lat="44.32122" lon="4.76537">
        <ele>232</ele>
        <time>2014-11-13T15:04:12Z</time>
      </trkpt>
      <trkpt lat="44.32125" lon="4.76542">
        <ele>232</ele>
        <time>2014-11-13T15:04:18Z</time>
      </trkpt>
      <trkpt lat="44.32127" lon="4.76549">
        <ele>232</ele>
        <time>2014-11-13T15:04:24Z</time>
      </trkpt>
      <trkpt lat="44.3213" lon="4.76553">
        <ele>232</ele>
        <time>2014-11-13T15:04:28Z</time>
      </trkpt>
      <trkpt lat="44.32129" lon="4.7656">
        <ele>232</ele>
        <time>2014-11-13T15:04:30Z</time>
      </trkpt>
      <trkpt lat="44.32129" lon="4.76569">
        <ele>233</ele>
        <time>2014-11-13T15:04:38Z</time>
      </trkpt>
      <trkpt lat="44.32132" lon="4.76575">
        <ele>233</ele>
        <time>2014-11-13T15:04:45Z</time>
      </trkpt>
      <trkpt lat="44.32132" lon="4.76586">
        <ele>235</ele>
        <time>2014-11-13T15:04:53Z</time>
      </trkpt>
      <trkpt lat="44.3213" lon="4.76592">
        <ele>235</ele>
        <time>2014-11-13T15:04:58Z</time>
      </trkpt>
      <trkpt lat="44.32127" lon="4.76601">
        <ele>236</ele>
        <time>2014-11-13T15:05:05Z</time>
      </trkpt>
      <trkpt lat="44.32124" lon="4.76608">
        <ele>236</ele>
        <time>2014-11-13T15:05:12Z</time>
      </trkpt>
      <trkpt lat="44.32118" lon="4.76616">
        <ele>238</ele>
        <time>2014-11-13T15:05:22Z</time>
      </trkpt>
      <trkpt lat="44.32118" lon="4.76624">
        <ele>238</ele>
        <time>2014-11-13T15:05:30Z</time>
      </trkpt>
      <trkpt lat="44.32114" lon="4.76631">
        <ele>240</ele>
        <time>2014-11-13T15:05:38Z</time>
      </trkpt>
      <trkpt lat="44.3211" lon="4.76632">
        <ele>240</ele>
        <time>2014-11-13T15:05:44Z</time>
      </trkpt>
      <trkpt lat="44.32104" lon="4.76639">
        <ele>241</ele>
        <time>2014-11-13T15:05:53Z</time>
      </trkpt>
      <trkpt lat="44.32099" lon="4.7664">
        <ele>241</ele>
        <time>2014-11-13T15:05:57Z</time>
      </trkpt>
      <trkpt lat="44.32097" lon="4.76644">
        <ele>242</ele>
        <time>2014-11-13T15:06:01Z</time>
      </trkpt>
      <trkpt lat="44.32095" lon="4.76651">
        <ele>243</ele>
        <time>2014-11-13T15:06:07Z</time>
      </trkpt>
      <trkpt lat="44.32093" lon="4.76659">
        <ele>244</ele>
        <time>2014-11-13T15:06:16Z</time>
      </trkpt>
      <trkpt lat="44.32088" lon="4.76667">
        <ele>246</ele>
        <time>2014-11-13T15:06:24Z</time>
      </trkpt>
      <trkpt lat="44.32085" lon="4.76674">
        <ele>247</ele>
        <time>2014-11-13T15:06:31Z</time>
      </trkpt>
      <trkpt lat="44.32083" lon="4.7668">
        <ele>248</ele>
        <time>2014-11-13T15:06:35Z</time>
      </trkpt>
      <trkpt lat="44.32081" lon="4.76687">
        <ele>249</ele>
        <time>2014-11-13T15:06:43Z</time>
      </trkpt>
      <trkpt lat="44.32079" lon="4.7669">
        <ele>249</ele>
        <time>2014-11-13T15:06:48Z</time>
      </trkpt>
      <trkpt lat="44.32075" lon="4.76693">
        <ele>250</ele>
        <time>2014-11-13T15:06:53Z</time>
      </trkpt>
      <trkpt lat="44.32072" lon="4.767">
        <ele>250</ele>
        <time>2014-11-13T15:06:59Z</time>
      </trkpt>
      <trkpt lat="44.32072" lon="4.767">
        <ele>250</ele>
        <time>2014-11-13T15:07:18Z</time>
      </trkpt>
      <trkpt lat="44.32071" lon="4.76704">
        <ele>250</ele>
        <time>2014-11-13T15:08:15Z</time>
      </trkpt>
      <trkpt lat="44.32072" lon="4.76705">
        <ele>250</ele>
        <time>2014-11-13T15:08:29Z</time>
      </trkpt>
      <trkpt lat="44.32073" lon="4.76707">
        <ele>249</ele>
        <time>2014-11-13T15:08:49Z</time>
      </trkpt>
      <trkpt lat="44.32073" lon="4.76707">
        <ele>249</ele>
        <time>2014-11-13T15:08:57Z</time>
      </trkpt>
      <trkpt lat="44.32074" lon="4.76707">
        <ele>249</ele>
        <time>2014-11-13T15:09:10Z</time>
      </trkpt>
      <trkpt lat="44.32073" lon="4.76707">
        <ele>249</ele>
        <time>2014-11-13T15:09:48Z</time>
      </trkpt>
      <trkpt lat="44.32073" lon="4.76708">
        <ele>249</ele>
        <time>2014-11-13T15:10:39Z</time>
      </trkpt>
      <trkpt lat="44.32072" lon="4.76708">
        <ele>249</ele>
        <time>2014-11-13T15:10:49Z</time>
      </trkpt>
      <trkpt lat="44.32073" lon="4.76708">
        <ele>249</ele>
        <time>2014-11-13T15:11:11Z</time>
      </trkpt>
      <trkpt lat="44.32074" lon="4.76709">
        <ele>249</ele>
        <time>2014-11-13T15:11:23Z</time>
      </trkpt>
      <trkpt lat="44.32073" lon="4.76708">
        <ele>249</ele>
        <time>2014-11-13T15:11:34Z</time>
      </trkpt>
      <trkpt lat="44.32072" lon="4.76708">
        <ele>249</ele>
        <time>2014-11-13T15:11:40Z</time>
      </trkpt>
      <trkpt lat="44.32072" lon="4.76709">
        <ele>249</ele>
        <time>2014-11-13T15:11:49Z</time>
      </trkpt>
      <trkpt lat="44.32071" lon="4.76712">
        <ele>249</ele>
        <time>2014-11-13T15:12:09Z</time>
      </trkpt>
      <trkpt lat="44.32071" lon="4.76717">
        <ele>250</ele>
        <time>2014-11-13T15:12:15Z</time>
      </trkpt>
      <trkpt lat="44.32072" lon="4.76718">
        <ele>250</ele>
        <time>2014-11-13T15:12:16Z</time>
      </trkpt>
      <trkpt lat="44.32075" lon="4.76729">
        <ele>250</ele>
        <time>2014-11-13T15:12:25Z</time>
      </trkpt>
      <trkpt lat="44.32079" lon="4.76735">
        <ele>251</ele>
        <time>2014-11-13T15:12:33Z</time>
      </trkpt>
      <trkpt lat="44.32085" lon="4.76745">
        <ele>252</ele>
        <time>2014-11-13T15:12:44Z</time>
      </trkpt>
      <trkpt lat="44.32096" lon="4.76757">
        <ele>251</ele>
        <time>2014-11-13T15:12:59Z</time>
      </trkpt>
      <trkpt lat="44.32103" lon="4.76767">
        <ele>252</ele>
        <time>2014-11-13T15:13:08Z</time>
      </trkpt>
      <trkpt lat="44.32104" lon="4.76778">
        <ele>252</ele>
        <time>2014-11-13T15:13:15Z</time>
      </trkpt>
      <trkpt lat="44.32109" lon="4.76785">
        <ele>252</ele>
        <time>2014-11-13T15:13:21Z</time>
      </trkpt>
      <trkpt lat="44.32111" lon="4.76787">
        <ele>252</ele>
        <time>2014-11-13T15:13:24Z</time>
      </trkpt>
      <trkpt lat="44.32114" lon="4.76794">
        <ele>252</ele>
        <time>2014-11-13T15:13:31Z</time>
      </trkpt>
      <trkpt lat="44.32119" lon="4.76804">
        <ele>252</ele>
        <time>2014-11-13T15:13:39Z</time>
      </trkpt>
      <trkpt lat="44.32124" lon="4.76811">
        <ele>252</ele>
        <time>2014-11-13T15:13:46Z</time>
      </trkpt>
      <trkpt lat="44.32127" lon="4.76815">
        <ele>252</ele>
        <time>2014-11-13T15:13:52Z</time>
      </trkpt>
      <trkpt lat="44.32129" lon="4.76819">
        <ele>252</ele>
        <time>2014-11-13T15:13:57Z</time>
      </trkpt>
      <trkpt lat="44.32132" lon="4.76831">
        <ele>252</ele>
        <time>2014-11-13T15:14:04Z</time>
      </trkpt>
      <trkpt lat="44.32133" lon="4.76833">
        <ele>252</ele>
        <time>2014-11-13T15:14:06Z</time>
      </trkpt>
      <trkpt lat="44.32137" lon="4.76838">
        <ele>252</ele>
        <time>2014-11-13T15:14:13Z</time>
      </trkpt>
      <trkpt lat="44.32139" lon="4.76843">
        <ele>252</ele>
        <time>2014-11-13T15:14:19Z</time>
      </trkpt>
      <trkpt lat="44.3214" lon="4.76844">
        <ele>252</ele>
        <time>2014-11-13T15:14:24Z</time>
      </trkpt>
      <trkpt lat="44.32144" lon="4.76851">
        <ele>252</ele>
        <time>2014-11-13T15:14:29Z</time>
      </trkpt>
      <trkpt lat="44.32144" lon="4.76853">
        <ele>252</ele>
        <time>2014-11-13T15:14:34Z</time>
      </trkpt>
      <trkpt lat="44.32145" lon="4.76865">
        <ele>251</ele>
        <time>2014-11-13T15:14:41Z</time>
      </trkpt>
      <trkpt lat="44.32145" lon="4.76874">
        <ele>252</ele>
        <time>2014-11-13T15:14:47Z</time>
      </trkpt>
      <trkpt lat="44.32147" lon="4.7688">
        <ele>252</ele>
        <time>2014-11-13T15:14:51Z</time>
      </trkpt>
      <trkpt lat="44.32148" lon="4.76886">
        <ele>251</ele>
        <time>2014-11-13T15:14:56Z</time>
      </trkpt>
      <trkpt lat="44.32148" lon="4.76898">
        <ele>251</ele>
        <time>2014-11-13T15:15:05Z</time>
      </trkpt>
      <trkpt lat="44.32151" lon="4.76906">
        <ele>251</ele>
        <time>2014-11-13T15:15:11Z</time>
      </trkpt>
      <trkpt lat="44.32153" lon="4.76913">
        <ele>252</ele>
        <time>2014-11-13T15:15:16Z</time>
      </trkpt>
      <trkpt lat="44.32153" lon="4.76919">
        <ele>252</ele>
        <time>2014-11-13T15:15:20Z</time>
      </trkpt>
      <trkpt lat="44.32154" lon="4.76928">
        <ele>252</ele>
        <time>2014-11-13T15:15:26Z</time>
      </trkpt>
      <trkpt lat="44.32154" lon="4.76933">
        <ele>252</ele>
        <time>2014-11-13T15:15:30Z</time>
      </trkpt>
      <trkpt lat="44.32152" lon="4.76943">
        <ele>252</ele>
        <time>2014-11-13T15:15:39Z</time>
      </trkpt>
      <trkpt lat="44.32152" lon="4.76946">
        <ele>252</ele>
        <time>2014-11-13T15:15:41Z</time>
      </trkpt>
      <trkpt lat="44.32149" lon="4.76954">
        <ele>252</ele>
        <time>2014-11-13T15:15:50Z</time>
      </trkpt>
      <trkpt lat="44.32149" lon="4.7696">
        <ele>252</ele>
        <time>2014-11-13T15:15:58Z</time>
      </trkpt>
      <trkpt lat="44.32148" lon="4.76963">
        <ele>252</ele>
        <time>2014-11-13T15:16:12Z</time>
      </trkpt>
      <trkpt lat="44.32144" lon="4.76969">
        <ele>252</ele>
        <time>2014-11-13T15:16:24Z</time>
      </trkpt>
      <trkpt lat="44.32143" lon="4.76975">
        <ele>252</ele>
        <time>2014-11-13T15:16:31Z</time>
      </trkpt>
      <trkpt lat="44.32143" lon="4.76989">
        <ele>253</ele>
        <time>2014-11-13T15:16:39Z</time>
      </trkpt>
      <trkpt lat="44.32141" lon="4.77001">
        <ele>253</ele>
        <time>2014-11-13T15:16:47Z</time>
      </trkpt>
      <trkpt lat="44.32141" lon="4.77008">
        <ele>254</ele>
        <time>2014-11-13T15:16:55Z</time>
      </trkpt>
      <trkpt lat="44.3214" lon="4.77013">
        <ele>254</ele>
        <time>2014-11-13T15:16:59Z</time>
      </trkpt>
      <trkpt lat="44.32138" lon="4.77021">
        <ele>255</ele>
        <time>2014-11-13T15:17:07Z</time>
      </trkpt>
      <trkpt lat="44.32138" lon="4.77019">
        <ele>255</ele>
        <time>2014-11-13T15:17:15Z</time>
      </trkpt>
      <trkpt lat="44.32139" lon="4.77019">
        <ele>254</ele>
        <time>2014-11-13T15:17:33Z</time>
      </trkpt>
      <trkpt lat="44.32141" lon="4.77021">
        <ele>254</ele>
        <time>2014-11-13T15:17:43Z</time>
      </trkpt>
      <trkpt lat="44.32142" lon="4.7702">
        <ele>254</ele>
        <time>2014-11-13T15:17:49Z</time>
      </trkpt>
      <trkpt lat="44.32142" lon="4.77015">
        <ele>254</ele>
        <time>2014-11-13T15:17:59Z</time>
      </trkpt>
      <trkpt lat="44.32141" lon="4.77011">
        <ele>253</ele>
        <time>2014-11-13T15:18:03Z</time>
      </trkpt>
      <trkpt lat="44.32142" lon="4.77003">
        <ele>254</ele>
        <time>2014-11-13T15:18:11Z</time>
      </trkpt>
      <trkpt lat="44.32142" lon="4.76992">
        <ele>253</ele>
        <time>2014-11-13T15:18:18Z</time>
      </trkpt>
      <trkpt lat="44.32143" lon="4.76991">
        <ele>253</ele>
        <time>2014-11-13T15:18:23Z</time>
      </trkpt>
      <trkpt lat="44.32145" lon="4.7698">
        <ele>253</ele>
        <time>2014-11-13T15:18:34Z</time>
      </trkpt>
      <trkpt lat="44.32146" lon="4.76969">
        <ele>252</ele>
        <time>2014-11-13T15:18:45Z</time>
      </trkpt>
      <trkpt lat="44.32147" lon="4.76966">
        <ele>252</ele>
        <time>2014-11-13T15:18:50Z</time>
      </trkpt>
      <trkpt lat="44.32148" lon="4.76965">
        <ele>252</ele>
        <time>2014-11-13T15:19:00Z</time>
      </trkpt>
      <trkpt lat="44.3215" lon="4.76961">
        <ele>252</ele>
        <time>2014-11-13T15:19:10Z</time>
      </trkpt>
      <trkpt lat="44.3215" lon="4.76956">
        <ele>252</ele>
        <time>2014-11-13T15:19:17Z</time>
      </trkpt>
      <trkpt lat="44.32149" lon="4.76957">
        <ele>252</ele>
        <time>2014-11-13T15:19:25Z</time>
      </trkpt>
      <trkpt lat="44.32147" lon="4.76954">
        <ele>252</ele>
        <time>2014-11-13T15:19:30Z</time>
      </trkpt>
      <trkpt lat="44.32147" lon="4.76955">
        <ele>252</ele>
        <time>2014-11-13T15:19:37Z</time>
      </trkpt>
      <trkpt lat="44.32145" lon="4.76953">
        <ele>253</ele>
        <time>2014-11-13T15:19:39Z</time>
      </trkpt>
      <trkpt lat="44.3214" lon="4.7696">
        <ele>252</ele>
        <time>2014-11-13T15:19:43Z</time>
      </trkpt>
      <trkpt lat="44.32137" lon="4.7696">
        <ele>252</ele>
        <time>2014-11-13T15:19:46Z</time>
      </trkpt>
      <trkpt lat="44.32133" lon="4.76962">
        <ele>252</ele>
        <time>2014-11-13T15:19:52Z</time>
      </trkpt>
      <trkpt lat="44.32129" lon="4.76968">
        <ele>251</ele>
        <time>2014-11-13T15:19:56Z</time>
      </trkpt>
      <trkpt lat="44.32124" lon="4.7697">
        <ele>251</ele>
        <time>2014-11-13T15:20:02Z</time>
      </trkpt>
      <trkpt lat="44.32124" lon="4.7697">
        <ele>252</ele>
        <time>2014-11-13T15:20:03Z</time>
      </trkpt>
      <trkpt lat="44.32118" lon="4.76972">
        <ele>251</ele>
        <time>2014-11-13T15:20:09Z</time>
      </trkpt>
      <trkpt lat="44.32113" lon="4.76983">
        <ele>250</ele>
        <time>2014-11-13T15:20:16Z</time>
      </trkpt>
      <trkpt lat="44.32112" lon="4.76985">
        <ele>250</ele>
        <time>2014-11-13T15:20:17Z</time>
      </trkpt>
      <trkpt lat="44.32106" lon="4.76988">
        <ele>251</ele>
        <time>2014-11-13T15:20:24Z</time>
      </trkpt>
      <trkpt lat="44.321" lon="4.76989">
        <ele>250</ele>
        <time>2014-11-13T15:20:31Z</time>
      </trkpt>
      <trkpt lat="44.32095" lon="4.76988">
        <ele>250</ele>
        <time>2014-11-13T15:20:39Z</time>
      </trkpt>
      <trkpt lat="44.3209" lon="4.7699">
        <ele>250</ele>
        <time>2014-11-13T15:20:43Z</time>
      </trkpt>
      <trkpt lat="44.32083" lon="4.7699">
        <ele>250</ele>
        <time>2014-11-13T15:20:49Z</time>
      </trkpt>
      <trkpt lat="44.32076" lon="4.7699">
        <ele>250</ele>
        <time>2014-11-13T15:20:57Z</time>
      </trkpt>
      <trkpt lat="44.32069" lon="4.76992">
        <ele>250</ele>
        <time>2014-11-13T15:21:03Z</time>
      </trkpt>
      <trkpt lat="44.32062" lon="4.7699">
        <ele>250</ele>
        <time>2014-11-13T15:21:09Z</time>
      </trkpt>
      <trkpt lat="44.32054" lon="4.76993">
        <ele>250</ele>
        <time>2014-11-13T15:21:17Z</time>
      </trkpt>
      <trkpt lat="44.3205" lon="4.76992">
        <ele>250</ele>
        <time>2014-11-13T15:21:23Z</time>
      </trkpt>
      <trkpt lat="44.32047" lon="4.76992">
        <ele>250</ele>
        <time>2014-11-13T15:21:25Z</time>
      </trkpt>
      <trkpt lat="44.32032" lon="4.76996">
        <ele>250</ele>
        <time>2014-11-13T15:21:39Z</time>
      </trkpt>
      <trkpt lat="44.32024" lon="4.76997">
        <ele>250</ele>
        <time>2014-11-13T15:21:45Z</time>
      </trkpt>
      <trkpt lat="44.32016" lon="4.76998">
        <ele>250</ele>
        <time>2014-11-13T15:21:51Z</time>
      </trkpt>
      <trkpt lat="44.32009" lon="4.76997">
        <ele>250</ele>
        <time>2014-11-13T15:22:00Z</time>
      </trkpt>
      <trkpt lat="44.32008" lon="4.76997">
        <ele>249</ele>
        <time>2014-11-13T15:22:01Z</time>
      </trkpt>
      <trkpt lat="44.32002" lon="4.76993">
        <ele>249</ele>
        <time>2014-11-13T15:22:11Z</time>
      </trkpt>
      <trkpt lat="44.31998" lon="4.76993">
        <ele>249</ele>
        <time>2014-11-13T15:22:14Z</time>
      </trkpt>
      <trkpt lat="44.31995" lon="4.7699">
        <ele>249</ele>
        <time>2014-11-13T15:22:19Z</time>
      </trkpt>
      <trkpt lat="44.3199" lon="4.76987">
        <ele>249</ele>
        <time>2014-11-13T15:22:26Z</time>
      </trkpt>
      <trkpt lat="44.31987" lon="4.76988">
        <ele>249</ele>
        <time>2014-11-13T15:22:34Z</time>
      </trkpt>
      <trkpt lat="44.31982" lon="4.76987">
        <ele>248</ele>
        <time>2014-11-13T15:22:41Z</time>
      </trkpt>
      <trkpt lat="44.31981" lon="4.76987">
        <ele>248</ele>
        <time>2014-11-13T15:22:42Z</time>
      </trkpt>
      <trkpt lat="44.31974" lon="4.76991">
        <ele>248</ele>
        <time>2014-11-13T15:22:47Z</time>
      </trkpt>
      <trkpt lat="44.3197" lon="4.76993">
        <ele>248</ele>
        <time>2014-11-13T15:22:53Z</time>
      </trkpt>
      <trkpt lat="44.31961" lon="4.76994">
        <ele>248</ele>
        <time>2014-11-13T15:23:01Z</time>
      </trkpt>
      <trkpt lat="44.3195" lon="4.76995">
        <ele>248</ele>
        <time>2014-11-13T15:23:09Z</time>
      </trkpt>
      <trkpt lat="44.31942" lon="4.76997">
        <ele>248</ele>
        <time>2014-11-13T15:23:13Z</time>
      </trkpt>
      <trkpt lat="44.31932" lon="4.77001">
        <ele>248</ele>
        <time>2014-11-13T15:23:25Z</time>
      </trkpt>
      <trkpt lat="44.31929" lon="4.77005">
        <ele>248</ele>
        <time>2014-11-13T15:23:30Z</time>
      </trkpt>
      <trkpt lat="44.31925" lon="4.77005">
        <ele>248</ele>
        <time>2014-11-13T15:23:33Z</time>
      </trkpt>
      <trkpt lat="44.3192" lon="4.7701">
        <ele>248</ele>
        <time>2014-11-13T15:23:39Z</time>
      </trkpt>
      <trkpt lat="44.31919" lon="4.77014">
        <ele>249</ele>
        <time>2014-11-13T15:23:42Z</time>
      </trkpt>
      <trkpt lat="44.31916" lon="4.77019">
        <ele>248</ele>
        <time>2014-11-13T15:23:48Z</time>
      </trkpt>
      <trkpt lat="44.31915" lon="4.7702">
        <ele>249</ele>
        <time>2014-11-13T15:23:50Z</time>
      </trkpt>
      <trkpt lat="44.31909" lon="4.77025">
        <ele>248</ele>
        <time>2014-11-13T15:23:57Z</time>
      </trkpt>
      <trkpt lat="44.31905" lon="4.7703">
        <ele>248</ele>
        <time>2014-11-13T15:24:04Z</time>
      </trkpt>
      <trkpt lat="44.31902" lon="4.77036">
        <ele>248</ele>
        <time>2014-11-13T15:24:07Z</time>
      </trkpt>
      <trkpt lat="44.31901" lon="4.77042">
        <ele>249</ele>
        <time>2014-11-13T15:24:11Z</time>
      </trkpt>
      <trkpt lat="44.31898" lon="4.77046">
        <ele>249</ele>
        <time>2014-11-13T15:24:18Z</time>
      </trkpt>
      <trkpt lat="44.31892" lon="4.77054">
        <ele>249</ele>
        <time>2014-11-13T15:24:22Z</time>
      </trkpt>
      <trkpt lat="44.31891" lon="4.77059">
        <ele>249</ele>
        <time>2014-11-13T15:24:27Z</time>
      </trkpt>
      <trkpt lat="44.31884" lon="4.77068">
        <ele>249</ele>
        <time>2014-11-13T15:24:37Z</time>
      </trkpt>
      <trkpt lat="44.31876" lon="4.77073">
        <ele>248</ele>
        <time>2014-11-13T15:24:45Z</time>
      </trkpt>
      <trkpt lat="44.31875" lon="4.77082">
        <ele>249</ele>
        <time>2014-11-13T15:24:50Z</time>
      </trkpt>
      <trkpt lat="44.31873" lon="4.77086">
        <ele>249</ele>
        <time>2014-11-13T15:24:54Z</time>
      </trkpt>
      <trkpt lat="44.31869" lon="4.77091">
        <ele>249</ele>
        <time>2014-11-13T15:25:01Z</time>
      </trkpt>
      <trkpt lat="44.31868" lon="4.77092">
        <ele>249</ele>
        <time>2014-11-13T15:25:02Z</time>
      </trkpt>
      <trkpt lat="44.31867" lon="4.77094">
        <ele>249</ele>
        <time>2014-11-13T15:25:04Z</time>
      </trkpt>
      <trkpt lat="44.31863" lon="4.77094">
        <ele>249</ele>
        <time>2014-11-13T15:25:10Z</time>
      </trkpt>
      <trkpt lat="44.31858" lon="4.77099">
        <ele>249</ele>
        <time>2014-11-13T15:25:19Z</time>
      </trkpt>
      <trkpt lat="44.31854" lon="4.771">
        <ele>249</ele>
        <time>2014-11-13T15:25:22Z</time>
      </trkpt>
      <trkpt lat="44.31848" lon="4.77101">
        <ele>249</ele>
        <time>2014-11-13T15:25:28Z</time>
      </trkpt>
      <trkpt lat="44.31844" lon="4.77101">
        <ele>249</ele>
        <time>2014-11-13T15:25:30Z</time>
      </trkpt>
      <trkpt lat="44.31835" lon="4.77101">
        <ele>249</ele>
        <time>2014-11-13T15:25:37Z</time>
      </trkpt>
      <trkpt lat="44.3183" lon="4.77102">
        <ele>249</ele>
        <time>2014-11-13T15:25:43Z</time>
      </trkpt>
      <trkpt lat="44.31825" lon="4.771">
        <ele>249</ele>
        <time>2014-11-13T15:25:50Z</time>
      </trkpt>
      <trkpt lat="44.31817" lon="4.77101">
        <ele>248</ele>
        <time>2014-11-13T15:25:59Z</time>
      </trkpt>
      <trkpt lat="44.31811" lon="4.77103">
        <ele>248</ele>
        <time>2014-11-13T15:26:06Z</time>
      </trkpt>
      <trkpt lat="44.318" lon="4.77103">
        <ele>247</ele>
        <time>2014-11-13T15:26:13Z</time>
      </trkpt>
      <trkpt lat="44.31794" lon="4.77102">
        <ele>247</ele>
        <time>2014-11-13T15:26:18Z</time>
      </trkpt>
      <trkpt lat="44.31792" lon="4.77101">
        <ele>246</ele>
        <time>2014-11-13T15:26:21Z</time>
      </trkpt>
      <trkpt lat="44.31787" lon="4.77102">
        <ele>246</ele>
        <time>2014-11-13T15:26:25Z</time>
      </trkpt>
      <trkpt lat="44.3178" lon="4.77102">
        <ele>246</ele>
        <time>2014-11-13T15:26:32Z</time>
      </trkpt>
      <trkpt lat="44.3178" lon="4.77102">
        <ele>246</ele>
        <time>2014-11-13T15:26:33Z</time>
      </trkpt>
      <trkpt lat="44.31778" lon="4.77101">
        <ele>246</ele>
        <time>2014-11-13T15:26:35Z</time>
      </trkpt>
      <trkpt lat="44.31774" lon="4.77097">
        <ele>246</ele>
        <time>2014-11-13T15:26:39Z</time>
      </trkpt>
      <trkpt lat="44.31769" lon="4.77099">
        <ele>246</ele>
        <time>2014-11-13T15:26:44Z</time>
      </trkpt>
      <trkpt lat="44.31766" lon="4.771">
        <ele>246</ele>
        <time>2014-11-13T15:26:47Z</time>
      </trkpt>
      <trkpt lat="44.31757" lon="4.77108">
        <ele>246</ele>
        <time>2014-11-13T15:26:59Z</time>
      </trkpt>
      <trkpt lat="44.31748" lon="4.77112">
        <ele>246</ele>
        <time>2014-11-13T15:27:05Z</time>
      </trkpt>
      <trkpt lat="44.31744" lon="4.77115">
        <ele>247</ele>
        <time>2014-11-13T15:27:10Z</time>
      </trkpt>
      <trkpt lat="44.31742" lon="4.77117">
        <ele>247</ele>
        <time>2014-11-13T15:27:15Z</time>
      </trkpt>
      <trkpt lat="44.31735" lon="4.77123">
        <ele>247</ele>
        <time>2014-11-13T15:27:23Z</time>
      </trkpt>
      <trkpt lat="44.31729" lon="4.7713">
        <ele>247</ele>
        <time>2014-11-13T15:27:30Z</time>
      </trkpt>
      <trkpt lat="44.31725" lon="4.77132">
        <ele>247</ele>
        <time>2014-11-13T15:27:38Z</time>
      </trkpt>
      <trkpt lat="44.31728" lon="4.77133">
        <ele>248</ele>
        <time>2014-11-13T15:27:56Z</time>
      </trkpt>
      <trkpt lat="44.31729" lon="4.77133">
        <ele>248</ele>
        <time>2014-11-13T15:28:03Z</time>
      </trkpt>
      <trkpt lat="44.3173" lon="4.77134">
        <ele>248</ele>
        <time>2014-11-13T15:28:11Z</time>
      </trkpt>
      <trkpt lat="44.31737" lon="4.77136">
        <ele>250</ele>
        <time>2014-11-13T15:28:21Z</time>
      </trkpt>
      <trkpt lat="44.31742" lon="4.77144">
        <ele>251</ele>
        <time>2014-11-13T15:28:30Z</time>
      </trkpt>
      <trkpt lat="44.31743" lon="4.77147">
        <ele>252</ele>
        <time>2014-11-13T15:28:33Z</time>
      </trkpt>
      <trkpt lat="44.31746" lon="4.77151">
        <ele>253</ele>
        <time>2014-11-13T15:28:41Z</time>
      </trkpt>
      <trkpt lat="44.31746" lon="4.7715">
        <ele>252</ele>
        <time>2014-11-13T15:29:04Z</time>
      </trkpt>
      <trkpt lat="44.31748" lon="4.77151">
        <ele>253</ele>
        <time>2014-11-13T15:29:11Z</time>
      </trkpt>
      <trkpt lat="44.31748" lon="4.7715">
        <ele>253</ele>
        <time>2014-11-13T15:29:27Z</time>
      </trkpt>
      <trkpt lat="44.3175" lon="4.77149">
        <ele>253</ele>
        <time>2014-11-13T15:29:38Z</time>
      </trkpt>
      <trkpt lat="44.3175" lon="4.7715">
        <ele>253</ele>
        <time>2014-11-13T15:30:08Z</time>
      </trkpt>
      <trkpt lat="44.31758" lon="4.77142">
        <ele>255</ele>
        <time>2014-11-13T15:30:19Z</time>
      </trkpt>
      <trkpt lat="44.31759" lon="4.77141">
        <ele>255</ele>
        <time>2014-11-13T15:30:23Z</time>
      </trkpt>
      <trkpt lat="44.31765" lon="4.77136">
        <ele>255</ele>
        <time>2014-11-13T15:30:33Z</time>
      </trkpt>
      <trkpt lat="44.3177" lon="4.77132">
        <ele>256</ele>
        <time>2014-11-13T15:30:50Z</time>
      </trkpt>
      <trkpt lat="44.31778" lon="4.77131">
        <ele>256</ele>
        <time>2014-11-13T15:30:57Z</time>
      </trkpt>
      <trkpt lat="44.31783" lon="4.7713">
        <ele>257</ele>
        <time>2014-11-13T15:31:02Z</time>
      </trkpt>
      <trkpt lat="44.31789" lon="4.77132">
        <ele>258</ele>
        <time>2014-11-13T15:31:08Z</time>
      </trkpt>
      <trkpt lat="44.31792" lon="4.77139">
        <ele>258</ele>
        <time>2014-11-13T15:31:18Z</time>
      </trkpt>
      <trkpt lat="44.31789" lon="4.77142">
        <ele>257</ele>
        <time>2014-11-13T15:31:28Z</time>
      </trkpt>
      <trkpt lat="44.31785" lon="4.77142">
        <ele>256</ele>
        <time>2014-11-13T15:31:34Z</time>
      </trkpt>
      <trkpt lat="44.31785" lon="4.77143">
        <ele>256</ele>
        <time>2014-11-13T15:31:56Z</time>
      </trkpt>
      <trkpt lat="44.31775" lon="4.77148">
        <ele>255</ele>
        <time>2014-11-13T15:32:07Z</time>
      </trkpt>
      <trkpt lat="44.3177" lon="4.77153">
        <ele>254</ele>
        <time>2014-11-13T15:32:15Z</time>
      </trkpt>
      <trkpt lat="44.31766" lon="4.77156">
        <ele>253</ele>
        <time>2014-11-13T15:32:22Z</time>
      </trkpt>
      <trkpt lat="44.31764" lon="4.77157">
        <ele>253</ele>
        <time>2014-11-13T15:32:25Z</time>
      </trkpt>
      <trkpt lat="44.31757" lon="4.77162">
        <ele>252</ele>
        <time>2014-11-13T15:32:32Z</time>
      </trkpt>
      <trkpt lat="44.31753" lon="4.77168">
        <ele>252</ele>
        <time>2014-11-13T15:32:40Z</time>
      </trkpt>
      <trkpt lat="44.31753" lon="4.77177">
        <ele>251</ele>
        <time>2014-11-13T15:32:46Z</time>
      </trkpt>
      <trkpt lat="44.31751" lon="4.7719">
        <ele>251</ele>
        <time>2014-11-13T15:32:55Z</time>
      </trkpt>
      <trkpt lat="44.31752" lon="4.77204">
        <ele>251</ele>
        <time>2014-11-13T15:33:05Z</time>
      </trkpt>
      <trkpt lat="44.31755" lon="4.77218">
        <ele>250</ele>
        <time>2014-11-13T15:33:15Z</time>
      </trkpt>
      <trkpt lat="44.31756" lon="4.7723">
        <ele>251</ele>
        <time>2014-11-13T15:33:23Z</time>
      </trkpt>
      <trkpt lat="44.31756" lon="4.77232">
        <ele>251</ele>
        <time>2014-11-13T15:33:24Z</time>
      </trkpt>
      <trkpt lat="44.31758" lon="4.77245">
        <ele>251</ele>
        <time>2014-11-13T15:33:33Z</time>
      </trkpt>
      <trkpt lat="44.31757" lon="4.7726">
        <ele>251</ele>
        <time>2014-11-13T15:33:42Z</time>
      </trkpt>
      <trkpt lat="44.31759" lon="4.77266">
        <ele>250</ele>
        <time>2014-11-13T15:33:47Z</time>
      </trkpt>
      <trkpt lat="44.3176" lon="4.77277">
        <ele>250</ele>
        <time>2014-11-13T15:33:55Z</time>
      </trkpt>
      <trkpt lat="44.31764" lon="4.77294">
        <ele>249</ele>
        <time>2014-11-13T15:34:07Z</time>
      </trkpt>
      <trkpt lat="44.31766" lon="4.77306">
        <ele>249</ele>
        <time>2014-11-13T15:34:16Z</time>
      </trkpt>
      <trkpt lat="44.31769" lon="4.77315">
        <ele>248</ele>
        <time>2014-11-13T15:34:23Z</time>
      </trkpt>
      <trkpt lat="44.31769" lon="4.77324">
        <ele>248</ele>
        <time>2014-11-13T15:34:29Z</time>
      </trkpt>
      <trkpt lat="44.31777" lon="4.77334">
        <ele>248</ele>
        <time>2014-11-13T15:34:38Z</time>
      </trkpt>
      <trkpt lat="44.3178" lon="4.77338">
        <ele>248</ele>
        <time>2014-11-13T15:34:43Z</time>
      </trkpt>
      <trkpt lat="44.3178" lon="4.77344">
        <ele>248</ele>
        <time>2014-11-13T15:34:47Z</time>
      </trkpt>
      <trkpt lat="44.31781" lon="4.77356">
        <ele>248</ele>
        <time>2014-11-13T15:34:55Z</time>
      </trkpt>
      <trkpt lat="44.31778" lon="4.77376">
        <ele>247</ele>
        <time>2014-11-13T15:35:08Z</time>
      </trkpt>
      <trkpt lat="44.31778" lon="4.7738">
        <ele>247</ele>
        <time>2014-11-13T15:35:10Z</time>
      </trkpt>
      <trkpt lat="44.31781" lon="4.77387">
        <ele>247</ele>
        <time>2014-11-13T15:35:16Z</time>
      </trkpt>
      <trkpt lat="44.31784" lon="4.77406">
        <ele>247</ele>
        <time>2014-11-13T15:35:28Z</time>
      </trkpt>
      <trkpt lat="44.31785" lon="4.77421">
        <ele>246</ele>
        <time>2014-11-13T15:35:37Z</time>
      </trkpt>
      <trkpt lat="44.31786" lon="4.7743">
        <ele>246</ele>
        <time>2014-11-13T15:35:44Z</time>
      </trkpt>
      <trkpt lat="44.31786" lon="4.77437">
        <ele>246</ele>
        <time>2014-11-13T15:35:48Z</time>
      </trkpt>
      <trkpt lat="44.31784" lon="4.77451">
        <ele>246</ele>
        <time>2014-11-13T15:35:58Z</time>
      </trkpt>
      <trkpt lat="44.31783" lon="4.77454">
        <ele>246</ele>
        <time>2014-11-13T15:36:00Z</time>
      </trkpt>
      <trkpt lat="44.31777" lon="4.77465">
        <ele>246</ele>
        <time>2014-11-13T15:36:10Z</time>
      </trkpt>
      <trkpt lat="44.31783" lon="4.77478">
        <ele>247</ele>
        <time>2014-11-13T15:36:20Z</time>
      </trkpt>
      <trkpt lat="44.31783" lon="4.77486">
        <ele>247</ele>
        <time>2014-11-13T15:36:28Z</time>
      </trkpt>
      <trkpt lat="44.31787" lon="4.77492">
        <ele>247</ele>
        <time>2014-11-13T15:36:36Z</time>
      </trkpt>
      <trkpt lat="44.31787" lon="4.77491">
        <ele>247</ele>
        <time>2014-11-13T15:36:37Z</time>
      </trkpt>
      <trkpt lat="44.31784" lon="4.77486">
        <ele>247</ele>
        <time>2014-11-13T15:36:46Z</time>
      </trkpt>
      <trkpt lat="44.31787" lon="4.77492">
        <ele>247</ele>
        <time>2014-11-13T15:36:56Z</time>
      </trkpt>
      <trkpt lat="44.31788" lon="4.77497">
        <ele>246</ele>
        <time>2014-11-13T15:37:05Z</time>
      </trkpt>
      <trkpt lat="44.31788" lon="4.77497">
        <ele>247</ele>
        <time>2014-11-13T15:37:25Z</time>
      </trkpt>
      <trkpt lat="44.31789" lon="4.77498">
        <ele>246</ele>
        <time>2014-11-13T15:37:28Z</time>
      </trkpt>
      <trkpt lat="44.31792" lon="4.77512">
        <ele>246</ele>
        <time>2014-11-13T15:37:38Z</time>
      </trkpt>
      <trkpt lat="44.31793" lon="4.77519">
        <ele>246</ele>
        <time>2014-11-13T15:37:43Z</time>
      </trkpt>
      <trkpt lat="44.31797" lon="4.77524">
        <ele>246</ele>
        <time>2014-11-13T15:37:48Z</time>
      </trkpt>
      <trkpt lat="44.31801" lon="4.77527">
        <ele>246</ele>
        <time>2014-11-13T15:37:56Z</time>
      </trkpt>
      <trkpt lat="44.31802" lon="4.77527">
        <ele>246</ele>
        <time>2014-11-13T15:37:57Z</time>
      </trkpt>
      <trkpt lat="44.31811" lon="4.77529">
        <ele>246</ele>
        <time>2014-11-13T15:38:05Z</time>
      </trkpt>
      <trkpt lat="44.31814" lon="4.77534">
        <ele>246</ele>
        <time>2014-11-13T15:38:10Z</time>
      </trkpt>
      <trkpt lat="44.31818" lon="4.7755">
        <ele>245</ele>
        <time>2014-11-13T15:38:21Z</time>
      </trkpt>
      <trkpt lat="44.31818" lon="4.77551">
        <ele>245</ele>
        <time>2014-11-13T15:38:22Z</time>
      </trkpt>
      <trkpt lat="44.3182" lon="4.77559">
        <ele>244</ele>
        <time>2014-11-13T15:38:29Z</time>
      </trkpt>
      <trkpt lat="44.31822" lon="4.77567">
        <ele>243</ele>
        <time>2014-11-13T15:38:34Z</time>
      </trkpt>
      <trkpt lat="44.31822" lon="4.77568">
        <ele>243</ele>
        <time>2014-11-13T15:38:36Z</time>
      </trkpt>
      <trkpt lat="44.31822" lon="4.7757">
        <ele>243</ele>
        <time>2014-11-13T15:38:38Z</time>
      </trkpt>
      <trkpt lat="44.31821" lon="4.77573">
        <ele>243</ele>
        <time>2014-11-13T15:38:40Z</time>
      </trkpt>
      <trkpt lat="44.31821" lon="4.77575">
        <ele>243</ele>
        <time>2014-11-13T15:38:42Z</time>
      </trkpt>
      <trkpt lat="44.31817" lon="4.77589">
        <ele>241</ele>
        <time>2014-11-13T15:38:51Z</time>
      </trkpt>
      <trkpt lat="44.31818" lon="4.77594">
        <ele>242</ele>
        <time>2014-11-13T15:38:54Z</time>
      </trkpt>
      <trkpt lat="44.3182" lon="4.77609">
        <ele>241</ele>
        <time>2014-11-13T15:39:04Z</time>
      </trkpt>
      <trkpt lat="44.3182" lon="4.77613">
        <ele>240</ele>
        <time>2014-11-13T15:39:07Z</time>
      </trkpt>
      <trkpt lat="44.3182" lon="4.77616">
        <ele>240</ele>
        <time>2014-11-13T15:39:09Z</time>
      </trkpt>
      <trkpt lat="44.31821" lon="4.77625">
        <ele>239</ele>
        <time>2014-11-13T15:39:17Z</time>
      </trkpt>
      <trkpt lat="44.31824" lon="4.7763">
        <ele>239</ele>
        <time>2014-11-13T15:39:22Z</time>
      </trkpt>
      <trkpt lat="44.31828" lon="4.77639">
        <ele>237</ele>
        <time>2014-11-13T15:39:29Z</time>
      </trkpt>
      <trkpt lat="44.31831" lon="4.77642">
        <ele>237</ele>
        <time>2014-11-13T15:39:32Z</time>
      </trkpt>
      <trkpt lat="44.31835" lon="4.77645">
        <ele>237</ele>
        <time>2014-11-13T15:39:35Z</time>
      </trkpt>
      <trkpt lat="44.31838" lon="4.77648">
        <ele>236</ele>
        <time>2014-11-13T15:39:41Z</time>
      </trkpt>
      <trkpt lat="44.31839" lon="4.77651">
        <ele>236</ele>
        <time>2014-11-13T15:39:43Z</time>
      </trkpt>
      <trkpt lat="44.31844" lon="4.77656">
        <ele>235</ele>
        <time>2014-11-13T15:39:49Z</time>
      </trkpt>
      <trkpt lat="44.3185" lon="4.7766">
        <ele>234</ele>
        <time>2014-11-13T15:39:55Z</time>
      </trkpt>
      <trkpt lat="44.31852" lon="4.77664">
        <ele>235</ele>
        <time>2014-11-13T15:39:57Z</time>
      </trkpt>
      <trkpt lat="44.31854" lon="4.77671">
        <ele>234</ele>
        <time>2014-11-13T15:40:04Z</time>
      </trkpt>
      <trkpt lat="44.31854" lon="4.77673">
        <ele>233</ele>
        <time>2014-11-13T15:40:06Z</time>
      </trkpt>
      <trkpt lat="44.31858" lon="4.77683">
        <ele>233</ele>
        <time>2014-11-13T15:40:12Z</time>
      </trkpt>
      <trkpt lat="44.31859" lon="4.77685">
        <ele>232</ele>
        <time>2014-11-13T15:40:15Z</time>
      </trkpt>
      <trkpt lat="44.31859" lon="4.77692">
        <ele>233</ele>
        <time>2014-11-13T15:40:22Z</time>
      </trkpt>
      <trkpt lat="44.31859" lon="4.77692">
        <ele>233</ele>
        <time>2014-11-13T15:40:25Z</time>
      </trkpt>
      <trkpt lat="44.31859" lon="4.77699">
        <ele>232</ele>
        <time>2014-11-13T15:40:29Z</time>
      </trkpt>
      <trkpt lat="44.31858" lon="4.77712">
        <ele>231</ele>
        <time>2014-11-13T15:40:36Z</time>
      </trkpt>
      <trkpt lat="44.31858" lon="4.7772">
        <ele>231</ele>
        <time>2014-11-13T15:40:42Z</time>
      </trkpt>
      <trkpt lat="44.31857" lon="4.77726">
        <ele>231</ele>
        <time>2014-11-13T15:40:46Z</time>
      </trkpt>
      <trkpt lat="44.31857" lon="4.77735">
        <ele>230</ele>
        <time>2014-11-13T15:40:52Z</time>
      </trkpt>
      <trkpt lat="44.31855" lon="4.77745">
        <ele>230</ele>
        <time>2014-11-13T15:40:57Z</time>
      </trkpt>
      <trkpt lat="44.31853" lon="4.77751">
        <ele>229</ele>
        <time>2014-11-13T15:41:03Z</time>
      </trkpt>
      <trkpt lat="44.31848" lon="4.77757">
        <ele>229</ele>
        <time>2014-11-13T15:41:12Z</time>
      </trkpt>
      <trkpt lat="44.31845" lon="4.77756">
        <ele>229</ele>
        <time>2014-11-13T15:41:18Z</time>
      </trkpt>
      <trkpt lat="44.31845" lon="4.77756">
        <ele>229</ele>
        <time>2014-11-13T15:41:38Z</time>
      </trkpt>
      <trkpt lat="44.31844" lon="4.77755">
        <ele>229</ele>
        <time>2014-11-13T15:41:57Z</time>
      </trkpt>
      <trkpt lat="44.31841" lon="4.77754">
        <ele>230</ele>
        <time>2014-11-13T15:42:03Z</time>
      </trkpt>
      <trkpt lat="44.31838" lon="4.77755">
        <ele>229</ele>
        <time>2014-11-13T15:42:10Z</time>
      </trkpt>
      <trkpt lat="44.31837" lon="4.77755">
        <ele>229</ele>
        <time>2014-11-13T15:42:11Z</time>
      </trkpt>
      <trkpt lat="44.3183" lon="4.77753">
        <ele>230</ele>
        <time>2014-11-13T15:42:16Z</time>
      </trkpt>
      <trkpt lat="44.31819" lon="4.77747">
        <ele>230</ele>
        <time>2014-11-13T15:42:26Z</time>
      </trkpt>
      <trkpt lat="44.31814" lon="4.77746">
        <ele>230</ele>
        <time>2014-11-13T15:42:31Z</time>
      </trkpt>
      <trkpt lat="44.31803" lon="4.77738">
        <ele>231</ele>
        <time>2014-11-13T15:42:41Z</time>
      </trkpt>
      <trkpt lat="44.31797" lon="4.77727">
        <ele>231</ele>
        <time>2014-11-13T15:42:50Z</time>
      </trkpt>
      <trkpt lat="44.31788" lon="4.77721">
        <ele>232</ele>
        <time>2014-11-13T15:42:59Z</time>
      </trkpt>
      <trkpt lat="44.31782" lon="4.77719">
        <ele>232</ele>
        <time>2014-11-13T15:43:04Z</time>
      </trkpt>
      <trkpt lat="44.3178" lon="4.77717">
        <ele>232</ele>
        <time>2014-11-13T15:43:07Z</time>
      </trkpt>
      <trkpt lat="44.31776" lon="4.77713">
        <ele>232</ele>
        <time>2014-11-13T15:43:10Z</time>
      </trkpt>
      <trkpt lat="44.31772" lon="4.77713">
        <ele>232</ele>
        <time>2014-11-13T15:43:16Z</time>
      </trkpt>
      <trkpt lat="44.31769" lon="4.77712">
        <ele>232</ele>
        <time>2014-11-13T15:43:18Z</time>
      </trkpt>
      <trkpt lat="44.31765" lon="4.7771">
        <ele>232</ele>
        <time>2014-11-13T15:43:24Z</time>
      </trkpt>
      <trkpt lat="44.31764" lon="4.77709">
        <ele>232</ele>
        <time>2014-11-13T15:43:26Z</time>
      </trkpt>
      <trkpt lat="44.31758" lon="4.77705">
        <ele>232</ele>
        <time>2014-11-13T15:43:32Z</time>
      </trkpt>
      <trkpt lat="44.31752" lon="4.77701">
        <ele>233</ele>
        <time>2014-11-13T15:43:39Z</time>
      </trkpt>
      <trkpt lat="44.31747" lon="4.77699">
        <ele>233</ele>
        <time>2014-11-13T15:43:43Z</time>
      </trkpt>
      <trkpt lat="44.31743" lon="4.77695">
        <ele>233</ele>
        <time>2014-11-13T15:43:48Z</time>
      </trkpt>
      <trkpt lat="44.3174" lon="4.77692">
        <ele>233</ele>
        <time>2014-11-13T15:43:51Z</time>
      </trkpt>
      <trkpt lat="44.31738" lon="4.77689">
        <ele>233</ele>
        <time>2014-11-13T15:43:55Z</time>
      </trkpt>
      <trkpt lat="44.31732" lon="4.7768">
        <ele>234</ele>
        <time>2014-11-13T15:44:03Z</time>
      </trkpt>
      <trkpt lat="44.31732" lon="4.77679">
        <ele>234</ele>
        <time>2014-11-13T15:44:04Z</time>
      </trkpt>
      <trkpt lat="44.31725" lon="4.77666">
        <ele>235</ele>
        <time>2014-11-13T15:44:14Z</time>
      </trkpt>
      <trkpt lat="44.31716" lon="4.77658">
        <ele>234</ele>
        <time>2014-11-13T15:44:25Z</time>
      </trkpt>
      <trkpt lat="44.3171" lon="4.77657">
        <ele>234</ele>
        <time>2014-11-13T15:44:32Z</time>
      </trkpt>
      <trkpt lat="44.31704" lon="4.77651">
        <ele>235</ele>
        <time>2014-11-13T15:44:39Z</time>
      </trkpt>
      <trkpt lat="44.31694" lon="4.77638">
        <ele>235</ele>
        <time>2014-11-13T15:44:51Z</time>
      </trkpt>
      <trkpt lat="44.31693" lon="4.77636">
        <ele>235</ele>
        <time>2014-11-13T15:44:53Z</time>
      </trkpt>
      <trkpt lat="44.31692" lon="4.77628">
        <ele>236</ele>
        <time>2014-11-13T15:44:59Z</time>
      </trkpt>
      <trkpt lat="44.31685" lon="4.77618">
        <ele>236</ele>
        <time>2014-11-13T15:45:08Z</time>
      </trkpt>
      <trkpt lat="44.31679" lon="4.77605">
        <ele>237</ele>
        <time>2014-11-13T15:45:19Z</time>
      </trkpt>
      <trkpt lat="44.31677" lon="4.77601">
        <ele>237</ele>
        <time>2014-11-13T15:45:23Z</time>
      </trkpt>
      <trkpt lat="44.31667" lon="4.77594">
        <ele>237</ele>
        <time>2014-11-13T15:45:32Z</time>
      </trkpt>
      <trkpt lat="44.31665" lon="4.77594">
        <ele>237</ele>
        <time>2014-11-13T15:45:33Z</time>
      </trkpt>
      <trkpt lat="44.31657" lon="4.77586">
        <ele>237</ele>
        <time>2014-11-13T15:45:42Z</time>
      </trkpt>
      <trkpt lat="44.31654" lon="4.77581">
        <ele>237</ele>
        <time>2014-11-13T15:45:46Z</time>
      </trkpt>
      <trkpt lat="44.31651" lon="4.77578">
        <ele>237</ele>
        <time>2014-11-13T15:45:50Z</time>
      </trkpt>
      <trkpt lat="44.31645" lon="4.77573">
        <ele>237</ele>
        <time>2014-11-13T15:45:56Z</time>
      </trkpt>
      <trkpt lat="44.31644" lon="4.77571">
        <ele>238</ele>
        <time>2014-11-13T15:45:57Z</time>
      </trkpt>
      <trkpt lat="44.31643" lon="4.77565">
        <ele>239</ele>
        <time>2014-11-13T15:46:02Z</time>
      </trkpt>
      <trkpt lat="44.31634" lon="4.77558">
        <ele>238</ele>
        <time>2014-11-13T15:46:11Z</time>
      </trkpt>
      <trkpt lat="44.3163" lon="4.7756">
        <ele>237</ele>
        <time>2014-11-13T15:46:18Z</time>
      </trkpt>
      <trkpt lat="44.31626" lon="4.77566">
        <ele>237</ele>
        <time>2014-11-13T15:46:22Z</time>
      </trkpt>
      <trkpt lat="44.31619" lon="4.77568">
        <ele>236</ele>
        <time>2014-11-13T15:46:28Z</time>
      </trkpt>
      <trkpt lat="44.31616" lon="4.77568">
        <ele>236</ele>
        <time>2014-11-13T15:46:33Z</time>
      </trkpt>
      <trkpt lat="44.31614" lon="4.77567">
        <ele>235</ele>
        <time>2014-11-13T15:46:38Z</time>
      </trkpt>
      <trkpt lat="44.31609" lon="4.77571">
        <ele>234</ele>
        <time>2014-11-13T15:46:46Z</time>
      </trkpt>
      <trkpt lat="44.31607" lon="4.7757">
        <ele>234</ele>
        <time>2014-11-13T15:46:51Z</time>
      </trkpt>
      <trkpt lat="44.31603" lon="4.77564">
        <ele>233</ele>
        <time>2014-11-13T15:46:58Z</time>
      </trkpt>
      <trkpt lat="44.316" lon="4.77558">
        <ele>233</ele>
        <time>2014-11-13T15:47:03Z</time>
      </trkpt>
      <trkpt lat="44.31598" lon="4.77557">
        <ele>233</ele>
        <time>2014-11-13T15:47:05Z</time>
      </trkpt>
      <trkpt lat="44.31594" lon="4.77561">
        <ele>233</ele>
        <time>2014-11-13T15:47:10Z</time>
      </trkpt>
      <trkpt lat="44.31589" lon="4.77558">
        <ele>233</ele>
        <time>2014-11-13T15:47:16Z</time>
      </trkpt>
      <trkpt lat="44.31586" lon="4.77559">
        <ele>233</ele>
        <time>2014-11-13T15:47:21Z</time>
      </trkpt>
      <trkpt lat="44.31584" lon="4.77558">
        <ele>233</ele>
        <time>2014-11-13T15:47:28Z</time>
      </trkpt>
      <trkpt lat="44.31585" lon="4.77556">
        <ele>233</ele>
        <time>2014-11-13T15:47:36Z</time>
      </trkpt>
      <trkpt lat="44.31585" lon="4.77551">
        <ele>233</ele>
        <time>2014-11-13T15:47:43Z</time>
      </trkpt>
      <trkpt lat="44.31584" lon="4.77548">
        <ele>232</ele>
        <time>2014-11-13T15:47:49Z</time>
      </trkpt>
      <trkpt lat="44.31583" lon="4.77547">
        <ele>232</ele>
        <time>2014-11-13T15:47:50Z</time>
      </trkpt>
      <trkpt lat="44.31579" lon="4.77551">
        <ele>232</ele>
        <time>2014-11-13T15:47:55Z</time>
      </trkpt>
      <trkpt lat="44.31581" lon="4.77555">
        <ele>231</ele>
        <time>2014-11-13T15:48:02Z</time>
      </trkpt>
      <trkpt lat="44.31579" lon="4.7756">
        <ele>230</ele>
        <time>2014-11-13T15:48:10Z</time>
      </trkpt>
      <trkpt lat="44.31576" lon="4.77566">
        <ele>229</ele>
        <time>2014-11-13T15:48:20Z</time>
      </trkpt>
      <trkpt lat="44.31576" lon="4.77568">
        <ele>229</ele>
        <time>2014-11-13T15:48:22Z</time>
      </trkpt>
      <trkpt lat="44.31571" lon="4.77564">
        <ele>228</ele>
        <time>2014-11-13T15:48:27Z</time>
      </trkpt>
      <trkpt lat="44.31568" lon="4.77562">
        <ele>228</ele>
        <time>2014-11-13T15:48:32Z</time>
      </trkpt>
      <trkpt lat="44.31567" lon="4.77564">
        <ele>229</ele>
        <time>2014-11-13T15:48:40Z</time>
      </trkpt>
      <trkpt lat="44.31567" lon="4.77563">
        <ele>228</ele>
        <time>2014-11-13T15:48:54Z</time>
      </trkpt>
      <trkpt lat="44.31566" lon="4.77563">
        <ele>228</ele>
        <time>2014-11-13T15:49:12Z</time>
      </trkpt>
      <trkpt lat="44.31564" lon="4.77564">
        <ele>228</ele>
        <time>2014-11-13T15:49:19Z</time>
      </trkpt>
      <trkpt lat="44.31564" lon="4.77564">
        <ele>228</ele>
        <time>2014-11-13T15:49:30Z</time>
      </trkpt>
      <trkpt lat="44.31563" lon="4.77565">
        <ele>228</ele>
        <time>2014-11-13T15:49:45Z</time>
      </trkpt>
      <trkpt lat="44.31563" lon="4.77565">
        <ele>228</ele>
        <time>2014-11-13T15:49:46Z</time>
      </trkpt>
      <trkpt lat="44.31561" lon="4.77567">
        <ele>227</ele>
        <time>2014-11-13T15:49:50Z</time>
      </trkpt>
      <trkpt lat="44.31557" lon="4.77565">
        <ele>227</ele>
        <time>2014-11-13T15:49:56Z</time>
      </trkpt>
      <trkpt lat="44.31557" lon="4.77566">
        <ele>227</ele>
        <time>2014-11-13T15:50:00Z</time>
      </trkpt>
      <trkpt lat="44.3156" lon="4.77567">
        <ele>227</ele>
        <time>2014-11-13T15:50:09Z</time>
      </trkpt>
      <trkpt lat="44.3156" lon="4.77567">
        <ele>227</ele>
        <time>2014-11-13T15:50:17Z</time>
      </trkpt>
      <trkpt lat="44.3156" lon="4.77569">
        <ele>227</ele>
        <time>2014-11-13T15:50:31Z</time>
      </trkpt>
      <trkpt lat="44.3156" lon="4.77568">
        <ele>228</ele>
        <time>2014-11-13T15:50:42Z</time>
      </trkpt>
      <trkpt lat="44.31562" lon="4.77567">
        <ele>227</ele>
        <time>2014-11-13T15:51:06Z</time>
      </trkpt>
      <trkpt lat="44.31565" lon="4.77566">
        <ele>229</ele>
        <time>2014-11-13T15:51:15Z</time>
      </trkpt>
      <trkpt lat="44.31564" lon="4.77566">
        <ele>228</ele>
        <time>2014-11-13T15:51:31Z</time>
      </trkpt>
      <trkpt lat="44.31561" lon="4.77568">
        <ele>227</ele>
        <time>2014-11-13T15:51:39Z</time>
      </trkpt>
      <trkpt lat="44.31557" lon="4.77567">
        <ele>227</ele>
        <time>2014-11-13T15:51:46Z</time>
      </trkpt>
      <trkpt lat="44.31557" lon="4.77565">
        <ele>227</ele>
        <time>2014-11-13T15:51:52Z</time>
      </trkpt>
      <trkpt lat="44.31555" lon="4.77565">
        <ele>227</ele>
        <time>2014-11-13T15:58:53Z</time>
      </trkpt>
      <trkpt lat="44.31556" lon="4.77566">
        <ele>227</ele>
        <time>2014-11-13T16:06:36Z</time>
      </trkpt>
      <trkpt lat="44.31556" lon="4.77565">
        <ele>226</ele>
        <time>2014-11-13T16:06:57Z</time>
      </trkpt>
      <trkpt lat="44.31557" lon="4.77566">
        <ele>227</ele>
        <time>2014-11-13T16:07:13Z</time>
      </trkpt>
      <trkpt lat="44.31559" lon="4.77566">
        <ele>227</ele>
        <time>2014-11-13T16:07:29Z</time>
      </trkpt>
      <trkpt lat="44.3156" lon="4.77565">
        <ele>226</ele>
        <time>2014-11-13T16:07:40Z</time>
      </trkpt>
      <trkpt lat="44.31562" lon="4.77565">
        <ele>227</ele>
        <time>2014-11-13T16:07:48Z</time>
      </trkpt>
      <trkpt lat="44.31564" lon="4.77565">
        <ele>227</ele>
        <time>2014-11-13T16:08:01Z</time>
      </trkpt>
      <trkpt lat="44.31564" lon="4.77565">
        <ele>226</ele>
        <time>2014-11-13T16:08:14Z</time>
      </trkpt>
      <trkpt lat="44.31566" lon="4.77563">
        <ele>227</ele>
        <time>2014-11-13T16:08:33Z</time>
      </trkpt>
      <trkpt lat="44.31567" lon="4.77563">
        <ele>227</ele>
        <time>2014-11-13T16:08:34Z</time>
      </trkpt>
      <trkpt lat="44.31571" lon="4.77565">
        <ele>227</ele>
        <time>2014-11-13T16:08:43Z</time>
      </trkpt>
      <trkpt lat="44.31577" lon="4.77566">
        <ele>227</ele>
        <time>2014-11-13T16:08:53Z</time>
      </trkpt>
      <trkpt lat="44.31578" lon="4.77563">
        <ele>228</ele>
        <time>2014-11-13T16:09:00Z</time>
      </trkpt>
      <trkpt lat="44.3158" lon="4.77556">
        <ele>230</ele>
        <time>2014-11-13T16:09:09Z</time>
      </trkpt>
      <trkpt lat="44.31578" lon="4.77548">
        <ele>231</ele>
        <time>2014-11-13T16:09:16Z</time>
      </trkpt>
      <trkpt lat="44.31579" lon="4.77546">
        <ele>231</ele>
        <time>2014-11-13T16:09:22Z</time>
      </trkpt>
      <trkpt lat="44.3158" lon="4.77546">
        <ele>232</ele>
        <time>2014-11-13T16:09:28Z</time>
      </trkpt>
      <trkpt lat="44.31581" lon="4.77547">
        <ele>232</ele>
        <time>2014-11-13T16:09:35Z</time>
      </trkpt>
      <trkpt lat="44.31583" lon="4.77551">
        <ele>232</ele>
        <time>2014-11-13T16:09:40Z</time>
      </trkpt>
      <trkpt lat="44.31587" lon="4.77549">
        <ele>232</ele>
        <time>2014-11-13T16:09:47Z</time>
      </trkpt>
      <trkpt lat="44.3159" lon="4.77548">
        <ele>232</ele>
        <time>2014-11-13T16:09:55Z</time>
      </trkpt>
      <trkpt lat="44.31595" lon="4.77549">
        <ele>232</ele>
        <time>2014-11-13T16:10:06Z</time>
      </trkpt>
      <trkpt lat="44.31596" lon="4.7755">
        <ele>232</ele>
        <time>2014-11-13T16:10:08Z</time>
      </trkpt>
      <trkpt lat="44.31599" lon="4.77556">
        <ele>232</ele>
        <time>2014-11-13T16:10:17Z</time>
      </trkpt>
      <trkpt lat="44.31603" lon="4.77563">
        <ele>233</ele>
        <time>2014-11-13T16:10:33Z</time>
      </trkpt>
      <trkpt lat="44.31607" lon="4.77567">
        <ele>233</ele>
        <time>2014-11-13T16:10:40Z</time>
      </trkpt>
      <trkpt lat="44.31612" lon="4.77573">
        <ele>233</ele>
        <time>2014-11-13T16:10:49Z</time>
      </trkpt>
      <trkpt lat="44.31614" lon="4.77571">
        <ele>234</ele>
        <time>2014-11-13T16:11:05Z</time>
      </trkpt>
      <trkpt lat="44.31619" lon="4.77568">
        <ele>235</ele>
        <time>2014-11-13T16:11:12Z</time>
      </trkpt>
      <trkpt lat="44.31628" lon="4.77564">
        <ele>237</ele>
        <time>2014-11-13T16:11:24Z</time>
      </trkpt>
      <trkpt lat="44.3163" lon="4.77562">
        <ele>237</ele>
        <time>2014-11-13T16:11:27Z</time>
      </trkpt>
      <trkpt lat="44.31632" lon="4.77559">
        <ele>237</ele>
        <time>2014-11-13T16:11:30Z</time>
      </trkpt>
      <trkpt lat="44.31636" lon="4.7756">
        <ele>238</ele>
        <time>2014-11-13T16:11:35Z</time>
      </trkpt>
      <trkpt lat="44.3164" lon="4.77563">
        <ele>238</ele>
        <time>2014-11-13T16:11:42Z</time>
      </trkpt>
      <trkpt lat="44.31644" lon="4.77571">
        <ele>238</ele>
        <time>2014-11-13T16:11:52Z</time>
      </trkpt>
      <trkpt lat="44.31647" lon="4.77574">
        <ele>237</ele>
        <time>2014-11-13T16:12:05Z</time>
      </trkpt>
      <trkpt lat="44.31649" lon="4.77576">
        <ele>237</ele>
        <time>2014-11-13T16:12:12Z</time>
      </trkpt>
      <trkpt lat="44.31649" lon="4.77576">
        <ele>237</ele>
        <time>2014-11-13T16:12:23Z</time>
      </trkpt>
      <trkpt lat="44.31651" lon="4.77577">
        <ele>238</ele>
        <time>2014-11-13T16:12:29Z</time>
      </trkpt>
      <trkpt lat="44.3166" lon="4.77592">
        <ele>237</ele>
        <time>2014-11-13T16:12:43Z</time>
      </trkpt>
      <trkpt lat="44.31662" lon="4.77594">
        <ele>237</ele>
        <time>2014-11-13T16:12:46Z</time>
      </trkpt>
      <trkpt lat="44.31665" lon="4.77595">
        <ele>237</ele>
        <time>2014-11-13T16:12:49Z</time>
      </trkpt>
      <trkpt lat="44.31674" lon="4.77601">
        <ele>237</ele>
        <time>2014-11-13T16:12:59Z</time>
      </trkpt>
      <trkpt lat="44.31681" lon="4.77611">
        <ele>237</ele>
        <time>2014-11-13T16:13:08Z</time>
      </trkpt>
      <trkpt lat="44.31687" lon="4.77624">
        <ele>236</ele>
        <time>2014-11-13T16:13:18Z</time>
      </trkpt>
      <trkpt lat="44.31692" lon="4.77631">
        <ele>236</ele>
        <time>2014-11-13T16:13:25Z</time>
      </trkpt>
      <trkpt lat="44.31695" lon="4.77636">
        <ele>236</ele>
        <time>2014-11-13T16:13:29Z</time>
      </trkpt>
      <trkpt lat="44.31696" lon="4.77643">
        <ele>236</ele>
        <time>2014-11-13T16:13:33Z</time>
      </trkpt>
      <trkpt lat="44.31705" lon="4.7765">
        <ele>235</ele>
        <time>2014-11-13T16:13:40Z</time>
      </trkpt>
      <trkpt lat="44.31713" lon="4.77656">
        <ele>235</ele>
        <time>2014-11-13T16:13:49Z</time>
      </trkpt>
      <trkpt lat="44.31722" lon="4.77662">
        <ele>235</ele>
        <time>2014-11-13T16:13:58Z</time>
      </trkpt>
      <trkpt lat="44.31724" lon="4.77665">
        <ele>235</ele>
        <time>2014-11-13T16:14:01Z</time>
      </trkpt>
      <trkpt lat="44.31727" lon="4.77673">
        <ele>235</ele>
        <time>2014-11-13T16:14:07Z</time>
      </trkpt>
      <trkpt lat="44.31733" lon="4.77682">
        <ele>234</ele>
        <time>2014-11-13T16:14:15Z</time>
      </trkpt>
      <trkpt lat="44.3174" lon="4.77691">
        <ele>234</ele>
        <time>2014-11-13T16:14:25Z</time>
      </trkpt>
      <trkpt lat="44.31746" lon="4.77698">
        <ele>233</ele>
        <time>2014-11-13T16:14:30Z</time>
      </trkpt>
      <trkpt lat="44.31752" lon="4.77704">
        <ele>233</ele>
        <time>2014-11-13T16:14:36Z</time>
      </trkpt>
      <trkpt lat="44.31753" lon="4.77704">
        <ele>233</ele>
        <time>2014-11-13T16:14:37Z</time>
      </trkpt>
      <trkpt lat="44.31762" lon="4.7771">
        <ele>233</ele>
        <time>2014-11-13T16:14:46Z</time>
      </trkpt>
      <trkpt lat="44.31768" lon="4.77716">
        <ele>233</ele>
        <time>2014-11-13T16:14:54Z</time>
      </trkpt>
      <trkpt lat="44.31771" lon="4.77715">
        <ele>233</ele>
        <time>2014-11-13T16:14:59Z</time>
      </trkpt>
      <trkpt lat="44.31775" lon="4.77718">
        <ele>232</ele>
        <time>2014-11-13T16:15:30Z</time>
      </trkpt>
      <trkpt lat="44.3178" lon="4.7772">
        <ele>232</ele>
        <time>2014-11-13T16:15:36Z</time>
      </trkpt>
      <trkpt lat="44.31788" lon="4.77724">
        <ele>232</ele>
        <time>2014-11-13T16:15:44Z</time>
      </trkpt>
      <trkpt lat="44.31791" lon="4.77725">
        <ele>232</ele>
        <time>2014-11-13T16:15:46Z</time>
      </trkpt>
      <trkpt lat="44.31799" lon="4.77736">
        <ele>232</ele>
        <time>2014-11-13T16:15:57Z</time>
      </trkpt>
      <trkpt lat="44.31801" lon="4.77739">
        <ele>232</ele>
        <time>2014-11-13T16:16:00Z</time>
      </trkpt>
      <trkpt lat="44.3181" lon="4.77746">
        <ele>231</ele>
        <time>2014-11-13T16:16:09Z</time>
      </trkpt>
      <trkpt lat="44.31812" lon="4.77749">
        <ele>231</ele>
        <time>2014-11-13T16:16:12Z</time>
      </trkpt>
      <trkpt lat="44.31816" lon="4.77751">
        <ele>231</ele>
        <time>2014-11-13T16:16:16Z</time>
      </trkpt>
      <trkpt lat="44.31822" lon="4.77754">
        <ele>231</ele>
        <time>2014-11-13T16:16:21Z</time>
      </trkpt>
      <trkpt lat="44.31823" lon="4.77756">
        <ele>230</ele>
        <time>2014-11-13T16:16:23Z</time>
      </trkpt>
      <trkpt lat="44.3183" lon="4.77759">
        <ele>230</ele>
        <time>2014-11-13T16:16:29Z</time>
      </trkpt>
      <trkpt lat="44.31839" lon="4.7776">
        <ele>230</ele>
        <time>2014-11-13T16:16:37Z</time>
      </trkpt>
      <trkpt lat="44.31846" lon="4.77762">
        <ele>230</ele>
        <time>2014-11-13T16:16:44Z</time>
      </trkpt>
      <trkpt lat="44.31851" lon="4.77765">
        <ele>229</ele>
        <time>2014-11-13T16:16:51Z</time>
      </trkpt>
      <trkpt lat="44.31851" lon="4.77766">
        <ele>229</ele>
        <time>2014-11-13T16:17:03Z</time>
      </trkpt>
      <trkpt lat="44.31848" lon="4.77771">
        <ele>229</ele>
        <time>2014-11-13T16:17:10Z</time>
      </trkpt>
      <trkpt lat="44.31846" lon="4.77774">
        <ele>229</ele>
        <time>2014-11-13T16:17:19Z</time>
      </trkpt>
      <trkpt lat="44.31845" lon="4.77778">
        <ele>228</ele>
        <time>2014-11-13T16:17:23Z</time>
      </trkpt>
      <trkpt lat="44.31842" lon="4.77785">
        <ele>227</ele>
        <time>2014-11-13T16:17:31Z</time>
      </trkpt>
      <trkpt lat="44.31843" lon="4.7779">
        <ele>227</ele>
        <time>2014-11-13T16:17:34Z</time>
      </trkpt>
      <trkpt lat="44.31845" lon="4.77798">
        <ele>227</ele>
        <time>2014-11-13T16:17:41Z</time>
      </trkpt>
      <trkpt lat="44.31847" lon="4.77815">
        <ele>227</ele>
        <time>2014-11-13T16:17:53Z</time>
      </trkpt>
      <trkpt lat="44.31847" lon="4.7782">
        <ele>227</ele>
        <time>2014-11-13T16:17:57Z</time>
      </trkpt>
      <trkpt lat="44.31846" lon="4.77832">
        <ele>227</ele>
        <time>2014-11-13T16:18:06Z</time>
      </trkpt>
      <trkpt lat="44.31846" lon="4.77835">
        <ele>227</ele>
        <time>2014-11-13T16:18:08Z</time>
      </trkpt>
      <trkpt lat="44.31846" lon="4.7785">
        <ele>226</ele>
        <time>2014-11-13T16:18:17Z</time>
      </trkpt>
      <trkpt lat="44.31847" lon="4.77856">
        <ele>226</ele>
        <time>2014-11-13T16:18:21Z</time>
      </trkpt>
      <trkpt lat="44.31853" lon="4.77862">
        <ele>226</ele>
        <time>2014-11-13T16:18:28Z</time>
      </trkpt>
      <trkpt lat="44.31854" lon="4.77863">
        <ele>226</ele>
        <time>2014-11-13T16:18:40Z</time>
      </trkpt>
      <trkpt lat="44.31856" lon="4.77868">
        <ele>226</ele>
        <time>2014-11-13T16:18:48Z</time>
      </trkpt>
      <trkpt lat="44.31859" lon="4.77879">
        <ele>225</ele>
        <time>2014-11-13T16:18:57Z</time>
      </trkpt>
      <trkpt lat="44.31865" lon="4.77886">
        <ele>225</ele>
        <time>2014-11-13T16:19:06Z</time>
      </trkpt>
      <trkpt lat="44.31868" lon="4.77896">
        <ele>224</ele>
        <time>2014-11-13T16:19:15Z</time>
      </trkpt>
      <trkpt lat="44.31872" lon="4.77901">
        <ele>224</ele>
        <time>2014-11-13T16:19:22Z</time>
      </trkpt>
      <trkpt lat="44.31878" lon="4.77913">
        <ele>223</ele>
        <time>2014-11-13T16:19:32Z</time>
      </trkpt>
      <trkpt lat="44.31885" lon="4.77926">
        <ele>222</ele>
        <time>2014-11-13T16:19:44Z</time>
      </trkpt>
      <trkpt lat="44.31892" lon="4.77933">
        <ele>222</ele>
        <time>2014-11-13T16:19:53Z</time>
      </trkpt>
      <trkpt lat="44.31897" lon="4.7794">
        <ele>222</ele>
        <time>2014-11-13T16:20:02Z</time>
      </trkpt>
      <trkpt lat="44.319" lon="4.77943">
        <ele>221</ele>
        <time>2014-11-13T16:20:05Z</time>
      </trkpt>
      <trkpt lat="44.31903" lon="4.77954">
        <ele>221</ele>
        <time>2014-11-13T16:20:13Z</time>
      </trkpt>
      <trkpt lat="44.31906" lon="4.77962">
        <ele>221</ele>
        <time>2014-11-13T16:20:22Z</time>
      </trkpt>
      <trkpt lat="44.31906" lon="4.77963">
        <ele>221</ele>
        <time>2014-11-13T16:20:28Z</time>
      </trkpt>
      <trkpt lat="44.31913" lon="4.77963">
        <ele>221</ele>
        <time>2014-11-13T16:20:37Z</time>
      </trkpt>
      <trkpt lat="44.31922" lon="4.77962">
        <ele>222</ele>
        <time>2014-11-13T16:20:47Z</time>
      </trkpt>
      <trkpt lat="44.31924" lon="4.77961">
        <ele>222</ele>
        <time>2014-11-13T16:20:50Z</time>
      </trkpt>
      <trkpt lat="44.31927" lon="4.77961">
        <ele>222</ele>
        <time>2014-11-13T16:20:53Z</time>
      </trkpt>
      <trkpt lat="44.31934" lon="4.77962">
        <ele>222</ele>
        <time>2014-11-13T16:21:00Z</time>
      </trkpt>
      <trkpt lat="44.31941" lon="4.77962">
        <ele>223</ele>
        <time>2014-11-13T16:21:08Z</time>
      </trkpt>
      <trkpt lat="44.31949" lon="4.77964">
        <ele>223</ele>
        <time>2014-11-13T16:21:16Z</time>
      </trkpt>
      <trkpt lat="44.31954" lon="4.77964">
        <ele>223</ele>
        <time>2014-11-13T16:21:22Z</time>
      </trkpt>
      <trkpt lat="44.31959" lon="4.77965">
        <ele>223</ele>
        <time>2014-11-13T16:21:27Z</time>
      </trkpt>
      <trkpt lat="44.31964" lon="4.77966">
        <ele>223</ele>
        <time>2014-11-13T16:21:33Z</time>
      </trkpt>
      <trkpt lat="44.3197" lon="4.77971">
        <ele>223</ele>
        <time>2014-11-13T16:21:39Z</time>
      </trkpt>
      <trkpt lat="44.31973" lon="4.77974">
        <ele>223</ele>
        <time>2014-11-13T16:21:42Z</time>
      </trkpt>
      <trkpt lat="44.31978" lon="4.77981">
        <ele>223</ele>
        <time>2014-11-13T16:21:50Z</time>
      </trkpt>
      <trkpt lat="44.31981" lon="4.77982">
        <ele>222</ele>
        <time>2014-11-13T16:21:53Z</time>
      </trkpt>
      <trkpt lat="44.3199" lon="4.77986">
        <ele>222</ele>
        <time>2014-11-13T16:22:03Z</time>
      </trkpt>
      <trkpt lat="44.31992" lon="4.77988">
        <ele>222</ele>
        <time>2014-11-13T16:22:06Z</time>
      </trkpt>
      <trkpt lat="44.31998" lon="4.7799">
        <ele>221</ele>
        <time>2014-11-13T16:22:11Z</time>
      </trkpt>
      <trkpt lat="44.32002" lon="4.77991">
        <ele>221</ele>
        <time>2014-11-13T16:22:15Z</time>
      </trkpt>
      <trkpt lat="44.32013" lon="4.77994">
        <ele>221</ele>
        <time>2014-11-13T16:22:26Z</time>
      </trkpt>
      <trkpt lat="44.3202" lon="4.77996">
        <ele>221</ele>
        <time>2014-11-13T16:22:34Z</time>
      </trkpt>
      <trkpt lat="44.32025" lon="4.77998">
        <ele>221</ele>
        <time>2014-11-13T16:22:42Z</time>
      </trkpt>
      <trkpt lat="44.32031" lon="4.77998">
        <ele>220</ele>
        <time>2014-11-13T16:23:25Z</time>
      </trkpt>
      <trkpt lat="44.3204" lon="4.78">
        <ele>220</ele>
        <time>2014-11-13T16:23:32Z</time>
      </trkpt>
      <trkpt lat="44.32049" lon="4.78003">
        <ele>220</ele>
        <time>2014-11-13T16:23:40Z</time>
      </trkpt>
      <trkpt lat="44.3205" lon="4.78004">
        <ele>219</ele>
        <time>2014-11-13T16:23:49Z</time>
      </trkpt>
      <trkpt lat="44.32051" lon="4.78004">
        <ele>219</ele>
        <time>2014-11-13T16:24:05Z</time>
      </trkpt>
      <trkpt lat="44.32051" lon="4.78003">
        <ele>219</ele>
        <time>2014-11-13T16:24:35Z</time>
      </trkpt>
      <trkpt lat="44.32054" lon="4.78006">
        <ele>219</ele>
        <time>2014-11-13T16:24:52Z</time>
      </trkpt>
      <trkpt lat="44.32057" lon="4.78011">
        <ele>219</ele>
        <time>2014-11-13T16:25:00Z</time>
      </trkpt>
      <trkpt lat="44.32058" lon="4.7801">
        <ele>219</ele>
        <time>2014-11-13T16:25:12Z</time>
      </trkpt>
      <trkpt lat="44.32058" lon="4.7801">
        <ele>219</ele>
        <time>2014-11-13T16:25:33Z</time>
      </trkpt>
      <trkpt lat="44.3206" lon="4.78008">
        <ele>219</ele>
        <time>2014-11-13T16:26:49Z</time>
      </trkpt>
      <trkpt lat="44.32065" lon="4.78009">
        <ele>219</ele>
        <time>2014-11-13T16:26:53Z</time>
      </trkpt>
      <trkpt lat="44.32076" lon="4.78009">
        <ele>217</ele>
        <time>2014-11-13T16:27:02Z</time>
      </trkpt>
      <trkpt lat="44.32078" lon="4.78009">
        <ele>217</ele>
        <time>2014-11-13T16:27:04Z</time>
      </trkpt>
      <trkpt lat="44.32082" lon="4.78008">
        <ele>217</ele>
        <time>2014-11-13T16:27:07Z</time>
      </trkpt>
      <trkpt lat="44.32088" lon="4.78017">
        <ele>217</ele>
        <time>2014-11-13T16:27:16Z</time>
      </trkpt>
      <trkpt lat="44.3209" lon="4.7802">
        <ele>216</ele>
        <time>2014-11-13T16:27:22Z</time>
      </trkpt>
      <trkpt lat="44.32092" lon="4.78021">
        <ele>216</ele>
        <time>2014-11-13T16:27:24Z</time>
      </trkpt>
      <trkpt lat="44.32093" lon="4.78025">
        <ele>215</ele>
        <time>2014-11-13T16:27:27Z</time>
      </trkpt>
      <trkpt lat="44.32096" lon="4.78034">
        <ele>214</ele>
        <time>2014-11-13T16:27:33Z</time>
      </trkpt>
      <trkpt lat="44.32098" lon="4.78039">
        <ele>214</ele>
        <time>2014-11-13T16:27:36Z</time>
      </trkpt>
      <trkpt lat="44.32104" lon="4.78048">
        <ele>214</ele>
        <time>2014-11-13T16:27:42Z</time>
      </trkpt>
      <trkpt lat="44.32105" lon="4.78047">
        <ele>214</ele>
        <time>2014-11-13T16:27:51Z</time>
      </trkpt>
      <trkpt lat="44.32105" lon="4.78047">
        <ele>214</ele>
        <time>2014-11-13T16:27:58Z</time>
      </trkpt>
      <trkpt lat="44.32105" lon="4.78046">
        <ele>214</ele>
        <time>2014-11-13T16:28:07Z</time>
      </trkpt>
      <trkpt lat="44.32105" lon="4.78046">
        <ele>213</ele>
        <time>2014-11-13T16:30:27Z</time>
      </trkpt>
      <trkpt lat="44.32105" lon="4.78046">
        <ele>213</ele>
        <time>2014-11-13T16:30:29Z</time>
      </trkpt>
      <trkpt lat="44.32102" lon="4.78045">
        <ele>213</ele>
        <time>2014-11-13T16:30:32Z</time>
      </trkpt>
      <trkpt lat="44.321" lon="4.78041">
        <ele>214</ele>
        <time>2014-11-13T16:30:38Z</time>
      </trkpt>
      <trkpt lat="44.32097" lon="4.78036">
        <ele>214</ele>
        <time>2014-11-13T16:30:43Z</time>
      </trkpt>
      <trkpt lat="44.32093" lon="4.78032">
        <ele>215</ele>
        <time>2014-11-13T16:30:49Z</time>
      </trkpt>
      <trkpt lat="44.32088" lon="4.78015">
        <ele>216</ele>
        <time>2014-11-13T16:31:00Z</time>
      </trkpt>
      <trkpt lat="44.32083" lon="4.78008">
        <ele>217</ele>
        <time>2014-11-13T16:31:07Z</time>
      </trkpt>
      <trkpt lat="44.32081" lon="4.78007">
        <ele>217</ele>
        <time>2014-11-13T16:31:09Z</time>
      </trkpt>
      <trkpt lat="44.32079" lon="4.78007">
        <ele>217</ele>
        <time>2014-11-13T16:31:11Z</time>
      </trkpt>
      <trkpt lat="44.32078" lon="4.78007">
        <ele>218</ele>
        <time>2014-11-13T16:31:16Z</time>
      </trkpt>
      <trkpt lat="44.32074" lon="4.78007">
        <ele>218</ele>
        <time>2014-11-13T16:31:29Z</time>
      </trkpt>
      <trkpt lat="44.32073" lon="4.78008">
        <ele>218</ele>
        <time>2014-11-13T16:31:30Z</time>
      </trkpt>
      <trkpt lat="44.32068" lon="4.78009">
        <ele>218</ele>
        <time>2014-11-13T16:31:34Z</time>
      </trkpt>
      <trkpt lat="44.32064" lon="4.78005">
        <ele>219</ele>
        <time>2014-11-13T16:31:39Z</time>
      </trkpt>
      <trkpt lat="44.32063" lon="4.78005">
        <ele>219</ele>
        <time>2014-11-13T16:31:51Z</time>
      </trkpt>
      <trkpt lat="44.32063" lon="4.78005">
        <ele>219</ele>
        <time>2014-11-13T16:31:52Z</time>
      </trkpt>
      <trkpt lat="44.3207" lon="4.78007">
        <ele>218</ele>
        <time>2014-11-13T16:31:59Z</time>
      </trkpt>
      <trkpt lat="44.3207" lon="4.78007">
        <ele>218</ele>
        <time>2014-11-13T16:32:14Z</time>
      </trkpt>
      <trkpt lat="44.32069" lon="4.78007">
        <ele>218</ele>
        <time>2014-11-13T16:32:25Z</time>
      </trkpt>
      <trkpt lat="44.32067" lon="4.78007">
        <ele>219</ele>
        <time>2014-11-13T16:32:33Z</time>
      </trkpt>
      <trkpt lat="44.32067" lon="4.78007">
        <ele>218</ele>
        <time>2014-11-13T16:32:34Z</time>
      </trkpt>
      <trkpt lat="44.32064" lon="4.78007">
        <ele>219</ele>
        <time>2014-11-13T16:32:41Z</time>
      </trkpt>
      <trkpt lat="44.32064" lon="4.78008">
        <ele>218</ele>
        <time>2014-11-13T16:32:50Z</time>
      </trkpt>
      <trkpt lat="44.32064" lon="4.78009">
        <ele>219</ele>
        <time>2014-11-13T16:33:06Z</time>
      </trkpt>
      <trkpt lat="44.32063" lon="4.78009">
        <ele>219</ele>
        <time>2014-11-13T16:33:17Z</time>
      </trkpt>
      <trkpt lat="44.32063" lon="4.78009">
        <ele>218</ele>
        <time>2014-11-13T16:33:35Z</time>
      </trkpt>
      <trkpt lat="44.32063" lon="4.78009">
        <ele>219</ele>
        <time>2014-11-13T16:33:57Z</time>
      </trkpt>
      <trkpt lat="44.32061" lon="4.78009">
        <ele>218</ele>
        <time>2014-11-13T16:34:26Z</time>
      </trkpt>
      <trkpt lat="44.32056" lon="4.78004">
        <ele>219</ele>
        <time>2014-11-13T16:34:33Z</time>
      </trkpt>
      <trkpt lat="44.32049" lon="4.78003">
        <ele>220</ele>
        <time>2014-11-13T16:34:41Z</time>
      </trkpt>
      <trkpt lat="44.32037" lon="4.78003">
        <ele>220</ele>
        <time>2014-11-13T16:34:50Z</time>
      </trkpt>
      <trkpt lat="44.32037" lon="4.78002">
        <ele>220</ele>
        <time>2014-11-13T16:34:51Z</time>
      </trkpt>
      <trkpt lat="44.32029" lon="4.78">
        <ele>220</ele>
        <time>2014-11-13T16:35:00Z</time>
      </trkpt>
      <trkpt lat="44.32028" lon="4.77999">
        <ele>220</ele>
        <time>2014-11-13T16:35:01Z</time>
      </trkpt>
      <trkpt lat="44.32021" lon="4.77993">
        <ele>221</ele>
        <time>2014-11-13T16:35:07Z</time>
      </trkpt>
      <trkpt lat="44.32018" lon="4.77992">
        <ele>220</ele>
        <time>2014-11-13T16:35:13Z</time>
      </trkpt>
      <trkpt lat="44.3201" lon="4.77988">
        <ele>220</ele>
        <time>2014-11-13T16:35:20Z</time>
      </trkpt>
      <trkpt lat="44.32003" lon="4.77986">
        <ele>221</ele>
        <time>2014-11-13T16:35:25Z</time>
      </trkpt>
      <trkpt lat="44.31999" lon="4.77986">
        <ele>221</ele>
        <time>2014-11-13T16:35:28Z</time>
      </trkpt>
      <trkpt lat="44.3199" lon="4.77982">
        <ele>221</ele>
        <time>2014-11-13T16:35:36Z</time>
      </trkpt>
      <trkpt lat="44.31989" lon="4.77981">
        <ele>221</ele>
        <time>2014-11-13T16:35:38Z</time>
      </trkpt>
      <trkpt lat="44.31986" lon="4.7798">
        <ele>221</ele>
        <time>2014-11-13T16:35:40Z</time>
      </trkpt>
      <trkpt lat="44.31981" lon="4.77977">
        <ele>222</ele>
        <time>2014-11-13T16:35:46Z</time>
      </trkpt>
      <trkpt lat="44.31974" lon="4.77974">
        <ele>222</ele>
        <time>2014-11-13T16:35:54Z</time>
      </trkpt>
      <trkpt lat="44.3197" lon="4.7797">
        <ele>223</ele>
        <time>2014-11-13T16:35:59Z</time>
      </trkpt>
      <trkpt lat="44.31962" lon="4.77967">
        <ele>223</ele>
        <time>2014-11-13T16:36:05Z</time>
      </trkpt>
      <trkpt lat="44.31956" lon="4.77964">
        <ele>223</ele>
        <time>2014-11-13T16:36:11Z</time>
      </trkpt>
      <trkpt lat="44.31953" lon="4.77963">
        <ele>223</ele>
        <time>2014-11-13T16:36:14Z</time>
      </trkpt>
      <trkpt lat="44.31945" lon="4.77961">
        <ele>222</ele>
        <time>2014-11-13T16:36:20Z</time>
      </trkpt>
      <trkpt lat="44.31935" lon="4.77963">
        <ele>222</ele>
        <time>2014-11-13T16:36:28Z</time>
      </trkpt>
      <trkpt lat="44.31929" lon="4.77964">
        <ele>222</ele>
        <time>2014-11-13T16:36:32Z</time>
      </trkpt>
      <trkpt lat="44.31923" lon="4.77963">
        <ele>222</ele>
        <time>2014-11-13T16:36:39Z</time>
      </trkpt>
      <trkpt lat="44.31921" lon="4.77962">
        <ele>221</ele>
        <time>2014-11-13T16:36:53Z</time>
      </trkpt>
      <trkpt lat="44.31913" lon="4.77961">
        <ele>221</ele>
        <time>2014-11-13T16:37:01Z</time>
      </trkpt>
      <trkpt lat="44.31909" lon="4.77961">
        <ele>220</ele>
        <time>2014-11-13T16:37:07Z</time>
      </trkpt>
      <trkpt lat="44.31905" lon="4.77957">
        <ele>221</ele>
        <time>2014-11-13T16:37:12Z</time>
      </trkpt>
      <trkpt lat="44.31902" lon="4.77947">
        <ele>221</ele>
        <time>2014-11-13T16:37:20Z</time>
      </trkpt>
      <trkpt lat="44.31897" lon="4.77934">
        <ele>221</ele>
        <time>2014-11-13T16:37:26Z</time>
      </trkpt>
      <trkpt lat="44.31894" lon="4.77929">
        <ele>222</ele>
        <time>2014-11-13T16:37:31Z</time>
      </trkpt>
      <trkpt lat="44.31891" lon="4.77923">
        <ele>222</ele>
        <time>2014-11-13T16:37:36Z</time>
      </trkpt>
      <trkpt lat="44.31881" lon="4.77914">
        <ele>223</ele>
        <time>2014-11-13T16:37:46Z</time>
      </trkpt>
      <trkpt lat="44.31875" lon="4.77904">
        <ele>223</ele>
        <time>2014-11-13T16:37:57Z</time>
      </trkpt>
      <trkpt lat="44.31872" lon="4.77896">
        <ele>224</ele>
        <time>2014-11-13T16:38:04Z</time>
      </trkpt>
      <trkpt lat="44.31871" lon="4.77894">
        <ele>225</ele>
        <time>2014-11-13T16:38:07Z</time>
      </trkpt>
      <trkpt lat="44.31868" lon="4.77888">
        <ele>225</ele>
        <time>2014-11-13T16:38:11Z</time>
      </trkpt>
      <trkpt lat="44.31867" lon="4.77884">
        <ele>225</ele>
        <time>2014-11-13T16:38:15Z</time>
      </trkpt>
      <trkpt lat="44.31864" lon="4.77882">
        <ele>225</ele>
        <time>2014-11-13T16:38:18Z</time>
      </trkpt>
      <trkpt lat="44.31858" lon="4.77872">
        <ele>226</ele>
        <time>2014-11-13T16:38:24Z</time>
      </trkpt>
      <trkpt lat="44.31854" lon="4.77864">
        <ele>226</ele>
        <time>2014-11-13T16:38:31Z</time>
      </trkpt>
      <trkpt lat="44.31851" lon="4.77857">
        <ele>227</ele>
        <time>2014-11-13T16:38:39Z</time>
      </trkpt>
      <trkpt lat="44.3185" lon="4.77854">
        <ele>227</ele>
        <time>2014-11-13T16:38:47Z</time>
      </trkpt>
      <trkpt lat="44.31848" lon="4.77847">
        <ele>227</ele>
        <time>2014-11-13T16:38:53Z</time>
      </trkpt>
      <trkpt lat="44.31848" lon="4.77842">
        <ele>227</ele>
        <time>2014-11-13T16:38:56Z</time>
      </trkpt>
      <trkpt lat="44.31849" lon="4.77826">
        <ele>228</ele>
        <time>2014-11-13T16:39:08Z</time>
      </trkpt>
      <trkpt lat="44.31849" lon="4.77822">
        <ele>228</ele>
        <time>2014-11-13T16:39:11Z</time>
      </trkpt>
      <trkpt lat="44.31848" lon="4.77815">
        <ele>228</ele>
        <time>2014-11-13T16:39:16Z</time>
      </trkpt>
      <trkpt lat="44.31846" lon="4.77806">
        <ele>228</ele>
        <time>2014-11-13T16:39:23Z</time>
      </trkpt>
      <trkpt lat="44.31845" lon="4.77799">
        <ele>229</ele>
        <time>2014-11-13T16:39:28Z</time>
      </trkpt>
      <trkpt lat="44.31843" lon="4.77787">
        <ele>229</ele>
        <time>2014-11-13T16:39:35Z</time>
      </trkpt>
      <trkpt lat="44.31843" lon="4.77782">
        <ele>229</ele>
        <time>2014-11-13T16:39:40Z</time>
      </trkpt>
      <trkpt lat="44.31848" lon="4.77775">
        <ele>229</ele>
        <time>2014-11-13T16:39:45Z</time>
      </trkpt>
      <trkpt lat="44.31851" lon="4.77768">
        <ele>231</ele>
        <time>2014-11-13T16:39:51Z</time>
      </trkpt>
      <trkpt lat="44.31852" lon="4.77763">
        <ele>231</ele>
        <time>2014-11-13T16:39:56Z</time>
      </trkpt>
      <trkpt lat="44.3185" lon="4.77762">
        <ele>232</ele>
        <time>2014-11-13T16:39:58Z</time>
      </trkpt>
      <trkpt lat="44.31848" lon="4.77762">
        <ele>232</ele>
        <time>2014-11-13T16:40:05Z</time>
      </trkpt>
      <trkpt lat="44.31847" lon="4.77761">
        <ele>232</ele>
        <time>2014-11-13T16:40:15Z</time>
      </trkpt>
      <trkpt lat="44.31848" lon="4.77761">
        <ele>231</ele>
        <time>2014-11-13T16:40:49Z</time>
      </trkpt>
      <trkpt lat="44.31842" lon="4.7776">
        <ele>232</ele>
        <time>2014-11-13T16:40:55Z</time>
      </trkpt>
      <trkpt lat="44.31834" lon="4.77758">
        <ele>232</ele>
        <time>2014-11-13T16:41:03Z</time>
      </trkpt>
      <trkpt lat="44.31829" lon="4.77755">
        <ele>232</ele>
        <time>2014-11-13T16:41:09Z</time>
      </trkpt>
      <trkpt lat="44.31824" lon="4.77752">
        <ele>232</ele>
        <time>2014-11-13T16:41:16Z</time>
      </trkpt>
      <trkpt lat="44.31816" lon="4.77747">
        <ele>232</ele>
        <time>2014-11-13T16:41:23Z</time>
      </trkpt>
      <trkpt lat="44.3181" lon="4.77741">
        <ele>233</ele>
        <time>2014-11-13T16:41:30Z</time>
      </trkpt>
      <trkpt lat="44.31804" lon="4.77735">
        <ele>233</ele>
        <time>2014-11-13T16:41:37Z</time>
      </trkpt>
      <trkpt lat="44.31795" lon="4.77724">
        <ele>234</ele>
        <time>2014-11-13T16:41:48Z</time>
      </trkpt>
      <trkpt lat="44.31786" lon="4.7772">
        <ele>234</ele>
        <time>2014-11-13T16:41:58Z</time>
      </trkpt>
      <trkpt lat="44.31777" lon="4.77717">
        <ele>234</ele>
        <time>2014-11-13T16:42:06Z</time>
      </trkpt>
      <trkpt lat="44.31775" lon="4.77715">
        <ele>234</ele>
        <time>2014-11-13T16:42:08Z</time>
      </trkpt>
      <trkpt lat="44.31769" lon="4.77711">
        <ele>234</ele>
        <time>2014-11-13T16:42:16Z</time>
      </trkpt>
      <trkpt lat="44.31763" lon="4.77705">
        <ele>234</ele>
        <time>2014-11-13T16:42:24Z</time>
      </trkpt>
      <trkpt lat="44.31754" lon="4.77702">
        <ele>235</ele>
        <time>2014-11-13T16:42:30Z</time>
      </trkpt>
      <trkpt lat="44.31748" lon="4.77699">
        <ele>235</ele>
        <time>2014-11-13T16:42:37Z</time>
      </trkpt>
      <trkpt lat="44.31744" lon="4.77695">
        <ele>235</ele>
        <time>2014-11-13T16:42:42Z</time>
      </trkpt>
      <trkpt lat="44.31739" lon="4.77683">
        <ele>235</ele>
        <time>2014-11-13T16:42:51Z</time>
      </trkpt>
      <trkpt lat="44.31737" lon="4.77676">
        <ele>235</ele>
        <time>2014-11-13T16:42:57Z</time>
      </trkpt>
      <trkpt lat="44.31735" lon="4.77671">
        <ele>236</ele>
        <time>2014-11-13T16:43:01Z</time>
      </trkpt>
      <trkpt lat="44.31733" lon="4.77669">
        <ele>236</ele>
        <time>2014-11-13T16:43:03Z</time>
      </trkpt>
      <trkpt lat="44.3173" lon="4.77667">
        <ele>236</ele>
        <time>2014-11-13T16:43:06Z</time>
      </trkpt>
      <trkpt lat="44.31724" lon="4.77662">
        <ele>236</ele>
        <time>2014-11-13T16:43:12Z</time>
      </trkpt>
      <trkpt lat="44.31721" lon="4.7766">
        <ele>236</ele>
        <time>2014-11-13T16:43:17Z</time>
      </trkpt>
      <trkpt lat="44.31719" lon="4.77658">
        <ele>236</ele>
        <time>2014-11-13T16:43:19Z</time>
      </trkpt>
      <trkpt lat="44.31714" lon="4.77656">
        <ele>236</ele>
        <time>2014-11-13T16:43:23Z</time>
      </trkpt>
      <trkpt lat="44.31708" lon="4.77652">
        <ele>237</ele>
        <time>2014-11-13T16:43:28Z</time>
      </trkpt>
      <trkpt lat="44.31704" lon="4.77645">
        <ele>237</ele>
        <time>2014-11-13T16:43:34Z</time>
      </trkpt>
      <trkpt lat="44.31701" lon="4.77638">
        <ele>237</ele>
        <time>2014-11-13T16:43:41Z</time>
      </trkpt>
      <trkpt lat="44.31699" lon="4.77632">
        <ele>237</ele>
        <time>2014-11-13T16:43:47Z</time>
      </trkpt>
      <trkpt lat="44.31695" lon="4.77625">
        <ele>238</ele>
        <time>2014-11-13T16:43:52Z</time>
      </trkpt>
      <trkpt lat="44.31691" lon="4.77618">
        <ele>238</ele>
        <time>2014-11-13T16:43:58Z</time>
      </trkpt>
      <trkpt lat="44.31689" lon="4.77612">
        <ele>238</ele>
        <time>2014-11-13T16:44:03Z</time>
      </trkpt>
      <trkpt lat="44.31683" lon="4.77603">
        <ele>239</ele>
        <time>2014-11-13T16:44:10Z</time>
      </trkpt>
      <trkpt lat="44.31682" lon="4.77601">
        <ele>238</ele>
        <time>2014-11-13T16:44:12Z</time>
      </trkpt>
      <trkpt lat="44.31675" lon="4.77596">
        <ele>239</ele>
        <time>2014-11-13T16:44:17Z</time>
      </trkpt>
      <trkpt lat="44.31664" lon="4.7759">
        <ele>239</ele>
        <time>2014-11-13T16:44:27Z</time>
      </trkpt>
      <trkpt lat="44.31659" lon="4.77583">
        <ele>239</ele>
        <time>2014-11-13T16:44:33Z</time>
      </trkpt>
      <trkpt lat="44.31656" lon="4.77578">
        <ele>239</ele>
        <time>2014-11-13T16:44:37Z</time>
      </trkpt>
      <trkpt lat="44.31655" lon="4.77578">
        <ele>239</ele>
        <time>2014-11-13T16:44:38Z</time>
      </trkpt>
      <trkpt lat="44.3165" lon="4.7757">
        <ele>239</ele>
        <time>2014-11-13T16:44:44Z</time>
      </trkpt>
      <trkpt lat="44.31644" lon="4.77562">
        <ele>240</ele>
        <time>2014-11-13T16:44:51Z</time>
      </trkpt>
      <trkpt lat="44.31639" lon="4.77559">
        <ele>240</ele>
        <time>2014-11-13T16:44:58Z</time>
      </trkpt>
      <trkpt lat="44.31635" lon="4.77556">
        <ele>240</ele>
        <time>2014-11-13T16:45:05Z</time>
      </trkpt>
      <trkpt lat="44.31632" lon="4.77558">
        <ele>239</ele>
        <time>2014-11-13T16:45:14Z</time>
      </trkpt>
      <trkpt lat="44.3163" lon="4.7756">
        <ele>239</ele>
        <time>2014-11-13T16:45:17Z</time>
      </trkpt>
      <trkpt lat="44.31624" lon="4.77563">
        <ele>239</ele>
        <time>2014-11-13T16:45:24Z</time>
      </trkpt>
      <trkpt lat="44.31617" lon="4.77567">
        <ele>237</ele>
        <time>2014-11-13T16:45:34Z</time>
      </trkpt>
      <trkpt lat="44.31614" lon="4.77568">
        <ele>237</ele>
        <time>2014-11-13T16:45:40Z</time>
      </trkpt>
      <trkpt lat="44.31612" lon="4.7757">
        <ele>236</ele>
        <time>2014-11-13T16:45:47Z</time>
      </trkpt>
      <trkpt lat="44.31608" lon="4.77567">
        <ele>235</ele>
        <time>2014-11-13T16:45:52Z</time>
      </trkpt>
      <trkpt lat="44.31605" lon="4.77563">
        <ele>235</ele>
        <time>2014-11-13T16:45:57Z</time>
      </trkpt>
      <trkpt lat="44.31603" lon="4.77558">
        <ele>235</ele>
        <time>2014-11-13T16:46:01Z</time>
      </trkpt>
      <trkpt lat="44.316" lon="4.77557">
        <ele>235</ele>
        <time>2014-11-13T16:46:03Z</time>
      </trkpt>
      <trkpt lat="44.316" lon="4.7755">
        <ele>235</ele>
        <time>2014-11-13T16:46:08Z</time>
      </trkpt>
      <trkpt lat="44.31596" lon="4.7755">
        <ele>235</ele>
        <time>2014-11-13T16:46:13Z</time>
      </trkpt>
      <trkpt lat="44.31589" lon="4.77552">
        <ele>235</ele>
        <time>2014-11-13T16:46:19Z</time>
      </trkpt>
      <trkpt lat="44.31587" lon="4.7755">
        <ele>235</ele>
        <time>2014-11-13T16:46:22Z</time>
      </trkpt>
      <trkpt lat="44.31579" lon="4.77543">
        <ele>234</ele>
        <time>2014-11-13T16:46:28Z</time>
      </trkpt>
      <trkpt lat="44.31575" lon="4.77539">
        <ele>234</ele>
        <time>2014-11-13T16:46:36Z</time>
      </trkpt>
      <trkpt lat="44.31574" lon="4.77537">
        <ele>233</ele>
        <time>2014-11-13T16:46:41Z</time>
      </trkpt>
      <trkpt lat="44.31573" lon="4.77532">
        <ele>232</ele>
        <time>2014-11-13T16:46:46Z</time>
      </trkpt>
      <trkpt lat="44.31567" lon="4.77524">
        <ele>231</ele>
        <time>2014-11-13T16:46:52Z</time>
      </trkpt>
      <trkpt lat="44.31567" lon="4.77524">
        <ele>230</ele>
        <time>2014-11-13T16:46:53Z</time>
      </trkpt>
      <trkpt lat="44.31562" lon="4.77522">
        <ele>229</ele>
        <time>2014-11-13T16:47:00Z</time>
      </trkpt>
      <trkpt lat="44.31557" lon="4.77524">
        <ele>228</ele>
        <time>2014-11-13T16:47:06Z</time>
      </trkpt>
      <trkpt lat="44.31556" lon="4.77524">
        <ele>228</ele>
        <time>2014-11-13T16:47:07Z</time>
      </trkpt>
      <trkpt lat="44.3155" lon="4.77523">
        <ele>227</ele>
        <time>2014-11-13T16:47:15Z</time>
      </trkpt>
      <trkpt lat="44.31548" lon="4.77525">
        <ele>226</ele>
        <time>2014-11-13T16:47:22Z</time>
      </trkpt>
      <trkpt lat="44.31546" lon="4.77528">
        <ele>225</ele>
        <time>2014-11-13T16:47:30Z</time>
      </trkpt>
      <trkpt lat="44.31542" lon="4.77529">
        <ele>224</ele>
        <time>2014-11-13T16:47:38Z</time>
      </trkpt>
      <trkpt lat="44.31541" lon="4.77531">
        <ele>224</ele>
        <time>2014-11-13T16:47:44Z</time>
      </trkpt>
      <trkpt lat="44.31538" lon="4.77536">
        <ele>222</ele>
        <time>2014-11-13T16:47:55Z</time>
      </trkpt>
      <trkpt lat="44.31536" lon="4.77538">
        <ele>220</ele>
        <time>2014-11-13T16:48:02Z</time>
      </trkpt>
      <trkpt lat="44.31533" lon="4.77539">
        <ele>219</ele>
        <time>2014-11-13T16:48:09Z</time>
      </trkpt>
      <trkpt lat="44.31529" lon="4.77539">
        <ele>218</ele>
        <time>2014-11-13T16:48:16Z</time>
      </trkpt>
      <trkpt lat="44.31529" lon="4.77538">
        <ele>218</ele>
        <time>2014-11-13T16:48:28Z</time>
      </trkpt>
      <trkpt lat="44.31526" lon="4.77539">
        <ele>217</ele>
        <time>2014-11-13T16:48:36Z</time>
      </trkpt>
      <trkpt lat="44.31522" lon="4.77545">
        <ele>216</ele>
        <time>2014-11-13T16:48:45Z</time>
      </trkpt>
      <trkpt lat="44.3152" lon="4.77543">
        <ele>215</ele>
        <time>2014-11-13T16:48:51Z</time>
      </trkpt>
      <trkpt lat="44.31514" lon="4.77546">
        <ele>213</ele>
        <time>2014-11-13T16:49:00Z</time>
      </trkpt>
      <trkpt lat="44.31513" lon="4.77546">
        <ele>213</ele>
        <time>2014-11-13T16:49:01Z</time>
      </trkpt>
      <trkpt lat="44.31509" lon="4.77548">
        <ele>212</ele>
        <time>2014-11-13T16:49:09Z</time>
      </trkpt>
      <trkpt lat="44.31511" lon="4.77554">
        <ele>211</ele>
        <time>2014-11-13T16:49:17Z</time>
      </trkpt>
      <trkpt lat="44.31512" lon="4.77555">
        <ele>211</ele>
        <time>2014-11-13T16:49:22Z</time>
      </trkpt>
      <trkpt lat="44.31512" lon="4.77555">
        <ele>211</ele>
        <time>2014-11-13T16:49:38Z</time>
      </trkpt>
      <trkpt lat="44.31513" lon="4.77555">
        <ele>212</ele>
        <time>2014-11-13T16:49:47Z</time>
      </trkpt>
      <trkpt lat="44.31513" lon="4.77555">
        <ele>211</ele>
        <time>2014-11-13T16:50:03Z</time>
      </trkpt>
      <trkpt lat="44.31513" lon="4.77558">
        <ele>211</ele>
        <time>2014-11-13T16:50:14Z</time>
      </trkpt>
      <trkpt lat="44.31515" lon="4.77561">
        <ele>211</ele>
        <time>2014-11-13T16:50:24Z</time>
      </trkpt>
      <trkpt lat="44.31516" lon="4.77563">
        <ele>210</ele>
        <time>2014-11-13T16:50:31Z</time>
      </trkpt>
      <trkpt lat="44.31521" lon="4.77571">
        <ele>209</ele>
        <time>2014-11-13T16:50:40Z</time>
      </trkpt>
      <trkpt lat="44.31523" lon="4.77573">
        <ele>208</ele>
        <time>2014-11-13T16:50:48Z</time>
      </trkpt>
      <trkpt lat="44.31523" lon="4.77573">
        <ele>207</ele>
        <time>2014-11-13T16:50:54Z</time>
      </trkpt>
      <trkpt lat="44.31523" lon="4.77574">
        <ele>208</ele>
        <time>2014-11-13T16:51:04Z</time>
      </trkpt>
      <trkpt lat="44.31524" lon="4.77576">
        <ele>207</ele>
        <time>2014-11-13T16:51:12Z</time>
      </trkpt>
      <trkpt lat="44.31525" lon="4.77577">
        <ele>206</ele>
        <time>2014-11-13T16:51:19Z</time>
      </trkpt>
      <trkpt lat="44.31526" lon="4.77579">
        <ele>205</ele>
        <time>2014-11-13T16:51:26Z</time>
      </trkpt>
      <trkpt lat="44.31528" lon="4.77582">
        <ele>204</ele>
        <time>2014-11-13T16:51:32Z</time>
      </trkpt>
      <trkpt lat="44.3153" lon="4.77586">
        <ele>204</ele>
        <time>2014-11-13T16:51:38Z</time>
      </trkpt>
      <trkpt lat="44.3153" lon="4.77586">
        <ele>204</ele>
        <time>2014-11-13T16:51:41Z</time>
      </trkpt>
      <trkpt lat="44.31533" lon="4.77594">
        <ele>202</ele>
        <time>2014-11-13T16:51:51Z</time>
      </trkpt>
      <trkpt lat="44.31533" lon="4.77595">
        <ele>202</ele>
        <time>2014-11-13T16:51:59Z</time>
      </trkpt>
      <trkpt lat="44.31533" lon="4.77595">
        <ele>202</ele>
        <time>2014-11-13T16:52:19Z</time>
      </trkpt>
      <trkpt lat="44.31531" lon="4.77594">
        <ele>201</ele>
        <time>2014-11-13T16:52:42Z</time>
      </trkpt>
      <trkpt lat="44.31528" lon="4.77591">
        <ele>201</ele>
        <time>2014-11-13T16:52:51Z</time>
      </trkpt>
      <trkpt lat="44.31524" lon="4.77588">
        <ele>200</ele>
        <time>2014-11-13T16:52:59Z</time>
      </trkpt>
      <trkpt lat="44.31521" lon="4.77585">
        <ele>199</ele>
        <time>2014-11-13T16:53:09Z</time>
      </trkpt>
      <trkpt lat="44.31516" lon="4.77578">
        <ele>198</ele>
        <time>2014-11-13T16:53:20Z</time>
      </trkpt>
      <trkpt lat="44.31516" lon="4.77578">
        <ele>198</ele>
        <time>2014-11-13T16:53:32Z</time>
      </trkpt>
      <trkpt lat="44.31516" lon="4.77579">
        <ele>198</ele>
        <time>2014-11-13T16:53:42Z</time>
      </trkpt>
      <trkpt lat="44.31515" lon="4.77577">
        <ele>197</ele>
        <time>2014-11-13T16:53:54Z</time>
      </trkpt>
      <trkpt lat="44.31513" lon="4.77577">
        <ele>196</ele>
        <time>2014-11-13T16:54:06Z</time>
      </trkpt>
      <trkpt lat="44.31511" lon="4.77576">
        <ele>196</ele>
        <time>2014-11-13T16:54:14Z</time>
      </trkpt>
      <trkpt lat="44.31511" lon="4.77577">
        <ele>195</ele>
        <time>2014-11-13T16:54:23Z</time>
      </trkpt>
      <trkpt lat="44.31511" lon="4.77577">
        <ele>195</ele>
        <time>2014-11-13T16:54:30Z</time>
      </trkpt>
      <trkpt lat="44.31509" lon="4.77575">
        <ele>195</ele>
        <time>2014-11-13T16:54:38Z</time>
      </trkpt>
      <trkpt lat="44.31506" lon="4.77575">
        <ele>193</ele>
        <time>2014-11-13T16:54:46Z</time>
      </trkpt>
      <trkpt lat="44.31506" lon="4.77574">
        <ele>193</ele>
        <time>2014-11-13T16:54:53Z</time>
      </trkpt>
      <trkpt lat="44.31506" lon="4.77573">
        <ele>193</ele>
        <time>2014-11-13T16:55:02Z</time>
      </trkpt>
      <trkpt lat="44.31503" lon="4.77573">
        <ele>192</ele>
        <time>2014-11-13T16:55:15Z</time>
      </trkpt>
      <trkpt lat="44.31501" lon="4.77572">
        <ele>190</ele>
        <time>2014-11-13T16:55:21Z</time>
      </trkpt>
      <trkpt lat="44.31499" lon="4.77572">
        <ele>190</ele>
        <time>2014-11-13T16:55:27Z</time>
      </trkpt>
      <trkpt lat="44.31496" lon="4.7757">
        <ele>190</ele>
        <time>2014-11-13T16:55:36Z</time>
      </trkpt>
      <trkpt lat="44.31495" lon="4.77569">
        <ele>189</ele>
        <time>2014-11-13T16:55:44Z</time>
      </trkpt>
      <trkpt lat="44.31491" lon="4.77567">
        <ele>188</ele>
        <time>2014-11-13T16:55:49Z</time>
      </trkpt>
      <trkpt lat="44.31486" lon="4.77564">
        <ele>186</ele>
        <time>2014-11-13T16:55:57Z</time>
      </trkpt>
      <trkpt lat="44.31484" lon="4.77565">
        <ele>186</ele>
        <time>2014-11-13T16:56:08Z</time>
      </trkpt>
      <trkpt lat="44.31483" lon="4.77565">
        <ele>185</ele>
        <time>2014-11-13T16:56:16Z</time>
      </trkpt>
      <trkpt lat="44.31482" lon="4.77565">
        <ele>185</ele>
        <time>2014-11-13T16:56:26Z</time>
      </trkpt>
      <trkpt lat="44.3148" lon="4.77564">
        <ele>184</ele>
        <time>2014-11-13T16:56:37Z</time>
      </trkpt>
      <trkpt lat="44.31479" lon="4.77565">
        <ele>184</ele>
        <time>2014-11-13T16:56:45Z</time>
      </trkpt>
      <trkpt lat="44.31477" lon="4.77564">
        <ele>182</ele>
        <time>2014-11-13T16:56:54Z</time>
      </trkpt>
      <trkpt lat="44.31473" lon="4.77567">
        <ele>180</ele>
        <time>2014-11-13T16:57:03Z</time>
      </trkpt>
      <trkpt lat="44.31469" lon="4.77567">
        <ele>179</ele>
        <time>2014-11-13T16:57:14Z</time>
      </trkpt>
      <trkpt lat="44.31466" lon="4.77566">
        <ele>178</ele>
        <time>2014-11-13T16:57:26Z</time>
      </trkpt>
      <trkpt lat="44.31465" lon="4.77567">
        <ele>178</ele>
        <time>2014-11-13T16:57:35Z</time>
      </trkpt>
      <trkpt lat="44.31463" lon="4.77568">
        <ele>177</ele>
        <time>2014-11-13T16:57:41Z</time>
      </trkpt>
      <trkpt lat="44.31461" lon="4.77569">
        <ele>175</ele>
        <time>2014-11-13T16:57:49Z</time>
      </trkpt>
      <trkpt lat="44.31459" lon="4.77568">
        <ele>174</ele>
        <time>2014-11-13T16:57:57Z</time>
      </trkpt>
      <trkpt lat="44.31455" lon="4.77567">
        <ele>173</ele>
        <time>2014-11-13T16:58:05Z</time>
      </trkpt>
      <trkpt lat="44.31454" lon="4.7757">
        <ele>171</ele>
        <time>2014-11-13T16:58:14Z</time>
      </trkpt>
      <trkpt lat="44.31452" lon="4.77572">
        <ele>170</ele>
        <time>2014-11-13T16:58:22Z</time>
      </trkpt>
      <trkpt lat="44.31451" lon="4.77574">
        <ele>169</ele>
        <time>2014-11-13T16:58:32Z</time>
      </trkpt>
      <trkpt lat="44.31449" lon="4.77574">
        <ele>168</ele>
        <time>2014-11-13T16:58:45Z</time>
      </trkpt>
      <trkpt lat="44.31447" lon="4.77573">
        <ele>167</ele>
        <time>2014-11-13T16:59:01Z</time>
      </trkpt>
      <trkpt lat="44.31442" lon="4.77573">
        <ele>165</ele>
        <time>2014-11-13T16:59:09Z</time>
      </trkpt>
      <trkpt lat="44.31437" lon="4.77572">
        <ele>164</ele>
        <time>2014-11-13T16:59:16Z</time>
      </trkpt>
      <trkpt lat="44.31435" lon="4.77572">
        <ele>164</ele>
        <time>2014-11-13T16:59:17Z</time>
      </trkpt>
      <trkpt lat="44.31434" lon="4.77574">
        <ele>163</ele>
        <time>2014-11-13T16:59:19Z</time>
      </trkpt>
      <trkpt lat="44.31429" lon="4.77576">
        <ele>161</ele>
        <time>2014-11-13T16:59:26Z</time>
      </trkpt>
      <trkpt lat="44.31429" lon="4.77575">
        <ele>161</ele>
        <time>2014-11-13T16:59:28Z</time>
      </trkpt>
      <trkpt lat="44.31423" lon="4.77578">
        <ele>158</ele>
        <time>2014-11-13T16:59:35Z</time>
      </trkpt>
      <trkpt lat="44.31423" lon="4.77582">
        <ele>158</ele>
        <time>2014-11-13T16:59:41Z</time>
      </trkpt>
      <trkpt lat="44.31422" lon="4.77584">
        <ele>158</ele>
        <time>2014-11-13T17:00:00Z</time>
      </trkpt>
      <trkpt lat="44.31423" lon="4.77584">
        <ele>157</ele>
        <time>2014-11-13T17:00:09Z</time>
      </trkpt>
      <trkpt lat="44.31422" lon="4.77585">
        <ele>158</ele>
        <time>2014-11-13T17:00:30Z</time>
      </trkpt>
      <trkpt lat="44.31423" lon="4.77586">
        <ele>157</ele>
        <time>2014-11-13T17:00:37Z</time>
      </trkpt>
      <trkpt lat="44.31423" lon="4.77585">
        <ele>157</ele>
        <time>2014-11-13T17:01:05Z</time>
      </trkpt>
      <trkpt lat="44.31424" lon="4.77584">
        <ele>157</ele>
        <time>2014-11-13T17:01:16Z</time>
      </trkpt>
      <trkpt lat="44.31424" lon="4.77584">
        <ele>158</ele>
        <time>2014-11-13T17:02:02Z</time>
      </trkpt>
      <trkpt lat="44.31425" lon="4.77584">
        <ele>157</ele>
        <time>2014-11-13T17:02:26Z</time>
      </trkpt>
      <trkpt lat="44.31425" lon="4.77586">
        <ele>157</ele>
        <time>2014-11-13T17:02:54Z</time>
      </trkpt>
      <trkpt lat="44.31432" lon="4.77593">
        <ele>157</ele>
        <time>2014-11-13T17:03:03Z</time>
      </trkpt>
      <trkpt lat="44.31433" lon="4.77595">
        <ele>156</ele>
        <time>2014-11-13T17:03:05Z</time>
      </trkpt>
      <trkpt lat="44.31438" lon="4.77604">
        <ele>156</ele>
        <time>2014-11-13T17:03:10Z</time>
      </trkpt>
      <trkpt lat="44.31442" lon="4.77614">
        <ele>156</ele>
        <time>2014-11-13T17:03:18Z</time>
      </trkpt>
      <trkpt lat="44.31444" lon="4.77618">
        <ele>156</ele>
        <time>2014-11-13T17:03:22Z</time>
      </trkpt>
      <trkpt lat="44.31445" lon="4.77624">
        <ele>155</ele>
        <time>2014-11-13T17:03:28Z</time>
      </trkpt>
      <trkpt lat="44.31445" lon="4.77629">
        <ele>154</ele>
        <time>2014-11-13T17:03:35Z</time>
      </trkpt>
      <trkpt lat="44.31442" lon="4.77637">
        <ele>153</ele>
        <time>2014-11-13T17:03:43Z</time>
      </trkpt>
      <trkpt lat="44.31441" lon="4.77643">
        <ele>152</ele>
        <time>2014-11-13T17:03:50Z</time>
      </trkpt>
      <trkpt lat="44.31439" lon="4.77651">
        <ele>150</ele>
        <time>2014-11-13T17:03:57Z</time>
      </trkpt>
      <trkpt lat="44.31438" lon="4.77663">
        <ele>149</ele>
        <time>2014-11-13T17:04:07Z</time>
      </trkpt>
      <trkpt lat="44.31433" lon="4.77672">
        <ele>147</ele>
        <time>2014-11-13T17:04:17Z</time>
      </trkpt>
      <trkpt lat="44.31432" lon="4.77673">
        <ele>147</ele>
        <time>2014-11-13T17:04:18Z</time>
      </trkpt>
      <trkpt lat="44.31431" lon="4.77679">
        <ele>147</ele>
        <time>2014-11-13T17:04:22Z</time>
      </trkpt>
      <trkpt lat="44.31432" lon="4.77686">
        <ele>146</ele>
        <time>2014-11-13T17:04:30Z</time>
      </trkpt>
      <trkpt lat="44.31433" lon="4.7769">
        <ele>145</ele>
        <time>2014-11-13T17:04:39Z</time>
      </trkpt>
      <trkpt lat="44.31437" lon="4.77701">
        <ele>144</ele>
        <time>2014-11-13T17:04:48Z</time>
      </trkpt>
      <trkpt lat="44.3144" lon="4.7771">
        <ele>143</ele>
        <time>2014-11-13T17:04:57Z</time>
      </trkpt>
      <trkpt lat="44.31435" lon="4.77715">
        <ele>142</ele>
        <time>2014-11-13T17:05:06Z</time>
      </trkpt>
      <trkpt lat="44.31433" lon="4.77721">
        <ele>140</ele>
        <time>2014-11-13T17:05:27Z</time>
      </trkpt>
      <trkpt lat="44.3143" lon="4.77724">
        <ele>140</ele>
        <time>2014-11-13T17:05:37Z</time>
      </trkpt>
      <trkpt lat="44.31432" lon="4.77722">
        <ele>140</ele>
        <time>2014-11-13T17:05:47Z</time>
      </trkpt>
      <trkpt lat="44.31431" lon="4.77723">
        <ele>140</ele>
        <time>2014-11-13T17:06:05Z</time>
      </trkpt>
      <trkpt lat="44.31426" lon="4.77732">
        <ele>138</ele>
        <time>2014-11-13T17:06:15Z</time>
      </trkpt>
      <trkpt lat="44.31424" lon="4.77736">
        <ele>137</ele>
        <time>2014-11-13T17:06:24Z</time>
      </trkpt>
      <trkpt lat="44.31424" lon="4.77735">
        <ele>137</ele>
        <time>2014-11-13T17:06:38Z</time>
      </trkpt>
      <trkpt lat="44.31424" lon="4.77736">
        <ele>137</ele>
        <time>2014-11-13T17:06:51Z</time>
      </trkpt>
      <trkpt lat="44.31425" lon="4.77741">
        <ele>136</ele>
        <time>2014-11-13T17:07:18Z</time>
      </trkpt>
      <trkpt lat="44.31422" lon="4.77752">
        <ele>135</ele>
        <time>2014-11-13T17:07:24Z</time>
      </trkpt>
      <trkpt lat="44.31421" lon="4.77761">
        <ele>135</ele>
        <time>2014-11-13T17:07:29Z</time>
      </trkpt>
      <trkpt lat="44.31419" lon="4.77765">
        <ele>134</ele>
        <time>2014-11-13T17:07:32Z</time>
      </trkpt>
      <trkpt lat="44.31418" lon="4.77771">
        <ele>133</ele>
        <time>2014-11-13T17:07:36Z</time>
      </trkpt>
      <trkpt lat="44.31418" lon="4.77776">
        <ele>133</ele>
        <time>2014-11-13T17:07:39Z</time>
      </trkpt>
      <trkpt lat="44.31419" lon="4.7778">
        <ele>133</ele>
        <time>2014-11-13T17:07:41Z</time>
      </trkpt>
      <trkpt lat="44.31416" lon="4.77786">
        <ele>131</ele>
        <time>2014-11-13T17:07:47Z</time>
      </trkpt>
      <trkpt lat="44.31415" lon="4.77788">
        <ele>131</ele>
        <time>2014-11-13T17:07:49Z</time>
      </trkpt>
      <trkpt lat="44.31412" lon="4.77795">
        <ele>131</ele>
        <time>2014-11-13T17:07:55Z</time>
      </trkpt>
      <trkpt lat="44.31412" lon="4.77806">
        <ele>130</ele>
        <time>2014-11-13T17:08:01Z</time>
      </trkpt>
      <trkpt lat="44.3141" lon="4.77814">
        <ele>129</ele>
        <time>2014-11-13T17:08:09Z</time>
      </trkpt>
      <trkpt lat="44.31409" lon="4.77818">
        <ele>128</ele>
        <time>2014-11-13T17:08:12Z</time>
      </trkpt>
      <trkpt lat="44.31409" lon="4.77824">
        <ele>128</ele>
        <time>2014-11-13T17:08:16Z</time>
      </trkpt>
      <trkpt lat="44.31406" lon="4.77833">
        <ele>127</ele>
        <time>2014-11-13T17:08:22Z</time>
      </trkpt>
      <trkpt lat="44.314" lon="4.7784">
        <ele>127</ele>
        <time>2014-11-13T17:08:30Z</time>
      </trkpt>
      <trkpt lat="44.31398" lon="4.77845">
        <ele>127</ele>
        <time>2014-11-13T17:08:38Z</time>
      </trkpt>
      <trkpt lat="44.31396" lon="4.77851">
        <ele>126</ele>
        <time>2014-11-13T17:08:43Z</time>
      </trkpt>
      <trkpt lat="44.31396" lon="4.77854">
        <ele>126</ele>
        <time>2014-11-13T17:08:45Z</time>
      </trkpt>
      <trkpt lat="44.31393" lon="4.77861">
        <ele>126</ele>
        <time>2014-11-13T17:08:51Z</time>
      </trkpt>
      <trkpt lat="44.31393" lon="4.77862">
        <ele>125</ele>
        <time>2014-11-13T17:08:52Z</time>
      </trkpt>
      <trkpt lat="44.31391" lon="4.77872">
        <ele>124</ele>
        <time>2014-11-13T17:09:00Z</time>
      </trkpt>
      <trkpt lat="44.3139" lon="4.77874">
        <ele>124</ele>
        <time>2014-11-13T17:09:07Z</time>
      </trkpt>
      <trkpt lat="44.3139" lon="4.77875">
        <ele>124</ele>
        <time>2014-11-13T17:09:16Z</time>
      </trkpt>
      <trkpt lat="44.31387" lon="4.77877">
        <ele>123</ele>
        <time>2014-11-13T17:09:27Z</time>
      </trkpt>
      <trkpt lat="44.31386" lon="4.77878">
        <ele>123</ele>
        <time>2014-11-13T17:09:42Z</time>
      </trkpt>
      <trkpt lat="44.31386" lon="4.77878">
        <ele>123</ele>
        <time>2014-11-13T17:09:56Z</time>
      </trkpt>
      <trkpt lat="44.31387" lon="4.77879">
        <ele>123</ele>
        <time>2014-11-13T17:10:37Z</time>
      </trkpt>
      <trkpt lat="44.31386" lon="4.77878">
        <ele>122</ele>
        <time>2014-11-13T17:10:44Z</time>
      </trkpt>
      <trkpt lat="44.31386" lon="4.77881">
        <ele>123</ele>
        <time>2014-11-13T17:10:52Z</time>
      </trkpt>
      <trkpt lat="44.31383" lon="4.77882">
        <ele>121</ele>
        <time>2014-11-13T17:11:01Z</time>
      </trkpt>
      <trkpt lat="44.31379" lon="4.77887">
        <ele>120</ele>
        <time>2014-11-13T17:11:09Z</time>
      </trkpt>
      <trkpt lat="44.31374" lon="4.77891">
        <ele>118</ele>
        <time>2014-11-13T17:11:19Z</time>
      </trkpt>
      <trkpt lat="44.31374" lon="4.77895">
        <ele>117</ele>
        <time>2014-11-13T17:11:29Z</time>
      </trkpt>
      <trkpt lat="44.31371" lon="4.779">
        <ele>117</ele>
        <time>2014-11-13T17:11:37Z</time>
      </trkpt>
      <trkpt lat="44.31367" lon="4.77903">
        <ele>117</ele>
        <time>2014-11-13T17:11:41Z</time>
      </trkpt>
      <trkpt lat="44.31364" lon="4.77907">
        <ele>116</ele>
        <time>2014-11-13T17:11:46Z</time>
      </trkpt>
      <trkpt lat="44.31359" lon="4.77915">
        <ele>116</ele>
        <time>2014-11-13T17:11:50Z</time>
      </trkpt>
      <trkpt lat="44.31353" lon="4.77919">
        <ele>115</ele>
        <time>2014-11-13T17:11:57Z</time>
      </trkpt>
      <trkpt lat="44.31352" lon="4.77924">
        <ele>114</ele>
        <time>2014-11-13T17:12:05Z</time>
      </trkpt>
      <trkpt lat="44.31352" lon="4.77925">
        <ele>113</ele>
        <time>2014-11-13T17:12:22Z</time>
      </trkpt>
      <trkpt lat="44.31349" lon="4.77931">
        <ele>112</ele>
        <time>2014-11-13T17:12:29Z</time>
      </trkpt>
      <trkpt lat="44.3135" lon="4.77933">
        <ele>113</ele>
        <time>2014-11-13T17:12:36Z</time>
      </trkpt>
      <trkpt lat="44.31349" lon="4.77935">
        <ele>112</ele>
        <time>2014-11-13T17:12:44Z</time>
      </trkpt>
      <trkpt lat="44.31345" lon="4.7794">
        <ele>112</ele>
        <time>2014-11-13T17:12:50Z</time>
      </trkpt>
      <trkpt lat="44.31342" lon="4.77943">
        <ele>111</ele>
        <time>2014-11-13T17:12:54Z</time>
      </trkpt>
      <trkpt lat="44.3134" lon="4.77948">
        <ele>111</ele>
        <time>2014-11-13T17:12:58Z</time>
      </trkpt>
      <trkpt lat="44.31335" lon="4.77953">
        <ele>111</ele>
        <time>2014-11-13T17:13:05Z</time>
      </trkpt>
      <trkpt lat="44.31329" lon="4.7796">
        <ele>111</ele>
        <time>2014-11-13T17:13:14Z</time>
      </trkpt>
      <trkpt lat="44.31328" lon="4.77961">
        <ele>111</ele>
        <time>2014-11-13T17:13:15Z</time>
      </trkpt>
      <trkpt lat="44.31326" lon="4.77962">
        <ele>111</ele>
        <time>2014-11-13T17:13:17Z</time>
      </trkpt>
      <trkpt lat="44.31318" lon="4.77966">
        <ele>111</ele>
        <time>2014-11-13T17:13:24Z</time>
      </trkpt>
      <trkpt lat="44.31314" lon="4.77971">
        <ele>110</ele>
        <time>2014-11-13T17:13:31Z</time>
      </trkpt>
      <trkpt lat="44.31308" lon="4.77971">
        <ele>109</ele>
        <time>2014-11-13T17:13:40Z</time>
      </trkpt>
      <trkpt lat="44.31305" lon="4.77977">
        <ele>109</ele>
        <time>2014-11-13T17:13:50Z</time>
      </trkpt>
      <trkpt lat="44.31303" lon="4.77975">
        <ele>109</ele>
        <time>2014-11-13T17:14:00Z</time>
      </trkpt>
      <trkpt lat="44.31298" lon="4.77976">
        <ele>108</ele>
        <time>2014-11-13T17:14:13Z</time>
      </trkpt>
      <trkpt lat="44.31296" lon="4.77976">
        <ele>107</ele>
        <time>2014-11-13T17:14:15Z</time>
      </trkpt>
      <trkpt lat="44.31292" lon="4.77976">
        <ele>107</ele>
        <time>2014-11-13T17:14:19Z</time>
      </trkpt>
      <trkpt lat="44.31285" lon="4.7798">
        <ele>106</ele>
        <time>2014-11-13T17:14:27Z</time>
      </trkpt>
      <trkpt lat="44.31274" lon="4.77987">
        <ele>104</ele>
        <time>2014-11-13T17:14:40Z</time>
      </trkpt>
      <trkpt lat="44.31268" lon="4.77986">
        <ele>102</ele>
        <time>2014-11-13T17:14:50Z</time>
      </trkpt>
      <trkpt lat="44.31263" lon="4.77986">
        <ele>101</ele>
        <time>2014-11-13T17:14:58Z</time>
      </trkpt>
      <trkpt lat="44.31261" lon="4.77987">
        <ele>101</ele>
        <time>2014-11-13T17:15:03Z</time>
      </trkpt>
      <trkpt lat="44.31256" lon="4.77989">
        <ele>100</ele>
        <time>2014-11-13T17:15:07Z</time>
      </trkpt>
      <trkpt lat="44.3125" lon="4.77989">
        <ele>99</ele>
        <time>2014-11-13T17:15:15Z</time>
      </trkpt>
      <trkpt lat="44.31242" lon="4.77995">
        <ele>98</ele>
        <time>2014-11-13T17:15:24Z</time>
      </trkpt>
      <trkpt lat="44.31237" lon="4.78">
        <ele>97</ele>
        <time>2014-11-13T17:15:31Z</time>
      </trkpt>
      <trkpt lat="44.3123" lon="4.78007">
        <ele>96</ele>
        <time>2014-11-13T17:15:38Z</time>
      </trkpt>
      <trkpt lat="44.31228" lon="4.7801">
        <ele>97</ele>
        <time>2014-11-13T17:15:45Z</time>
      </trkpt>
      <trkpt lat="44.31227" lon="4.78012">
        <ele>96</ele>
        <time>2014-11-13T17:15:58Z</time>
      </trkpt>
      <trkpt lat="44.31224" lon="4.78017">
        <ele>95</ele>
        <time>2014-11-13T17:16:09Z</time>
      </trkpt>
      <trkpt lat="44.31218" lon="4.78018">
        <ele>93</ele>
        <time>2014-11-13T17:16:15Z</time>
      </trkpt>
      <trkpt lat="44.31211" lon="4.7802">
        <ele>92</ele>
        <time>2014-11-13T17:16:21Z</time>
      </trkpt>
      <trkpt lat="44.31201" lon="4.78018">
        <ele>91</ele>
        <time>2014-11-13T17:16:33Z</time>
      </trkpt>
      <trkpt lat="44.31196" lon="4.78021">
        <ele>90</ele>
        <time>2014-11-13T17:16:39Z</time>
      </trkpt>
      <trkpt lat="44.31191" lon="4.78024">
        <ele>90</ele>
        <time>2014-11-13T17:16:43Z</time>
      </trkpt>
      <trkpt lat="44.31186" lon="4.78026">
        <ele>89</ele>
        <time>2014-11-13T17:16:53Z</time>
      </trkpt>
      <trkpt lat="44.31188" lon="4.78027">
        <ele>89</ele>
        <time>2014-11-13T17:17:03Z</time>
      </trkpt>
      <trkpt lat="44.31188" lon="4.78026">
        <ele>89</ele>
        <time>2014-11-13T17:17:14Z</time>
      </trkpt>
      <trkpt lat="44.31198" lon="4.78022">
        <ele>91</ele>
        <time>2014-11-13T17:17:24Z</time>
      </trkpt>
      <trkpt lat="44.31205" lon="4.78022">
        <ele>91</ele>
        <time>2014-11-13T17:17:31Z</time>
      </trkpt>
      <trkpt lat="44.31207" lon="4.78022">
        <ele>92</ele>
        <time>2014-11-13T17:17:34Z</time>
      </trkpt>
      <trkpt lat="44.31209" lon="4.78023">
        <ele>93</ele>
        <time>2014-11-13T17:17:36Z</time>
      </trkpt>
      <trkpt lat="44.31213" lon="4.78022">
        <ele>93</ele>
        <time>2014-11-13T17:17:44Z</time>
      </trkpt>
      <trkpt lat="44.31214" lon="4.78023">
        <ele>93</ele>
        <time>2014-11-13T17:17:46Z</time>
      </trkpt>
      <trkpt lat="44.31213" lon="4.78025">
        <ele>94</ele>
        <time>2014-11-13T17:17:54Z</time>
      </trkpt>
      <trkpt lat="44.31215" lon="4.78032">
        <ele>95</ele>
        <time>2014-11-13T17:18:00Z</time>
      </trkpt>
      <trkpt lat="44.31215" lon="4.78037">
        <ele>95</ele>
        <time>2014-11-13T17:18:07Z</time>
      </trkpt>
      <trkpt lat="44.31215" lon="4.78038">
        <ele>95</ele>
        <time>2014-11-13T17:18:12Z</time>
      </trkpt>
      <trkpt lat="44.31215" lon="4.78035">
        <ele>95</ele>
        <time>2014-11-13T17:18:23Z</time>
      </trkpt>
      <trkpt lat="44.31217" lon="4.78036">
        <ele>95</ele>
        <time>2014-11-13T17:18:31Z</time>
      </trkpt>
      <trkpt lat="44.31215" lon="4.7804">
        <ele>94</ele>
        <time>2014-11-13T17:18:38Z</time>
      </trkpt>
      <trkpt lat="44.3121" lon="4.78043">
        <ele>93</ele>
        <time>2014-11-13T17:18:49Z</time>
      </trkpt>
      <trkpt lat="44.31207" lon="4.78046">
        <ele>92</ele>
        <time>2014-11-13T17:18:57Z</time>
      </trkpt>
      <trkpt lat="44.31206" lon="4.78053">
        <ele>92</ele>
        <time>2014-11-13T17:19:05Z</time>
      </trkpt>
      <trkpt lat="44.31204" lon="4.78056">
        <ele>91</ele>
        <time>2014-11-13T17:19:13Z</time>
      </trkpt>
      <trkpt lat="44.31204" lon="4.78057">
        <ele>91</ele>
        <time>2014-11-13T17:19:32Z</time>
      </trkpt>
      <trkpt lat="44.31201" lon="4.78059">
        <ele>90</ele>
        <time>2014-11-13T17:19:41Z</time>
      </trkpt>
      <trkpt lat="44.31197" lon="4.78063">
        <ele>90</ele>
        <time>2014-11-13T17:19:49Z</time>
      </trkpt>
      <trkpt lat="44.31194" lon="4.78063">
        <ele>89</ele>
        <time>2014-11-13T17:19:56Z</time>
      </trkpt>
      <trkpt lat="44.31192" lon="4.78062">
        <ele>89</ele>
        <time>2014-11-13T17:20:01Z</time>
      </trkpt>
      <trkpt lat="44.31189" lon="4.78061">
        <ele>89</ele>
        <time>2014-11-13T17:20:07Z</time>
      </trkpt>
      <trkpt lat="44.31185" lon="4.78063">
        <ele>89</ele>
        <time>2014-11-13T17:20:14Z</time>
      </trkpt>
      <trkpt lat="44.31181" lon="4.78056">
        <ele>89</ele>
        <time>2014-11-13T17:20:22Z</time>
      </trkpt>
      <trkpt lat="44.31182" lon="4.7805">
        <ele>90</ele>
        <time>2014-11-13T17:20:27Z</time>
      </trkpt>
      <trkpt lat="44.31185" lon="4.78046">
        <ele>90</ele>
        <time>2014-11-13T17:20:31Z</time>
      </trkpt>
      <trkpt lat="44.31188" lon="4.78035">
        <ele>89</ele>
        <time>2014-11-13T17:20:37Z</time>
      </trkpt>
      <trkpt lat="44.31186" lon="4.78028">
        <ele>89</ele>
        <time>2014-11-13T17:20:43Z</time>
      </trkpt>
      <trkpt lat="44.31184" lon="4.78025">
        <ele>89</ele>
        <time>2014-11-13T17:20:46Z</time>
      </trkpt>
      <trkpt lat="44.31181" lon="4.78025">
        <ele>89</ele>
        <time>2014-11-13T17:20:48Z</time>
      </trkpt>
      <trkpt lat="44.31177" lon="4.78017">
        <ele>88</ele>
        <time>2014-11-13T17:20:53Z</time>
      </trkpt>
      <trkpt lat="44.31173" lon="4.7801">
        <ele>88</ele>
        <time>2014-11-13T17:20:59Z</time>
      </trkpt>
      <trkpt lat="44.31164" lon="4.78005">
        <ele>87</ele>
        <time>2014-11-13T17:21:04Z</time>
      </trkpt>
      <trkpt lat="44.31153" lon="4.78001">
        <ele>86</ele>
        <time>2014-11-13T17:21:12Z</time>
      </trkpt>
      <trkpt lat="44.31145" lon="4.78008">
        <ele>85</ele>
        <time>2014-11-13T17:21:19Z</time>
      </trkpt>
      <trkpt lat="44.3114" lon="4.78006">
        <ele>85</ele>
        <time>2014-11-13T17:21:23Z</time>
      </trkpt>
      <trkpt lat="44.31133" lon="4.78005">
        <ele>85</ele>
        <time>2014-11-13T17:21:31Z</time>
      </trkpt>
      <trkpt lat="44.31123" lon="4.78005">
        <ele>84</ele>
        <time>2014-11-13T17:21:42Z</time>
      </trkpt>
      <trkpt lat="44.31119" lon="4.78007">
        <ele>84</ele>
        <time>2014-11-13T17:21:49Z</time>
      </trkpt>
      <trkpt lat="44.31117" lon="4.78007">
        <ele>84</ele>
        <time>2014-11-13T17:21:51Z</time>
      </trkpt>
      <trkpt lat="44.31108" lon="4.78008">
        <ele>83</ele>
        <time>2014-11-13T17:22:00Z</time>
      </trkpt>
      <trkpt lat="44.31104" lon="4.78011">
        <ele>83</ele>
        <time>2014-11-13T17:22:04Z</time>
      </trkpt>
      <trkpt lat="44.31099" lon="4.7802">
        <ele>82</ele>
        <time>2014-11-13T17:22:12Z</time>
      </trkpt>
      <trkpt lat="44.31097" lon="4.78029">
        <ele>82</ele>
        <time>2014-11-13T17:22:18Z</time>
      </trkpt>
      <trkpt lat="44.31097" lon="4.78035">
        <ele>82</ele>
        <time>2014-11-13T17:22:23Z</time>
      </trkpt>
      <trkpt lat="44.31095" lon="4.78041">
        <ele>83</ele>
        <time>2014-11-13T17:22:28Z</time>
      </trkpt>
      <trkpt lat="44.31085" lon="4.78048">
        <ele>82</ele>
        <time>2014-11-13T17:22:39Z</time>
      </trkpt>
      <trkpt lat="44.31079" lon="4.78052">
        <ele>81</ele>
        <time>2014-11-13T17:22:48Z</time>
      </trkpt>
      <trkpt lat="44.31076" lon="4.78053">
        <ele>81</ele>
        <time>2014-11-13T17:22:53Z</time>
      </trkpt>
      <trkpt lat="44.31068" lon="4.78057">
        <ele>80</ele>
        <time>2014-11-13T17:23:02Z</time>
      </trkpt>
      <trkpt lat="44.31059" lon="4.7806">
        <ele>79</ele>
        <time>2014-11-13T17:23:12Z</time>
      </trkpt>
      <trkpt lat="44.31054" lon="4.78065">
        <ele>80</ele>
        <time>2014-11-13T17:23:20Z</time>
      </trkpt>
      <trkpt lat="44.31045" lon="4.78067">
        <ele>79</ele>
        <time>2014-11-13T17:23:29Z</time>
      </trkpt>
      <trkpt lat="44.31037" lon="4.78068">
        <ele>79</ele>
        <time>2014-11-13T17:23:36Z</time>
      </trkpt>
      <trkpt lat="44.31035" lon="4.78068">
        <ele>78</ele>
        <time>2014-11-13T17:23:38Z</time>
      </trkpt>
      <trkpt lat="44.31025" lon="4.78068">
        <ele>78</ele>
        <time>2014-11-13T17:23:48Z</time>
      </trkpt>
      <trkpt lat="44.3101" lon="4.7807">
        <ele>76</ele>
        <time>2014-11-13T17:24:05Z</time>
      </trkpt>
      <trkpt lat="44.31006" lon="4.78069">
        <ele>76</ele>
        <time>2014-11-13T17:24:09Z</time>
      </trkpt>
      <trkpt lat="44.31002" lon="4.7807">
        <ele>76</ele>
        <time>2014-11-13T17:24:15Z</time>
      </trkpt>
      <trkpt lat="44.30995" lon="4.78073">
        <ele>76</ele>
        <time>2014-11-13T17:24:21Z</time>
      </trkpt>
      <trkpt lat="44.30993" lon="4.78072">
        <ele>75</ele>
        <time>2014-11-13T17:24:23Z</time>
      </trkpt>
      <trkpt lat="44.30982" lon="4.78073">
        <ele>75</ele>
        <time>2014-11-13T17:24:33Z</time>
      </trkpt>
      <trkpt lat="44.30968" lon="4.78072">
        <ele>74</ele>
        <time>2014-11-13T17:24:47Z</time>
      </trkpt>
      <trkpt lat="44.30966" lon="4.78073">
        <ele>73</ele>
        <time>2014-11-13T17:24:49Z</time>
      </trkpt>
      <trkpt lat="44.30961" lon="4.78074">
        <ele>73</ele>
        <time>2014-11-13T17:24:53Z</time>
      </trkpt>
      <trkpt lat="44.30952" lon="4.78076">
        <ele>73</ele>
        <time>2014-11-13T17:25:00Z</time>
      </trkpt>
      <trkpt lat="44.30948" lon="4.7808">
        <ele>72</ele>
        <time>2014-11-13T17:25:06Z</time>
      </trkpt>
      <trkpt lat="44.30942" lon="4.78083">
        <ele>72</ele>
        <time>2014-11-13T17:25:12Z</time>
      </trkpt>
      <trkpt lat="44.30937" lon="4.78084">
        <ele>72</ele>
        <time>2014-11-13T17:25:18Z</time>
      </trkpt>
      <trkpt lat="44.30928" lon="4.78087">
        <ele>71</ele>
        <time>2014-11-13T17:25:24Z</time>
      </trkpt>
      <trkpt lat="44.30924" lon="4.78089">
        <ele>71</ele>
        <time>2014-11-13T17:25:30Z</time>
      </trkpt>
      <trkpt lat="44.30916" lon="4.78091">
        <ele>71</ele>
        <time>2014-11-13T17:25:36Z</time>
      </trkpt>
      <trkpt lat="44.3091" lon="4.78093">
        <ele>71</ele>
        <time>2014-11-13T17:25:43Z</time>
      </trkpt>
      <trkpt lat="44.30909" lon="4.78094">
        <ele>70</ele>
        <time>2014-11-13T17:25:45Z</time>
      </trkpt>
      <trkpt lat="44.309" lon="4.78097">
        <ele>70</ele>
        <time>2014-11-13T17:25:52Z</time>
      </trkpt>
      <trkpt lat="44.30892" lon="4.78101">
        <ele>70</ele>
        <time>2014-11-13T17:26:01Z</time>
      </trkpt>
      <trkpt lat="44.30887" lon="4.78101">
        <ele>69</ele>
        <time>2014-11-13T17:26:06Z</time>
      </trkpt>
      <trkpt lat="44.3088" lon="4.78103">
        <ele>69</ele>
        <time>2014-11-13T17:26:11Z</time>
      </trkpt>
      <trkpt lat="44.30875" lon="4.78104">
        <ele>69</ele>
        <time>2014-11-13T17:26:17Z</time>
      </trkpt>
      <trkpt lat="44.30872" lon="4.78105">
        <ele>69</ele>
        <time>2014-11-13T17:26:29Z</time>
      </trkpt>
      <trkpt lat="44.3087" lon="4.78104">
        <ele>69</ele>
        <time>2014-11-13T17:26:38Z</time>
      </trkpt>
      <trkpt lat="44.30872" lon="4.78096">
        <ele>69</ele>
        <time>2014-11-13T17:26:45Z</time>
      </trkpt>
      <trkpt lat="44.30872" lon="4.78096">
        <ele>69</ele>
        <time>2014-11-13T17:26:46Z</time>
      </trkpt>
      <trkpt lat="44.30871" lon="4.78083">
        <ele>69</ele>
        <time>2014-11-13T17:26:55Z</time>
      </trkpt>
      <trkpt lat="44.3087" lon="4.78078">
        <ele>69</ele>
        <time>2014-11-13T17:26:59Z</time>
      </trkpt>
      <trkpt lat="44.30869" lon="4.78072">
        <ele>69</ele>
        <time>2014-11-13T17:27:02Z</time>
      </trkpt>
      <trkpt lat="44.30865" lon="4.78061">
        <ele>69</ele>
        <time>2014-11-13T17:27:10Z</time>
      </trkpt>
      <trkpt lat="44.30863" lon="4.78055">
        <ele>69</ele>
        <time>2014-11-13T17:27:15Z</time>
      </trkpt>
      <trkpt lat="44.30861" lon="4.78045">
        <ele>68</ele>
        <time>2014-11-13T17:27:23Z</time>
      </trkpt>
      <trkpt lat="44.3086" lon="4.7803">
        <ele>68</ele>
        <time>2014-11-13T17:27:32Z</time>
      </trkpt>
      <trkpt lat="44.30859" lon="4.78024">
        <ele>68</ele>
        <time>2014-11-13T17:27:38Z</time>
      </trkpt>
      <trkpt lat="44.30854" lon="4.78014">
        <ele>68</ele>
        <time>2014-11-13T17:27:47Z</time>
      </trkpt>
      <trkpt lat="44.30849" lon="4.7801">
        <ele>68</ele>
        <time>2014-11-13T17:27:54Z</time>
      </trkpt>
      <trkpt lat="44.30847" lon="4.78008">
        <ele>68</ele>
        <time>2014-11-13T17:27:57Z</time>
      </trkpt>
      <trkpt lat="44.30845" lon="4.78002">
        <ele>68</ele>
        <time>2014-11-13T17:28:03Z</time>
      </trkpt>
      <trkpt lat="44.30843" lon="4.7799">
        <ele>68</ele>
        <time>2014-11-13T17:28:10Z</time>
      </trkpt>
      <trkpt lat="44.30841" lon="4.7798">
        <ele>68</ele>
        <time>2014-11-13T17:28:18Z</time>
      </trkpt>
      <trkpt lat="44.3084" lon="4.77975">
        <ele>68</ele>
        <time>2014-11-13T17:28:21Z</time>
      </trkpt>
      <trkpt lat="44.30839" lon="4.77965">
        <ele>68</ele>
        <time>2014-11-13T17:28:28Z</time>
      </trkpt>
      <trkpt lat="44.30836" lon="4.77948">
        <ele>67</ele>
        <time>2014-11-13T17:28:39Z</time>
      </trkpt>
      <trkpt lat="44.30834" lon="4.77942">
        <ele>67</ele>
        <time>2014-11-13T17:28:48Z</time>
      </trkpt>
      <trkpt lat="44.30835" lon="4.77942">
        <ele>67</ele>
        <time>2014-11-13T17:28:49Z</time>
      </trkpt>
      <trkpt lat="44.30839" lon="4.77939">
        <ele>68</ele>
        <time>2014-11-13T17:28:56Z</time>
      </trkpt>
      <trkpt lat="44.30845" lon="4.77938">
        <ele>68</ele>
        <time>2014-11-13T17:29:04Z</time>
      </trkpt>
      <trkpt lat="44.30852" lon="4.77937">
        <ele>69</ele>
        <time>2014-11-13T17:29:11Z</time>
      </trkpt>
      <trkpt lat="44.30859" lon="4.77935">
        <ele>68</ele>
        <time>2014-11-13T17:29:19Z</time>
      </trkpt>
      <trkpt lat="44.30864" lon="4.77932">
        <ele>68</ele>
        <time>2014-11-13T17:29:26Z</time>
      </trkpt>
      <trkpt lat="44.30871" lon="4.77931">
        <ele>69</ele>
        <time>2014-11-13T17:29:33Z</time>
      </trkpt>
      <trkpt lat="44.30879" lon="4.77929">
        <ele>69</ele>
        <time>2014-11-13T17:29:41Z</time>
      </trkpt>
      <trkpt lat="44.30881" lon="4.77918">
        <ele>69</ele>
        <time>2014-11-13T17:29:50Z</time>
      </trkpt>
      <trkpt lat="44.30881" lon="4.77908">
        <ele>69</ele>
        <time>2014-11-13T17:29:57Z</time>
      </trkpt>
      <trkpt lat="44.30881" lon="4.77904">
        <ele>69</ele>
        <time>2014-11-13T17:30:00Z</time>
      </trkpt>
      <trkpt lat="44.30881" lon="4.77886">
        <ele>69</ele>
        <time>2014-11-13T17:30:13Z</time>
      </trkpt>
      <trkpt lat="44.30882" lon="4.77877">
        <ele>68</ele>
        <time>2014-11-13T17:30:20Z</time>
      </trkpt>
      <trkpt lat="44.3088" lon="4.77867">
        <ele>69</ele>
        <time>2014-11-13T17:30:28Z</time>
      </trkpt>
      <trkpt lat="44.3088" lon="4.77865">
        <ele>69</ele>
        <time>2014-11-13T17:30:29Z</time>
      </trkpt>
      <trkpt lat="44.30875" lon="4.77856">
        <ele>68</ele>
        <time>2014-11-13T17:30:37Z</time>
      </trkpt>
      <trkpt lat="44.30873" lon="4.77853">
        <ele>69</ele>
        <time>2014-11-13T17:30:43Z</time>
      </trkpt>
      <trkpt lat="44.3087" lon="4.77845">
        <ele>68</ele>
        <time>2014-11-13T17:30:50Z</time>
      </trkpt>
      <trkpt lat="44.30869" lon="4.77839">
        <ele>68</ele>
        <time>2014-11-13T17:30:55Z</time>
      </trkpt>
      <trkpt lat="44.30867" lon="4.77836">
        <ele>68</ele>
        <time>2014-11-13T17:30:58Z</time>
      </trkpt>
      <trkpt lat="44.30865" lon="4.77827">
        <ele>68</ele>
        <time>2014-11-13T17:31:05Z</time>
      </trkpt>
      <trkpt lat="44.30863" lon="4.77816">
        <ele>69</ele>
        <time>2014-11-13T17:31:13Z</time>
      </trkpt>
      <trkpt lat="44.30861" lon="4.77812">
        <ele>68</ele>
        <time>2014-11-13T17:31:16Z</time>
      </trkpt>
      <trkpt lat="44.3086" lon="4.77811">
        <ele>68</ele>
        <time>2014-11-13T17:31:18Z</time>
      </trkpt>
      <trkpt lat="44.30859" lon="4.77802">
        <ele>68</ele>
        <time>2014-11-13T17:31:25Z</time>
      </trkpt>
      <trkpt lat="44.30857" lon="4.77795">
        <ele>68</ele>
        <time>2014-11-13T17:31:32Z</time>
      </trkpt>
      <trkpt lat="44.30857" lon="4.7779">
        <ele>69</ele>
        <time>2014-11-13T17:31:40Z</time>
      </trkpt>
      <trkpt lat="44.30858" lon="4.77786">
        <ele>70</ele>
        <time>2014-11-13T17:31:48Z</time>
      </trkpt>
      <trkpt lat="44.30861" lon="4.77784">
        <ele>70</ele>
        <time>2014-11-13T17:31:54Z</time>
      </trkpt>
      <trkpt lat="44.30862" lon="4.77781">
        <ele>70</ele>
        <time>2014-11-13T17:32:04Z</time>
      </trkpt>
      <trkpt lat="44.30863" lon="4.77779">
        <ele>70</ele>
        <time>2014-11-13T17:32:16Z</time>
      </trkpt>
      <trkpt lat="44.30864" lon="4.77779">
        <ele>70</ele>
        <time>2014-11-13T17:32:27Z</time>
      </trkpt>
      <trkpt lat="44.30866" lon="4.77778">
        <ele>70</ele>
        <time>2014-11-13T17:32:35Z</time>
      </trkpt>
      <trkpt lat="44.30864" lon="4.77778">
        <ele>70</ele>
        <time>2014-11-13T17:32:44Z</time>
      </trkpt>
      <trkpt lat="44.30864" lon="4.77779">
        <ele>70</ele>
        <time>2014-11-13T17:32:52Z</time>
      </trkpt>
      <trkpt lat="44.30866" lon="4.77779">
        <ele>71</ele>
        <time>2014-11-13T17:33:02Z</time>
      </trkpt>
      <trkpt lat="44.30866" lon="4.77779">
        <ele>71</ele>
        <time>2014-11-13T17:33:21Z</time>
      </trkpt>
    </trkseg>
  </trk>
</gpx>